<?xml version="1.0" encoding="UTF-8" standalone="no" ?>
<gpx xmlns="http://www.topografix.com/GPX/1/1" xmlns:xsi="http://www.w3.org/2001/XMLSchema-instance" xsi:schemaLocation="http://www.topografix.com/GPX/1/1 http://www.topografix.com/GPX/1/1/gpx.xsd" version="1.1" creator="VisuGPX - https://www.visugpx.com">
  <metadata>
    <name>rando d\'air ailleurs terrasson 2015 50 km</name>
    <desc><![CDATA[rando d\'air ailleurs terrasson 2015 50 km]]></desc>
  </metadata>
  <trk>
    <name><![CDATA[Ride401186521 on GPSies.com]]></name>
    <trkseg>
      <trkpt lat="45.12861" lon="1.30344">
        <ele>19</ele>
        <time>2015-09-27T06:50:15Z</time>
      </trkpt>
      <trkpt lat="45.12859" lon="1.30321">
        <ele>19</ele>
        <time>2015-09-27T06:50:19Z</time>
      </trkpt>
      <trkpt lat="45.12856" lon="1.30295">
        <ele>21</ele>
        <time>2015-09-27T06:50:24Z</time>
      </trkpt>
      <trkpt lat="45.12855" lon="1.30278">
        <ele>22</ele>
        <time>2015-09-27T06:50:28Z</time>
      </trkpt>
      <trkpt lat="45.1285" lon="1.30268">
        <ele>23</ele>
        <time>2015-09-27T06:50:31Z</time>
      </trkpt>
      <trkpt lat="45.1283" lon="1.30271">
        <ele>23</ele>
        <time>2015-09-27T06:50:35Z</time>
      </trkpt>
      <trkpt lat="45.12801" lon="1.30283">
        <ele>23</ele>
        <time>2015-09-27T06:50:40Z</time>
      </trkpt>
      <trkpt lat="45.12784" lon="1.30289">
        <ele>23</ele>
        <time>2015-09-27T06:50:43Z</time>
      </trkpt>
      <trkpt lat="45.12762" lon="1.30285">
        <ele>23</ele>
        <time>2015-09-27T06:50:47Z</time>
      </trkpt>
      <trkpt lat="45.12752" lon="1.30251">
        <ele>22</ele>
        <time>2015-09-27T06:50:51Z</time>
      </trkpt>
      <trkpt lat="45.12747" lon="1.30203">
        <ele>20</ele>
        <time>2015-09-27T06:50:55Z</time>
      </trkpt>
      <trkpt lat="45.12739" lon="1.30143">
        <ele>19</ele>
        <time>2015-09-27T06:51:00Z</time>
      </trkpt>
      <trkpt lat="45.12733" lon="1.30094">
        <ele>19</ele>
        <time>2015-09-27T06:51:04Z</time>
      </trkpt>
      <trkpt lat="45.12731" lon="1.30059">
        <ele>18</ele>
        <time>2015-09-27T06:51:07Z</time>
      </trkpt>
      <trkpt lat="45.12728" lon="1.30023">
        <ele>19</ele>
        <time>2015-09-27T06:51:10Z</time>
      </trkpt>
      <trkpt lat="45.12724" lon="1.29959">
        <ele>18</ele>
        <time>2015-09-27T06:51:16Z</time>
      </trkpt>
      <trkpt lat="45.12723" lon="1.29913">
        <ele>19</ele>
        <time>2015-09-27T06:51:21Z</time>
      </trkpt>
      <trkpt lat="45.12724" lon="1.29867">
        <ele>18</ele>
        <time>2015-09-27T06:51:26Z</time>
      </trkpt>
      <trkpt lat="45.12723" lon="1.29835">
        <ele>19</ele>
        <time>2015-09-27T06:51:29Z</time>
      </trkpt>
      <trkpt lat="45.12722" lon="1.298">
        <ele>18</ele>
        <time>2015-09-27T06:51:32Z</time>
      </trkpt>
      <trkpt lat="45.12721" lon="1.2974">
        <ele>19</ele>
        <time>2015-09-27T06:51:37Z</time>
      </trkpt>
      <trkpt lat="45.12721" lon="1.29672">
        <ele>18</ele>
        <time>2015-09-27T06:51:43Z</time>
      </trkpt>
      <trkpt lat="45.12721" lon="1.29574">
        <ele>19</ele>
        <time>2015-09-27T06:51:52Z</time>
      </trkpt>
      <trkpt lat="45.12712" lon="1.29512">
        <ele>18</ele>
        <time>2015-09-27T06:51:58Z</time>
      </trkpt>
      <trkpt lat="45.12699" lon="1.29459">
        <ele>18</ele>
        <time>2015-09-27T06:52:03Z</time>
      </trkpt>
      <trkpt lat="45.12698" lon="1.29411">
        <ele>18</ele>
        <time>2015-09-27T06:52:07Z</time>
      </trkpt>
      <trkpt lat="45.12704" lon="1.29341">
        <ele>18</ele>
        <time>2015-09-27T06:52:13Z</time>
      </trkpt>
      <trkpt lat="45.12703" lon="1.2926">
        <ele>18</ele>
        <time>2015-09-27T06:52:20Z</time>
      </trkpt>
      <trkpt lat="45.127" lon="1.29161">
        <ele>19</ele>
        <time>2015-09-27T06:52:29Z</time>
      </trkpt>
      <trkpt lat="45.12695" lon="1.29076">
        <ele>19</ele>
        <time>2015-09-27T06:52:37Z</time>
      </trkpt>
      <trkpt lat="45.12688" lon="1.29001">
        <ele>19</ele>
        <time>2015-09-27T06:52:44Z</time>
      </trkpt>
      <trkpt lat="45.12688" lon="1.28951">
        <ele>20</ele>
        <time>2015-09-27T06:52:49Z</time>
      </trkpt>
      <trkpt lat="45.12697" lon="1.28866">
        <ele>21</ele>
        <time>2015-09-27T06:52:58Z</time>
      </trkpt>
      <trkpt lat="45.12705" lon="1.28814">
        <ele>21</ele>
        <time>2015-09-27T06:53:04Z</time>
      </trkpt>
      <trkpt lat="45.12716" lon="1.28762">
        <ele>21</ele>
        <time>2015-09-27T06:53:10Z</time>
      </trkpt>
      <trkpt lat="45.12721" lon="1.28728">
        <ele>21</ele>
        <time>2015-09-27T06:53:14Z</time>
      </trkpt>
      <trkpt lat="45.12726" lon="1.28696">
        <ele>21</ele>
        <time>2015-09-27T06:53:18Z</time>
      </trkpt>
      <trkpt lat="45.1273" lon="1.28666">
        <ele>23</ele>
        <time>2015-09-27T06:53:22Z</time>
      </trkpt>
      <trkpt lat="45.12736" lon="1.28623">
        <ele>24</ele>
        <time>2015-09-27T06:53:28Z</time>
      </trkpt>
      <trkpt lat="45.12737" lon="1.28593">
        <ele>25</ele>
        <time>2015-09-27T06:53:32Z</time>
      </trkpt>
      <trkpt lat="45.12742" lon="1.28554">
        <ele>26</ele>
        <time>2015-09-27T06:53:37Z</time>
      </trkpt>
      <trkpt lat="45.12751" lon="1.28498">
        <ele>26</ele>
        <time>2015-09-27T06:53:44Z</time>
      </trkpt>
      <trkpt lat="45.12767" lon="1.28418">
        <ele>26</ele>
        <time>2015-09-27T06:53:53Z</time>
      </trkpt>
      <trkpt lat="45.12766" lon="1.28339">
        <ele>25</ele>
        <time>2015-09-27T06:54:01Z</time>
      </trkpt>
      <trkpt lat="45.1276" lon="1.28274">
        <ele>26</ele>
        <time>2015-09-27T06:54:08Z</time>
      </trkpt>
      <trkpt lat="45.12747" lon="1.28197">
        <ele>27</ele>
        <time>2015-09-27T06:54:17Z</time>
      </trkpt>
      <trkpt lat="45.12734" lon="1.28125">
        <ele>28</ele>
        <time>2015-09-27T06:54:26Z</time>
      </trkpt>
      <trkpt lat="45.12723" lon="1.28061">
        <ele>29</ele>
        <time>2015-09-27T06:54:34Z</time>
      </trkpt>
      <trkpt lat="45.12717" lon="1.28038">
        <ele>29</ele>
        <time>2015-09-27T06:54:37Z</time>
      </trkpt>
      <trkpt lat="45.12704" lon="1.27975">
        <ele>30</ele>
        <time>2015-09-27T06:54:45Z</time>
      </trkpt>
      <trkpt lat="45.12687" lon="1.27927">
        <ele>31</ele>
        <time>2015-09-27T06:54:52Z</time>
      </trkpt>
      <trkpt lat="45.12667" lon="1.27888">
        <ele>32</ele>
        <time>2015-09-27T06:54:58Z</time>
      </trkpt>
      <trkpt lat="45.12658" lon="1.27869">
        <ele>32</ele>
        <time>2015-09-27T06:55:01Z</time>
      </trkpt>
      <trkpt lat="45.12633" lon="1.27809">
        <ele>33</ele>
        <time>2015-09-27T06:55:10Z</time>
      </trkpt>
      <trkpt lat="45.12625" lon="1.27792">
        <ele>34</ele>
        <time>2015-09-27T06:55:13Z</time>
      </trkpt>
      <trkpt lat="45.12614" lon="1.27779">
        <ele>34</ele>
        <time>2015-09-27T06:55:16Z</time>
      </trkpt>
      <trkpt lat="45.12603" lon="1.27771">
        <ele>36</ele>
        <time>2015-09-27T06:55:19Z</time>
      </trkpt>
      <trkpt lat="45.12589" lon="1.27763">
        <ele>37</ele>
        <time>2015-09-27T06:55:23Z</time>
      </trkpt>
      <trkpt lat="45.12577" lon="1.27759">
        <ele>38</ele>
        <time>2015-09-27T06:55:26Z</time>
      </trkpt>
      <trkpt lat="45.12565" lon="1.27755">
        <ele>40</ele>
        <time>2015-09-27T06:55:29Z</time>
      </trkpt>
      <trkpt lat="45.12556" lon="1.27742">
        <ele>41</ele>
        <time>2015-09-27T06:55:32Z</time>
      </trkpt>
      <trkpt lat="45.12551" lon="1.27726">
        <ele>42</ele>
        <time>2015-09-27T06:55:35Z</time>
      </trkpt>
      <trkpt lat="45.12547" lon="1.2771">
        <ele>44</ele>
        <time>2015-09-27T06:55:38Z</time>
      </trkpt>
      <trkpt lat="45.12544" lon="1.27693">
        <ele>45</ele>
        <time>2015-09-27T06:55:41Z</time>
      </trkpt>
      <trkpt lat="45.12539" lon="1.27672">
        <ele>46</ele>
        <time>2015-09-27T06:55:45Z</time>
      </trkpt>
      <trkpt lat="45.12529" lon="1.2765">
        <ele>48</ele>
        <time>2015-09-27T06:55:50Z</time>
      </trkpt>
      <trkpt lat="45.12521" lon="1.27634">
        <ele>49</ele>
        <time>2015-09-27T06:55:54Z</time>
      </trkpt>
      <trkpt lat="45.12514" lon="1.27622">
        <ele>50</ele>
        <time>2015-09-27T06:55:57Z</time>
      </trkpt>
      <trkpt lat="45.12508" lon="1.27609">
        <ele>52</ele>
        <time>2015-09-27T06:56:00Z</time>
      </trkpt>
      <trkpt lat="45.12502" lon="1.27596">
        <ele>53</ele>
        <time>2015-09-27T06:56:03Z</time>
      </trkpt>
      <trkpt lat="45.12497" lon="1.27583">
        <ele>54</ele>
        <time>2015-09-27T06:56:06Z</time>
      </trkpt>
      <trkpt lat="45.12485" lon="1.27565">
        <ele>57</ele>
        <time>2015-09-27T06:56:11Z</time>
      </trkpt>
      <trkpt lat="45.12479" lon="1.27555">
        <ele>59</ele>
        <time>2015-09-27T06:56:14Z</time>
      </trkpt>
      <trkpt lat="45.12472" lon="1.27543">
        <ele>60</ele>
        <time>2015-09-27T06:56:17Z</time>
      </trkpt>
      <trkpt lat="45.12465" lon="1.27531">
        <ele>61</ele>
        <time>2015-09-27T06:56:20Z</time>
      </trkpt>
      <trkpt lat="45.12457" lon="1.2752">
        <ele>62</ele>
        <time>2015-09-27T06:56:23Z</time>
      </trkpt>
      <trkpt lat="45.12449" lon="1.27507">
        <ele>64</ele>
        <time>2015-09-27T06:56:26Z</time>
      </trkpt>
      <trkpt lat="45.12442" lon="1.27495">
        <ele>65</ele>
        <time>2015-09-27T06:56:29Z</time>
      </trkpt>
      <trkpt lat="45.12433" lon="1.2748">
        <ele>67</ele>
        <time>2015-09-27T06:56:33Z</time>
      </trkpt>
      <trkpt lat="45.12423" lon="1.27466">
        <ele>69</ele>
        <time>2015-09-27T06:56:37Z</time>
      </trkpt>
      <trkpt lat="45.12416" lon="1.27455">
        <ele>70</ele>
        <time>2015-09-27T06:56:40Z</time>
      </trkpt>
      <trkpt lat="45.12409" lon="1.27445">
        <ele>71</ele>
        <time>2015-09-27T06:56:43Z</time>
      </trkpt>
      <trkpt lat="45.12403" lon="1.27436">
        <ele>73</ele>
        <time>2015-09-27T06:56:46Z</time>
      </trkpt>
      <trkpt lat="45.12397" lon="1.27426">
        <ele>74</ele>
        <time>2015-09-27T06:56:49Z</time>
      </trkpt>
      <trkpt lat="45.1239" lon="1.27417">
        <ele>75</ele>
        <time>2015-09-27T06:56:52Z</time>
      </trkpt>
      <trkpt lat="45.12384" lon="1.27408">
        <ele>77</ele>
        <time>2015-09-27T06:56:55Z</time>
      </trkpt>
      <trkpt lat="45.12377" lon="1.27399">
        <ele>78</ele>
        <time>2015-09-27T06:56:58Z</time>
      </trkpt>
      <trkpt lat="45.12371" lon="1.27392">
        <ele>79</ele>
        <time>2015-09-27T06:57:01Z</time>
      </trkpt>
      <trkpt lat="45.12365" lon="1.27386">
        <ele>80</ele>
        <time>2015-09-27T06:57:04Z</time>
      </trkpt>
      <trkpt lat="45.12357" lon="1.27378">
        <ele>81</ele>
        <time>2015-09-27T06:57:07Z</time>
      </trkpt>
      <trkpt lat="45.12349" lon="1.2737">
        <ele>82</ele>
        <time>2015-09-27T06:57:10Z</time>
      </trkpt>
      <trkpt lat="45.12341" lon="1.27358">
        <ele>84</ele>
        <time>2015-09-27T06:57:14Z</time>
      </trkpt>
      <trkpt lat="45.12335" lon="1.27349">
        <ele>85</ele>
        <time>2015-09-27T06:57:17Z</time>
      </trkpt>
      <trkpt lat="45.12327" lon="1.27335">
        <ele>87</ele>
        <time>2015-09-27T06:57:22Z</time>
      </trkpt>
      <trkpt lat="45.12322" lon="1.27325">
        <ele>88</ele>
        <time>2015-09-27T06:57:25Z</time>
      </trkpt>
      <trkpt lat="45.12318" lon="1.27316">
        <ele>89</ele>
        <time>2015-09-27T06:57:28Z</time>
      </trkpt>
      <trkpt lat="45.12314" lon="1.27306">
        <ele>90</ele>
        <time>2015-09-27T06:57:31Z</time>
      </trkpt>
      <trkpt lat="45.12311" lon="1.27295">
        <ele>91</ele>
        <time>2015-09-27T06:57:34Z</time>
      </trkpt>
      <trkpt lat="45.12305" lon="1.27283">
        <ele>92</ele>
        <time>2015-09-27T06:57:37Z</time>
      </trkpt>
      <trkpt lat="45.12297" lon="1.2727">
        <ele>94</ele>
        <time>2015-09-27T06:57:41Z</time>
      </trkpt>
      <trkpt lat="45.1229" lon="1.27262">
        <ele>95</ele>
        <time>2015-09-27T06:57:44Z</time>
      </trkpt>
      <trkpt lat="45.12281" lon="1.27248">
        <ele>97</ele>
        <time>2015-09-27T06:57:49Z</time>
      </trkpt>
      <trkpt lat="45.12277" lon="1.2724">
        <ele>98</ele>
        <time>2015-09-27T06:57:52Z</time>
      </trkpt>
      <trkpt lat="45.1227" lon="1.2723">
        <ele>99</ele>
        <time>2015-09-27T06:57:55Z</time>
      </trkpt>
      <trkpt lat="45.12262" lon="1.27221">
        <ele>100</ele>
        <time>2015-09-27T06:57:58Z</time>
      </trkpt>
      <trkpt lat="45.12255" lon="1.27214">
        <ele>102</ele>
        <time>2015-09-27T06:58:01Z</time>
      </trkpt>
      <trkpt lat="45.12244" lon="1.27201">
        <ele>103</ele>
        <time>2015-09-27T06:58:05Z</time>
      </trkpt>
      <trkpt lat="45.12237" lon="1.27191">
        <ele>104</ele>
        <time>2015-09-27T06:58:08Z</time>
      </trkpt>
      <trkpt lat="45.1223" lon="1.27181">
        <ele>105</ele>
        <time>2015-09-27T06:58:11Z</time>
      </trkpt>
      <trkpt lat="45.12223" lon="1.27172">
        <ele>106</ele>
        <time>2015-09-27T06:58:14Z</time>
      </trkpt>
      <trkpt lat="45.12218" lon="1.27164">
        <ele>107</ele>
        <time>2015-09-27T06:58:17Z</time>
      </trkpt>
      <trkpt lat="45.12213" lon="1.27154">
        <ele>108</ele>
        <time>2015-09-27T06:58:20Z</time>
      </trkpt>
      <trkpt lat="45.12209" lon="1.27147">
        <ele>109</ele>
        <time>2015-09-27T06:58:23Z</time>
      </trkpt>
      <trkpt lat="45.12203" lon="1.27139">
        <ele>110</ele>
        <time>2015-09-27T06:58:26Z</time>
      </trkpt>
      <trkpt lat="45.12195" lon="1.27129">
        <ele>111</ele>
        <time>2015-09-27T06:58:29Z</time>
      </trkpt>
      <trkpt lat="45.12182" lon="1.27116">
        <ele>113</ele>
        <time>2015-09-27T06:58:34Z</time>
      </trkpt>
      <trkpt lat="45.12175" lon="1.27108">
        <ele>114</ele>
        <time>2015-09-27T06:58:37Z</time>
      </trkpt>
      <trkpt lat="45.12165" lon="1.27098">
        <ele>116</ele>
        <time>2015-09-27T06:58:41Z</time>
      </trkpt>
      <trkpt lat="45.12177" lon="1.27078">
        <ele>117</ele>
        <time>2015-09-27T06:58:45Z</time>
      </trkpt>
      <trkpt lat="45.12168" lon="1.2707">
        <ele>118</ele>
        <time>2015-09-27T06:58:48Z</time>
      </trkpt>
      <trkpt lat="45.1217" lon="1.27063">
        <ele>119</ele>
        <time>2015-09-27T06:58:51Z</time>
      </trkpt>
      <trkpt lat="45.12161" lon="1.27058">
        <ele>120</ele>
        <time>2015-09-27T06:58:54Z</time>
      </trkpt>
      <trkpt lat="45.12145" lon="1.2705">
        <ele>123</ele>
        <time>2015-09-27T06:58:59Z</time>
      </trkpt>
      <trkpt lat="45.12138" lon="1.27045">
        <ele>124</ele>
        <time>2015-09-27T06:59:02Z</time>
      </trkpt>
      <trkpt lat="45.1213" lon="1.27041">
        <ele>125</ele>
        <time>2015-09-27T06:59:05Z</time>
      </trkpt>
      <trkpt lat="45.12135" lon="1.27036">
        <ele>126</ele>
        <time>2015-09-27T06:59:08Z</time>
      </trkpt>
      <trkpt lat="45.12142" lon="1.27033">
        <ele>127</ele>
        <time>2015-09-27T06:59:11Z</time>
      </trkpt>
      <trkpt lat="45.12143" lon="1.27031">
        <ele>128</ele>
        <time>2015-09-27T06:59:14Z</time>
      </trkpt>
      <trkpt lat="45.12137" lon="1.2703">
        <ele>129</ele>
        <time>2015-09-27T06:59:17Z</time>
      </trkpt>
      <trkpt lat="45.12126" lon="1.27022">
        <ele>132</ele>
        <time>2015-09-27T06:59:22Z</time>
      </trkpt>
      <trkpt lat="45.12118" lon="1.27015">
        <ele>133</ele>
        <time>2015-09-27T06:59:26Z</time>
      </trkpt>
      <trkpt lat="45.12112" lon="1.27009">
        <ele>134</ele>
        <time>2015-09-27T06:59:29Z</time>
      </trkpt>
      <trkpt lat="45.12106" lon="1.27002">
        <ele>135</ele>
        <time>2015-09-27T06:59:32Z</time>
      </trkpt>
      <trkpt lat="45.12097" lon="1.26995">
        <ele>136</ele>
        <time>2015-09-27T06:59:35Z</time>
      </trkpt>
      <trkpt lat="45.12087" lon="1.26988">
        <ele>137</ele>
        <time>2015-09-27T06:59:38Z</time>
      </trkpt>
      <trkpt lat="45.12077" lon="1.26981">
        <ele>139</ele>
        <time>2015-09-27T06:59:41Z</time>
      </trkpt>
      <trkpt lat="45.12062" lon="1.2697">
        <ele>141</ele>
        <time>2015-09-27T06:59:46Z</time>
      </trkpt>
      <trkpt lat="45.12056" lon="1.26963">
        <ele>142</ele>
        <time>2015-09-27T06:59:49Z</time>
      </trkpt>
      <trkpt lat="45.12049" lon="1.26956">
        <ele>143</ele>
        <time>2015-09-27T06:59:52Z</time>
      </trkpt>
      <trkpt lat="45.12037" lon="1.26941">
        <ele>145</ele>
        <time>2015-09-27T06:59:57Z</time>
      </trkpt>
      <trkpt lat="45.12027" lon="1.2693">
        <ele>145</ele>
        <time>2015-09-27T07:00:00Z</time>
      </trkpt>
      <trkpt lat="45.12013" lon="1.26915">
        <ele>146</ele>
        <time>2015-09-27T07:00:05Z</time>
      </trkpt>
      <trkpt lat="45.12002" lon="1.26902">
        <ele>147</ele>
        <time>2015-09-27T07:00:09Z</time>
      </trkpt>
      <trkpt lat="45.11982" lon="1.26887">
        <ele>147</ele>
        <time>2015-09-27T07:00:14Z</time>
      </trkpt>
      <trkpt lat="45.11954" lon="1.26851">
        <ele>148</ele>
        <time>2015-09-27T07:00:21Z</time>
      </trkpt>
      <trkpt lat="45.11936" lon="1.26824">
        <ele>149</ele>
        <time>2015-09-27T07:00:26Z</time>
      </trkpt>
      <trkpt lat="45.11925" lon="1.26808">
        <ele>150</ele>
        <time>2015-09-27T07:00:29Z</time>
      </trkpt>
      <trkpt lat="45.11914" lon="1.26792">
        <ele>151</ele>
        <time>2015-09-27T07:00:32Z</time>
      </trkpt>
      <trkpt lat="45.11893" lon="1.26758">
        <ele>151</ele>
        <time>2015-09-27T07:00:38Z</time>
      </trkpt>
      <trkpt lat="45.11862" lon="1.26713">
        <ele>152</ele>
        <time>2015-09-27T07:00:46Z</time>
      </trkpt>
      <trkpt lat="45.11834" lon="1.26679">
        <ele>153</ele>
        <time>2015-09-27T07:00:53Z</time>
      </trkpt>
      <trkpt lat="45.11818" lon="1.26662">
        <ele>154</ele>
        <time>2015-09-27T07:00:57Z</time>
      </trkpt>
      <trkpt lat="45.11802" lon="1.26645">
        <ele>156</ele>
        <time>2015-09-27T07:01:01Z</time>
      </trkpt>
      <trkpt lat="45.1179" lon="1.26633">
        <ele>157</ele>
        <time>2015-09-27T07:01:04Z</time>
      </trkpt>
      <trkpt lat="45.11778" lon="1.26622">
        <ele>158</ele>
        <time>2015-09-27T07:01:07Z</time>
      </trkpt>
      <trkpt lat="45.11767" lon="1.26614">
        <ele>160</ele>
        <time>2015-09-27T07:01:10Z</time>
      </trkpt>
      <trkpt lat="45.11764" lon="1.26611">
        <ele>161</ele>
        <time>2015-09-27T07:01:13Z</time>
      </trkpt>
      <trkpt lat="45.11764" lon="1.2661">
        <ele>162</ele>
        <time>2015-09-27T07:01:16Z</time>
      </trkpt>
      <trkpt lat="45.1176" lon="1.26617">
        <ele>164</ele>
        <time>2015-09-27T07:01:20Z</time>
      </trkpt>
      <trkpt lat="45.11751" lon="1.2664">
        <ele>166</ele>
        <time>2015-09-27T07:01:26Z</time>
      </trkpt>
      <trkpt lat="45.1173" lon="1.26669">
        <ele>165</ele>
        <time>2015-09-27T07:01:33Z</time>
      </trkpt>
      <trkpt lat="45.11718" lon="1.26679">
        <ele>164</ele>
        <time>2015-09-27T07:01:36Z</time>
      </trkpt>
      <trkpt lat="45.11707" lon="1.26671">
        <ele>163</ele>
        <time>2015-09-27T07:01:39Z</time>
      </trkpt>
      <trkpt lat="45.11688" lon="1.26633">
        <ele>160</ele>
        <time>2015-09-27T07:01:43Z</time>
      </trkpt>
      <trkpt lat="45.11648" lon="1.2659">
        <ele>159</ele>
        <time>2015-09-27T07:01:49Z</time>
      </trkpt>
      <trkpt lat="45.11605" lon="1.26546">
        <ele>160</ele>
        <time>2015-09-27T07:01:57Z</time>
      </trkpt>
      <trkpt lat="45.11557" lon="1.26478">
        <ele>160</ele>
        <time>2015-09-27T07:02:06Z</time>
      </trkpt>
      <trkpt lat="45.11525" lon="1.26443">
        <ele>159</ele>
        <time>2015-09-27T07:02:11Z</time>
      </trkpt>
      <trkpt lat="45.11486" lon="1.26382">
        <ele>157</ele>
        <time>2015-09-27T07:02:17Z</time>
      </trkpt>
      <trkpt lat="45.11462" lon="1.26329">
        <ele>157</ele>
        <time>2015-09-27T07:02:22Z</time>
      </trkpt>
      <trkpt lat="45.11446" lon="1.26287">
        <ele>157</ele>
        <time>2015-09-27T07:02:27Z</time>
      </trkpt>
      <trkpt lat="45.11435" lon="1.26263">
        <ele>159</ele>
        <time>2015-09-27T07:02:30Z</time>
      </trkpt>
      <trkpt lat="45.11425" lon="1.26238">
        <ele>160</ele>
        <time>2015-09-27T07:02:33Z</time>
      </trkpt>
      <trkpt lat="45.11417" lon="1.26214">
        <ele>162</ele>
        <time>2015-09-27T07:02:36Z</time>
      </trkpt>
      <trkpt lat="45.11407" lon="1.262">
        <ele>162</ele>
        <time>2015-09-27T07:02:39Z</time>
      </trkpt>
      <trkpt lat="45.11394" lon="1.26203">
        <ele>163</ele>
        <time>2015-09-27T07:02:42Z</time>
      </trkpt>
      <trkpt lat="45.11368" lon="1.26216">
        <ele>163</ele>
        <time>2015-09-27T07:02:47Z</time>
      </trkpt>
      <trkpt lat="45.11349" lon="1.26228">
        <ele>161</ele>
        <time>2015-09-27T07:02:50Z</time>
      </trkpt>
      <trkpt lat="45.1131" lon="1.26231">
        <ele>158</ele>
        <time>2015-09-27T07:02:55Z</time>
      </trkpt>
      <trkpt lat="45.11281" lon="1.26226">
        <ele>154</ele>
        <time>2015-09-27T07:02:58Z</time>
      </trkpt>
      <trkpt lat="45.11258" lon="1.26224">
        <ele>150</ele>
        <time>2015-09-27T07:03:01Z</time>
      </trkpt>
      <trkpt lat="45.1124" lon="1.26208">
        <ele>147</ele>
        <time>2015-09-27T07:03:04Z</time>
      </trkpt>
      <trkpt lat="45.11222" lon="1.26192">
        <ele>144</ele>
        <time>2015-09-27T07:03:07Z</time>
      </trkpt>
      <trkpt lat="45.11203" lon="1.26178">
        <ele>142</ele>
        <time>2015-09-27T07:03:10Z</time>
      </trkpt>
      <trkpt lat="45.11187" lon="1.26157">
        <ele>141</ele>
        <time>2015-09-27T07:03:13Z</time>
      </trkpt>
      <trkpt lat="45.11179" lon="1.26132">
        <ele>139</ele>
        <time>2015-09-27T07:03:16Z</time>
      </trkpt>
      <trkpt lat="45.11177" lon="1.26099">
        <ele>136</ele>
        <time>2015-09-27T07:03:20Z</time>
      </trkpt>
      <trkpt lat="45.11176" lon="1.26085">
        <ele>133</ele>
        <time>2015-09-27T07:03:23Z</time>
      </trkpt>
      <trkpt lat="45.11179" lon="1.26077">
        <ele>130</ele>
        <time>2015-09-27T07:03:27Z</time>
      </trkpt>
      <trkpt lat="45.11187" lon="1.26059">
        <ele>127</ele>
        <time>2015-09-27T07:03:31Z</time>
      </trkpt>
      <trkpt lat="45.11192" lon="1.26041">
        <ele>124</ele>
        <time>2015-09-27T07:03:35Z</time>
      </trkpt>
      <trkpt lat="45.11196" lon="1.26023">
        <ele>122</ele>
        <time>2015-09-27T07:03:38Z</time>
      </trkpt>
      <trkpt lat="45.11207" lon="1.2599">
        <ele>120</ele>
        <time>2015-09-27T07:03:42Z</time>
      </trkpt>
      <trkpt lat="45.11207" lon="1.25962">
        <ele>116</ele>
        <time>2015-09-27T07:03:45Z</time>
      </trkpt>
      <trkpt lat="45.11196" lon="1.25936">
        <ele>113</ele>
        <time>2015-09-27T07:03:48Z</time>
      </trkpt>
      <trkpt lat="45.11178" lon="1.2591">
        <ele>109</ele>
        <time>2015-09-27T07:03:51Z</time>
      </trkpt>
      <trkpt lat="45.11155" lon="1.2589">
        <ele>105</ele>
        <time>2015-09-27T07:03:54Z</time>
      </trkpt>
      <trkpt lat="45.11126" lon="1.25875">
        <ele>101</ele>
        <time>2015-09-27T07:03:57Z</time>
      </trkpt>
      <trkpt lat="45.11098" lon="1.25861">
        <ele>97</ele>
        <time>2015-09-27T07:04:00Z</time>
      </trkpt>
      <trkpt lat="45.11074" lon="1.25851">
        <ele>94</ele>
        <time>2015-09-27T07:04:03Z</time>
      </trkpt>
      <trkpt lat="45.11055" lon="1.25857">
        <ele>90</ele>
        <time>2015-09-27T07:04:06Z</time>
      </trkpt>
      <trkpt lat="45.11035" lon="1.25876">
        <ele>87</ele>
        <time>2015-09-27T07:04:09Z</time>
      </trkpt>
      <trkpt lat="45.11011" lon="1.25917">
        <ele>83</ele>
        <time>2015-09-27T07:04:13Z</time>
      </trkpt>
      <trkpt lat="45.10995" lon="1.25954">
        <ele>81</ele>
        <time>2015-09-27T07:04:16Z</time>
      </trkpt>
      <trkpt lat="45.10978" lon="1.25988">
        <ele>78</ele>
        <time>2015-09-27T07:04:19Z</time>
      </trkpt>
      <trkpt lat="45.10961" lon="1.26024">
        <ele>76</ele>
        <time>2015-09-27T07:04:22Z</time>
      </trkpt>
      <trkpt lat="45.10942" lon="1.26057">
        <ele>73</ele>
        <time>2015-09-27T07:04:25Z</time>
      </trkpt>
      <trkpt lat="45.10921" lon="1.26089">
        <ele>70</ele>
        <time>2015-09-27T07:04:28Z</time>
      </trkpt>
      <trkpt lat="45.10892" lon="1.2613">
        <ele>67</ele>
        <time>2015-09-27T07:04:32Z</time>
      </trkpt>
      <trkpt lat="45.1087" lon="1.26162">
        <ele>64</ele>
        <time>2015-09-27T07:04:35Z</time>
      </trkpt>
      <trkpt lat="45.10851" lon="1.26194">
        <ele>60</ele>
        <time>2015-09-27T07:04:38Z</time>
      </trkpt>
      <trkpt lat="45.10843" lon="1.26221">
        <ele>59</ele>
        <time>2015-09-27T07:04:41Z</time>
      </trkpt>
      <trkpt lat="45.10838" lon="1.26238">
        <ele>57</ele>
        <time>2015-09-27T07:04:45Z</time>
      </trkpt>
      <trkpt lat="45.10829" lon="1.26237">
        <ele>57</ele>
        <time>2015-09-27T07:04:48Z</time>
      </trkpt>
      <trkpt lat="45.10819" lon="1.26238">
        <ele>55</ele>
        <time>2015-09-27T07:04:51Z</time>
      </trkpt>
      <trkpt lat="45.10793" lon="1.2623">
        <ele>52</ele>
        <time>2015-09-27T07:04:55Z</time>
      </trkpt>
      <trkpt lat="45.10758" lon="1.2621">
        <ele>50</ele>
        <time>2015-09-27T07:04:59Z</time>
      </trkpt>
      <trkpt lat="45.10727" lon="1.2619">
        <ele>49</ele>
        <time>2015-09-27T07:05:02Z</time>
      </trkpt>
      <trkpt lat="45.10698" lon="1.26178">
        <ele>47</ele>
        <time>2015-09-27T07:05:05Z</time>
      </trkpt>
      <trkpt lat="45.10662" lon="1.26166">
        <ele>46</ele>
        <time>2015-09-27T07:05:09Z</time>
      </trkpt>
      <trkpt lat="45.10634" lon="1.26159">
        <ele>44</ele>
        <time>2015-09-27T07:05:12Z</time>
      </trkpt>
      <trkpt lat="45.10612" lon="1.26154">
        <ele>43</ele>
        <time>2015-09-27T07:05:15Z</time>
      </trkpt>
      <trkpt lat="45.10595" lon="1.26162">
        <ele>43</ele>
        <time>2015-09-27T07:05:19Z</time>
      </trkpt>
      <trkpt lat="45.10584" lon="1.26175">
        <ele>46</ele>
        <time>2015-09-27T07:05:23Z</time>
      </trkpt>
      <trkpt lat="45.1058" lon="1.26184">
        <ele>47</ele>
        <time>2015-09-27T07:05:26Z</time>
      </trkpt>
      <trkpt lat="45.10577" lon="1.26198">
        <ele>48</ele>
        <time>2015-09-27T07:05:29Z</time>
      </trkpt>
      <trkpt lat="45.10572" lon="1.26218">
        <ele>49</ele>
        <time>2015-09-27T07:05:32Z</time>
      </trkpt>
      <trkpt lat="45.10567" lon="1.2624">
        <ele>50</ele>
        <time>2015-09-27T07:05:36Z</time>
      </trkpt>
      <trkpt lat="45.10561" lon="1.26276">
        <ele>49</ele>
        <time>2015-09-27T07:05:41Z</time>
      </trkpt>
      <trkpt lat="45.10553" lon="1.26307">
        <ele>48</ele>
        <time>2015-09-27T07:05:45Z</time>
      </trkpt>
      <trkpt lat="45.10546" lon="1.26335">
        <ele>47</ele>
        <time>2015-09-27T07:05:48Z</time>
      </trkpt>
      <trkpt lat="45.10536" lon="1.26374">
        <ele>46</ele>
        <time>2015-09-27T07:05:52Z</time>
      </trkpt>
      <trkpt lat="45.10528" lon="1.26404">
        <ele>48</ele>
        <time>2015-09-27T07:05:56Z</time>
      </trkpt>
      <trkpt lat="45.10521" lon="1.26422">
        <ele>49</ele>
        <time>2015-09-27T07:05:59Z</time>
      </trkpt>
      <trkpt lat="45.10512" lon="1.26445">
        <ele>51</ele>
        <time>2015-09-27T07:06:03Z</time>
      </trkpt>
      <trkpt lat="45.10508" lon="1.2646">
        <ele>52</ele>
        <time>2015-09-27T07:06:06Z</time>
      </trkpt>
      <trkpt lat="45.105" lon="1.26481">
        <ele>54</ele>
        <time>2015-09-27T07:06:10Z</time>
      </trkpt>
      <trkpt lat="45.10489" lon="1.26515">
        <ele>55</ele>
        <time>2015-09-27T07:06:16Z</time>
      </trkpt>
      <trkpt lat="45.10484" lon="1.26531">
        <ele>56</ele>
        <time>2015-09-27T07:06:19Z</time>
      </trkpt>
      <trkpt lat="45.10477" lon="1.26553">
        <ele>58</ele>
        <time>2015-09-27T07:06:24Z</time>
      </trkpt>
      <trkpt lat="45.10453" lon="1.26562">
        <ele>57</ele>
        <time>2015-09-27T07:06:30Z</time>
      </trkpt>
      <trkpt lat="45.10434" lon="1.26561">
        <ele>54</ele>
        <time>2015-09-27T07:06:33Z</time>
      </trkpt>
      <trkpt lat="45.10397" lon="1.26561">
        <ele>51</ele>
        <time>2015-09-27T07:06:37Z</time>
      </trkpt>
      <trkpt lat="45.10369" lon="1.26553">
        <ele>49</ele>
        <time>2015-09-27T07:06:40Z</time>
      </trkpt>
      <trkpt lat="45.10344" lon="1.26539">
        <ele>46</ele>
        <time>2015-09-27T07:06:43Z</time>
      </trkpt>
      <trkpt lat="45.1032" lon="1.26525">
        <ele>43</ele>
        <time>2015-09-27T07:06:46Z</time>
      </trkpt>
      <trkpt lat="45.103" lon="1.26521">
        <ele>40</ele>
        <time>2015-09-27T07:06:49Z</time>
      </trkpt>
      <trkpt lat="45.10292" lon="1.2656">
        <ele>40</ele>
        <time>2015-09-27T07:06:54Z</time>
      </trkpt>
      <trkpt lat="45.10277" lon="1.26616">
        <ele>39</ele>
        <time>2015-09-27T07:07:00Z</time>
      </trkpt>
      <trkpt lat="45.10232" lon="1.26643">
        <ele>39</ele>
        <time>2015-09-27T07:07:07Z</time>
      </trkpt>
      <trkpt lat="45.10209" lon="1.26656">
        <ele>41</ele>
        <time>2015-09-27T07:07:11Z</time>
      </trkpt>
      <trkpt lat="45.10195" lon="1.26677">
        <ele>43</ele>
        <time>2015-09-27T07:07:16Z</time>
      </trkpt>
      <trkpt lat="45.10199" lon="1.26693">
        <ele>43</ele>
        <time>2015-09-27T07:07:19Z</time>
      </trkpt>
      <trkpt lat="45.10211" lon="1.26714">
        <ele>45</ele>
        <time>2015-09-27T07:07:24Z</time>
      </trkpt>
      <trkpt lat="45.10219" lon="1.26726">
        <ele>46</ele>
        <time>2015-09-27T07:07:27Z</time>
      </trkpt>
      <trkpt lat="45.10228" lon="1.26738">
        <ele>47</ele>
        <time>2015-09-27T07:07:30Z</time>
      </trkpt>
      <trkpt lat="45.10237" lon="1.26749">
        <ele>48</ele>
        <time>2015-09-27T07:07:33Z</time>
      </trkpt>
      <trkpt lat="45.10245" lon="1.2676">
        <ele>49</ele>
        <time>2015-09-27T07:07:36Z</time>
      </trkpt>
      <trkpt lat="45.10261" lon="1.26774">
        <ele>50</ele>
        <time>2015-09-27T07:07:40Z</time>
      </trkpt>
      <trkpt lat="45.1028" lon="1.26794">
        <ele>51</ele>
        <time>2015-09-27T07:07:45Z</time>
      </trkpt>
      <trkpt lat="45.1029" lon="1.26809">
        <ele>51</ele>
        <time>2015-09-27T07:07:48Z</time>
      </trkpt>
      <trkpt lat="45.10298" lon="1.26831">
        <ele>51</ele>
        <time>2015-09-27T07:07:52Z</time>
      </trkpt>
      <trkpt lat="45.10296" lon="1.26847">
        <ele>51</ele>
        <time>2015-09-27T07:07:55Z</time>
      </trkpt>
      <trkpt lat="45.1028" lon="1.26867">
        <ele>51</ele>
        <time>2015-09-27T07:08:00Z</time>
      </trkpt>
      <trkpt lat="45.10256" lon="1.26893">
        <ele>50</ele>
        <time>2015-09-27T07:08:05Z</time>
      </trkpt>
      <trkpt lat="45.10233" lon="1.26908">
        <ele>48</ele>
        <time>2015-09-27T07:08:09Z</time>
      </trkpt>
      <trkpt lat="45.10212" lon="1.26919">
        <ele>46</ele>
        <time>2015-09-27T07:08:12Z</time>
      </trkpt>
      <trkpt lat="45.10195" lon="1.26936">
        <ele>45</ele>
        <time>2015-09-27T07:08:15Z</time>
      </trkpt>
      <trkpt lat="45.10182" lon="1.26961">
        <ele>47</ele>
        <time>2015-09-27T07:08:19Z</time>
      </trkpt>
      <trkpt lat="45.10194" lon="1.26991">
        <ele>49</ele>
        <time>2015-09-27T07:08:24Z</time>
      </trkpt>
      <trkpt lat="45.10209" lon="1.27028">
        <ele>48</ele>
        <time>2015-09-27T07:08:29Z</time>
      </trkpt>
      <trkpt lat="45.10218" lon="1.27056">
        <ele>47</ele>
        <time>2015-09-27T07:08:32Z</time>
      </trkpt>
      <trkpt lat="45.10233" lon="1.27085">
        <ele>46</ele>
        <time>2015-09-27T07:08:35Z</time>
      </trkpt>
      <trkpt lat="45.10245" lon="1.27112">
        <ele>44</ele>
        <time>2015-09-27T07:08:38Z</time>
      </trkpt>
      <trkpt lat="45.10254" lon="1.27142">
        <ele>44</ele>
        <time>2015-09-27T07:08:41Z</time>
      </trkpt>
      <trkpt lat="45.1026" lon="1.27193">
        <ele>44</ele>
        <time>2015-09-27T07:08:46Z</time>
      </trkpt>
      <trkpt lat="45.10263" lon="1.27244">
        <ele>44</ele>
        <time>2015-09-27T07:08:52Z</time>
      </trkpt>
      <trkpt lat="45.10266" lon="1.27281">
        <ele>45</ele>
        <time>2015-09-27T07:08:57Z</time>
      </trkpt>
      <trkpt lat="45.10271" lon="1.27304">
        <ele>45</ele>
        <time>2015-09-27T07:09:01Z</time>
      </trkpt>
      <trkpt lat="45.10276" lon="1.27321">
        <ele>45</ele>
        <time>2015-09-27T07:09:07Z</time>
      </trkpt>
      <trkpt lat="45.10272" lon="1.27307">
        <ele>46</ele>
        <time>2015-09-27T07:09:11Z</time>
      </trkpt>
      <trkpt lat="45.10264" lon="1.27276">
        <ele>45</ele>
        <time>2015-09-27T07:09:15Z</time>
      </trkpt>
      <trkpt lat="45.10261" lon="1.2725">
        <ele>45</ele>
        <time>2015-09-27T07:09:18Z</time>
      </trkpt>
      <trkpt lat="45.10251" lon="1.27161">
        <ele>44</ele>
        <time>2015-09-27T07:09:27Z</time>
      </trkpt>
      <trkpt lat="45.10242" lon="1.27106">
        <ele>44</ele>
        <time>2015-09-27T07:09:33Z</time>
      </trkpt>
      <trkpt lat="45.10233" lon="1.27086">
        <ele>45</ele>
        <time>2015-09-27T07:09:36Z</time>
      </trkpt>
      <trkpt lat="45.10219" lon="1.27056">
        <ele>46</ele>
        <time>2015-09-27T07:09:41Z</time>
      </trkpt>
      <trkpt lat="45.10213" lon="1.27039">
        <ele>47</ele>
        <time>2015-09-27T07:09:44Z</time>
      </trkpt>
      <trkpt lat="45.10205" lon="1.27017">
        <ele>48</ele>
        <time>2015-09-27T07:09:49Z</time>
      </trkpt>
      <trkpt lat="45.10198" lon="1.26991">
        <ele>49</ele>
        <time>2015-09-27T07:09:56Z</time>
      </trkpt>
      <trkpt lat="45.10194" lon="1.26968">
        <ele>48</ele>
        <time>2015-09-27T07:10:00Z</time>
      </trkpt>
      <trkpt lat="45.10189" lon="1.26943">
        <ele>46</ele>
        <time>2015-09-27T07:10:03Z</time>
      </trkpt>
      <trkpt lat="45.10185" lon="1.26918">
        <ele>45</ele>
        <time>2015-09-27T07:10:08Z</time>
      </trkpt>
      <trkpt lat="45.10188" lon="1.26905">
        <ele>49</ele>
        <time>2015-09-27T07:10:13Z</time>
      </trkpt>
      <trkpt lat="45.10213" lon="1.26899">
        <ele>49</ele>
        <time>2015-09-27T07:10:16Z</time>
      </trkpt>
      <trkpt lat="45.10249" lon="1.2688">
        <ele>50</ele>
        <time>2015-09-27T07:10:21Z</time>
      </trkpt>
      <trkpt lat="45.10263" lon="1.2687">
        <ele>51</ele>
        <time>2015-09-27T07:10:24Z</time>
      </trkpt>
      <trkpt lat="45.10281" lon="1.26861">
        <ele>51</ele>
        <time>2015-09-27T07:10:28Z</time>
      </trkpt>
      <trkpt lat="45.10286" lon="1.26855">
        <ele>52</ele>
        <time>2015-09-27T07:10:32Z</time>
      </trkpt>
      <trkpt lat="45.10281" lon="1.2685">
        <ele>53</ele>
        <time>2015-09-27T07:10:36Z</time>
      </trkpt>
      <trkpt lat="45.10276" lon="1.26844">
        <ele>54</ele>
        <time>2015-09-27T07:10:39Z</time>
      </trkpt>
      <trkpt lat="45.10268" lon="1.26843">
        <ele>55</ele>
        <time>2015-09-27T07:10:43Z</time>
      </trkpt>
      <trkpt lat="45.10263" lon="1.26841">
        <ele>56</ele>
        <time>2015-09-27T07:10:46Z</time>
      </trkpt>
      <trkpt lat="45.1026" lon="1.26836">
        <ele>57</ele>
        <time>2015-09-27T07:10:49Z</time>
      </trkpt>
      <trkpt lat="45.10255" lon="1.26837">
        <ele>58</ele>
        <time>2015-09-27T07:10:52Z</time>
      </trkpt>
      <trkpt lat="45.10244" lon="1.26839">
        <ele>59</ele>
        <time>2015-09-27T07:10:57Z</time>
      </trkpt>
      <trkpt lat="45.10238" lon="1.26838">
        <ele>60</ele>
        <time>2015-09-27T07:11:00Z</time>
      </trkpt>
      <trkpt lat="45.10229" lon="1.26836">
        <ele>62</ele>
        <time>2015-09-27T07:11:05Z</time>
      </trkpt>
      <trkpt lat="45.10223" lon="1.26834">
        <ele>63</ele>
        <time>2015-09-27T07:11:08Z</time>
      </trkpt>
      <trkpt lat="45.10213" lon="1.26835">
        <ele>64</ele>
        <time>2015-09-27T07:11:12Z</time>
      </trkpt>
      <trkpt lat="45.102" lon="1.2684">
        <ele>65</ele>
        <time>2015-09-27T07:11:17Z</time>
      </trkpt>
      <trkpt lat="45.10189" lon="1.26845">
        <ele>66</ele>
        <time>2015-09-27T07:11:21Z</time>
      </trkpt>
      <trkpt lat="45.10177" lon="1.26838">
        <ele>68</ele>
        <time>2015-09-27T07:11:26Z</time>
      </trkpt>
      <trkpt lat="45.10171" lon="1.26828">
        <ele>70</ele>
        <time>2015-09-27T07:11:30Z</time>
      </trkpt>
      <trkpt lat="45.10166" lon="1.26825">
        <ele>71</ele>
        <time>2015-09-27T07:11:33Z</time>
      </trkpt>
      <trkpt lat="45.10162" lon="1.26823">
        <ele>72</ele>
        <time>2015-09-27T07:11:36Z</time>
      </trkpt>
      <trkpt lat="45.10158" lon="1.2682">
        <ele>73</ele>
        <time>2015-09-27T07:11:39Z</time>
      </trkpt>
      <trkpt lat="45.10153" lon="1.26818">
        <ele>74</ele>
        <time>2015-09-27T07:11:42Z</time>
      </trkpt>
      <trkpt lat="45.10147" lon="1.26817">
        <ele>76</ele>
        <time>2015-09-27T07:11:45Z</time>
      </trkpt>
      <trkpt lat="45.1014" lon="1.26814">
        <ele>77</ele>
        <time>2015-09-27T07:11:48Z</time>
      </trkpt>
      <trkpt lat="45.10133" lon="1.26812">
        <ele>78</ele>
        <time>2015-09-27T07:11:51Z</time>
      </trkpt>
      <trkpt lat="45.10126" lon="1.26811">
        <ele>79</ele>
        <time>2015-09-27T07:11:54Z</time>
      </trkpt>
      <trkpt lat="45.1012" lon="1.26809">
        <ele>80</ele>
        <time>2015-09-27T07:11:57Z</time>
      </trkpt>
      <trkpt lat="45.10111" lon="1.26808">
        <ele>82</ele>
        <time>2015-09-27T07:12:02Z</time>
      </trkpt>
      <trkpt lat="45.10102" lon="1.26807">
        <ele>83</ele>
        <time>2015-09-27T07:12:06Z</time>
      </trkpt>
      <trkpt lat="45.10096" lon="1.26806">
        <ele>84</ele>
        <time>2015-09-27T07:12:09Z</time>
      </trkpt>
      <trkpt lat="45.1009" lon="1.26806">
        <ele>85</ele>
        <time>2015-09-27T07:12:12Z</time>
      </trkpt>
      <trkpt lat="45.10083" lon="1.26803">
        <ele>87</ele>
        <time>2015-09-27T07:12:16Z</time>
      </trkpt>
      <trkpt lat="45.10078" lon="1.26799">
        <ele>88</ele>
        <time>2015-09-27T07:12:19Z</time>
      </trkpt>
      <trkpt lat="45.10071" lon="1.26794">
        <ele>89</ele>
        <time>2015-09-27T07:12:23Z</time>
      </trkpt>
      <trkpt lat="45.10066" lon="1.26791">
        <ele>90</ele>
        <time>2015-09-27T07:12:26Z</time>
      </trkpt>
      <trkpt lat="45.1006" lon="1.26786">
        <ele>92</ele>
        <time>2015-09-27T07:12:29Z</time>
      </trkpt>
      <trkpt lat="45.10054" lon="1.26778">
        <ele>93</ele>
        <time>2015-09-27T07:12:33Z</time>
      </trkpt>
      <trkpt lat="45.10049" lon="1.26772">
        <ele>94</ele>
        <time>2015-09-27T07:12:36Z</time>
      </trkpt>
      <trkpt lat="45.10045" lon="1.26767">
        <ele>95</ele>
        <time>2015-09-27T07:12:39Z</time>
      </trkpt>
      <trkpt lat="45.10041" lon="1.26762">
        <ele>97</ele>
        <time>2015-09-27T07:12:42Z</time>
      </trkpt>
      <trkpt lat="45.10036" lon="1.26757">
        <ele>98</ele>
        <time>2015-09-27T07:12:46Z</time>
      </trkpt>
      <trkpt lat="45.10031" lon="1.26753">
        <ele>99</ele>
        <time>2015-09-27T07:12:49Z</time>
      </trkpt>
      <trkpt lat="45.10027" lon="1.2675">
        <ele>100</ele>
        <time>2015-09-27T07:12:52Z</time>
      </trkpt>
      <trkpt lat="45.10019" lon="1.2675">
        <ele>101</ele>
        <time>2015-09-27T07:12:56Z</time>
      </trkpt>
      <trkpt lat="45.10013" lon="1.26753">
        <ele>102</ele>
        <time>2015-09-27T07:12:59Z</time>
      </trkpt>
      <trkpt lat="45.10001" lon="1.26759">
        <ele>104</ele>
        <time>2015-09-27T07:13:05Z</time>
      </trkpt>
      <trkpt lat="45.09995" lon="1.26764">
        <ele>104</ele>
        <time>2015-09-27T07:13:08Z</time>
      </trkpt>
      <trkpt lat="45.09979" lon="1.26774">
        <ele>104</ele>
        <time>2015-09-27T07:13:14Z</time>
      </trkpt>
      <trkpt lat="45.09969" lon="1.26781">
        <ele>105</ele>
        <time>2015-09-27T07:13:18Z</time>
      </trkpt>
      <trkpt lat="45.09955" lon="1.26787">
        <ele>105</ele>
        <time>2015-09-27T07:13:23Z</time>
      </trkpt>
      <trkpt lat="45.09942" lon="1.2679">
        <ele>106</ele>
        <time>2015-09-27T07:13:27Z</time>
      </trkpt>
      <trkpt lat="45.0993" lon="1.26788">
        <ele>107</ele>
        <time>2015-09-27T07:13:31Z</time>
      </trkpt>
      <trkpt lat="45.09918" lon="1.26794">
        <ele>107</ele>
        <time>2015-09-27T07:13:36Z</time>
      </trkpt>
      <trkpt lat="45.09904" lon="1.26798">
        <ele>107</ele>
        <time>2015-09-27T07:13:41Z</time>
      </trkpt>
      <trkpt lat="45.09895" lon="1.26803">
        <ele>107</ele>
        <time>2015-09-27T07:13:45Z</time>
      </trkpt>
      <trkpt lat="45.0988" lon="1.26828">
        <ele>109</ele>
        <time>2015-09-27T07:13:51Z</time>
      </trkpt>
      <trkpt lat="45.09875" lon="1.2684">
        <ele>109</ele>
        <time>2015-09-27T07:13:54Z</time>
      </trkpt>
      <trkpt lat="45.09871" lon="1.26848">
        <ele>110</ele>
        <time>2015-09-27T07:13:57Z</time>
      </trkpt>
      <trkpt lat="45.09861" lon="1.26859">
        <ele>110</ele>
        <time>2015-09-27T07:14:01Z</time>
      </trkpt>
      <trkpt lat="45.09852" lon="1.26866">
        <ele>111</ele>
        <time>2015-09-27T07:14:04Z</time>
      </trkpt>
      <trkpt lat="45.09841" lon="1.26879">
        <ele>111</ele>
        <time>2015-09-27T07:14:08Z</time>
      </trkpt>
      <trkpt lat="45.09835" lon="1.26891">
        <ele>109</ele>
        <time>2015-09-27T07:14:11Z</time>
      </trkpt>
      <trkpt lat="45.09823" lon="1.26905">
        <ele>108</ele>
        <time>2015-09-27T07:14:14Z</time>
      </trkpt>
      <trkpt lat="45.09809" lon="1.26924">
        <ele>104</ele>
        <time>2015-09-27T07:14:17Z</time>
      </trkpt>
      <trkpt lat="45.09793" lon="1.26945">
        <ele>102</ele>
        <time>2015-09-27T07:14:20Z</time>
      </trkpt>
      <trkpt lat="45.09776" lon="1.26973">
        <ele>99</ele>
        <time>2015-09-27T07:14:24Z</time>
      </trkpt>
      <trkpt lat="45.09766" lon="1.26997">
        <ele>97</ele>
        <time>2015-09-27T07:14:27Z</time>
      </trkpt>
      <trkpt lat="45.09758" lon="1.27025">
        <ele>95</ele>
        <time>2015-09-27T07:14:30Z</time>
      </trkpt>
      <trkpt lat="45.0975" lon="1.27052">
        <ele>94</ele>
        <time>2015-09-27T07:14:33Z</time>
      </trkpt>
      <trkpt lat="45.09739" lon="1.27076">
        <ele>94</ele>
        <time>2015-09-27T07:14:36Z</time>
      </trkpt>
      <trkpt lat="45.09726" lon="1.27097">
        <ele>94</ele>
        <time>2015-09-27T07:14:40Z</time>
      </trkpt>
      <trkpt lat="45.09718" lon="1.27118">
        <ele>94</ele>
        <time>2015-09-27T07:14:43Z</time>
      </trkpt>
      <trkpt lat="45.09709" lon="1.2714">
        <ele>92</ele>
        <time>2015-09-27T07:14:46Z</time>
      </trkpt>
      <trkpt lat="45.09696" lon="1.27152">
        <ele>91</ele>
        <time>2015-09-27T07:14:49Z</time>
      </trkpt>
      <trkpt lat="45.09675" lon="1.2716">
        <ele>92</ele>
        <time>2015-09-27T07:14:53Z</time>
      </trkpt>
      <trkpt lat="45.09658" lon="1.27167">
        <ele>94</ele>
        <time>2015-09-27T07:14:56Z</time>
      </trkpt>
      <trkpt lat="45.09642" lon="1.27172">
        <ele>95</ele>
        <time>2015-09-27T07:14:59Z</time>
      </trkpt>
      <trkpt lat="45.0962" lon="1.27178">
        <ele>97</ele>
        <time>2015-09-27T07:15:03Z</time>
      </trkpt>
      <trkpt lat="45.09606" lon="1.27185">
        <ele>97</ele>
        <time>2015-09-27T07:15:06Z</time>
      </trkpt>
      <trkpt lat="45.09595" lon="1.27196">
        <ele>99</ele>
        <time>2015-09-27T07:15:09Z</time>
      </trkpt>
      <trkpt lat="45.09589" lon="1.27211">
        <ele>100</ele>
        <time>2015-09-27T07:15:12Z</time>
      </trkpt>
      <trkpt lat="45.09584" lon="1.27226">
        <ele>101</ele>
        <time>2015-09-27T07:15:15Z</time>
      </trkpt>
      <trkpt lat="45.0958" lon="1.27241">
        <ele>102</ele>
        <time>2015-09-27T07:15:18Z</time>
      </trkpt>
      <trkpt lat="45.09571" lon="1.27257">
        <ele>103</ele>
        <time>2015-09-27T07:15:22Z</time>
      </trkpt>
      <trkpt lat="45.09561" lon="1.27271">
        <ele>104</ele>
        <time>2015-09-27T07:15:26Z</time>
      </trkpt>
      <trkpt lat="45.0955" lon="1.27284">
        <ele>105</ele>
        <time>2015-09-27T07:15:30Z</time>
      </trkpt>
      <trkpt lat="45.09539" lon="1.27295">
        <ele>106</ele>
        <time>2015-09-27T07:15:35Z</time>
      </trkpt>
      <trkpt lat="45.09523" lon="1.27301">
        <ele>108</ele>
        <time>2015-09-27T07:15:41Z</time>
      </trkpt>
      <trkpt lat="45.09514" lon="1.27299">
        <ele>108</ele>
        <time>2015-09-27T07:15:44Z</time>
      </trkpt>
      <trkpt lat="45.09496" lon="1.27285">
        <ele>110</ele>
        <time>2015-09-27T07:15:50Z</time>
      </trkpt>
      <trkpt lat="45.09484" lon="1.27268">
        <ele>111</ele>
        <time>2015-09-27T07:15:55Z</time>
      </trkpt>
      <trkpt lat="45.09474" lon="1.27256">
        <ele>112</ele>
        <time>2015-09-27T07:15:59Z</time>
      </trkpt>
      <trkpt lat="45.09461" lon="1.2725">
        <ele>113</ele>
        <time>2015-09-27T07:16:03Z</time>
      </trkpt>
      <trkpt lat="45.09445" lon="1.27257">
        <ele>114</ele>
        <time>2015-09-27T07:16:08Z</time>
      </trkpt>
      <trkpt lat="45.09433" lon="1.27266">
        <ele>115</ele>
        <time>2015-09-27T07:16:12Z</time>
      </trkpt>
      <trkpt lat="45.09421" lon="1.27273">
        <ele>117</ele>
        <time>2015-09-27T07:16:16Z</time>
      </trkpt>
      <trkpt lat="45.09408" lon="1.27277">
        <ele>118</ele>
        <time>2015-09-27T07:16:20Z</time>
      </trkpt>
      <trkpt lat="45.09398" lon="1.2728">
        <ele>119</ele>
        <time>2015-09-27T07:16:23Z</time>
      </trkpt>
      <trkpt lat="45.0938" lon="1.27285">
        <ele>120</ele>
        <time>2015-09-27T07:16:28Z</time>
      </trkpt>
      <trkpt lat="45.09371" lon="1.27288">
        <ele>121</ele>
        <time>2015-09-27T07:16:31Z</time>
      </trkpt>
      <trkpt lat="45.0934" lon="1.27298">
        <ele>121</ele>
        <time>2015-09-27T07:16:39Z</time>
      </trkpt>
      <trkpt lat="45.09323" lon="1.27312">
        <ele>121</ele>
        <time>2015-09-27T07:16:44Z</time>
      </trkpt>
      <trkpt lat="45.09325" lon="1.2732">
        <ele>122</ele>
        <time>2015-09-27T07:16:47Z</time>
      </trkpt>
      <trkpt lat="45.09338" lon="1.27334">
        <ele>123</ele>
        <time>2015-09-27T07:16:51Z</time>
      </trkpt>
      <trkpt lat="45.09365" lon="1.27366">
        <ele>124</ele>
        <time>2015-09-27T07:16:58Z</time>
      </trkpt>
      <trkpt lat="45.0938" lon="1.2739">
        <ele>125</ele>
        <time>2015-09-27T07:17:03Z</time>
      </trkpt>
      <trkpt lat="45.09388" lon="1.27402">
        <ele>126</ele>
        <time>2015-09-27T07:17:06Z</time>
      </trkpt>
      <trkpt lat="45.09406" lon="1.27431">
        <ele>128</ele>
        <time>2015-09-27T07:17:13Z</time>
      </trkpt>
      <trkpt lat="45.0943" lon="1.27463">
        <ele>129</ele>
        <time>2015-09-27T07:17:21Z</time>
      </trkpt>
      <trkpt lat="45.09457" lon="1.27488">
        <ele>130</ele>
        <time>2015-09-27T07:17:28Z</time>
      </trkpt>
      <trkpt lat="45.09467" lon="1.27502">
        <ele>130</ele>
        <time>2015-09-27T07:17:31Z</time>
      </trkpt>
      <trkpt lat="45.09478" lon="1.27514">
        <ele>131</ele>
        <time>2015-09-27T07:17:34Z</time>
      </trkpt>
      <trkpt lat="45.09502" lon="1.27527">
        <ele>131</ele>
        <time>2015-09-27T07:17:39Z</time>
      </trkpt>
      <trkpt lat="45.09532" lon="1.27533">
        <ele>130</ele>
        <time>2015-09-27T07:17:44Z</time>
      </trkpt>
      <trkpt lat="45.09574" lon="1.27534">
        <ele>129</ele>
        <time>2015-09-27T07:17:50Z</time>
      </trkpt>
      <trkpt lat="45.09603" lon="1.27548">
        <ele>128</ele>
        <time>2015-09-27T07:17:54Z</time>
      </trkpt>
      <trkpt lat="45.09631" lon="1.27576">
        <ele>126</ele>
        <time>2015-09-27T07:17:58Z</time>
      </trkpt>
      <trkpt lat="45.09648" lon="1.27609">
        <ele>123</ele>
        <time>2015-09-27T07:18:01Z</time>
      </trkpt>
      <trkpt lat="45.0967" lon="1.27657">
        <ele>120</ele>
        <time>2015-09-27T07:18:05Z</time>
      </trkpt>
      <trkpt lat="45.09692" lon="1.27671">
        <ele>118</ele>
        <time>2015-09-27T07:18:08Z</time>
      </trkpt>
      <trkpt lat="45.09725" lon="1.27671">
        <ele>116</ele>
        <time>2015-09-27T07:18:13Z</time>
      </trkpt>
      <trkpt lat="45.09743" lon="1.27686">
        <ele>116</ele>
        <time>2015-09-27T07:18:17Z</time>
      </trkpt>
      <trkpt lat="45.09749" lon="1.27704">
        <ele>117</ele>
        <time>2015-09-27T07:18:20Z</time>
      </trkpt>
      <trkpt lat="45.09756" lon="1.27742">
        <ele>117</ele>
        <time>2015-09-27T07:18:26Z</time>
      </trkpt>
      <trkpt lat="45.09758" lon="1.27763">
        <ele>118</ele>
        <time>2015-09-27T07:18:30Z</time>
      </trkpt>
      <trkpt lat="45.09762" lon="1.27774">
        <ele>119</ele>
        <time>2015-09-27T07:18:33Z</time>
      </trkpt>
      <trkpt lat="45.09764" lon="1.27787">
        <ele>120</ele>
        <time>2015-09-27T07:18:36Z</time>
      </trkpt>
      <trkpt lat="45.09759" lon="1.278">
        <ele>122</ele>
        <time>2015-09-27T07:18:41Z</time>
      </trkpt>
      <trkpt lat="45.09754" lon="1.27807">
        <ele>123</ele>
        <time>2015-09-27T07:18:44Z</time>
      </trkpt>
      <trkpt lat="45.09741" lon="1.27824">
        <ele>125</ele>
        <time>2015-09-27T07:18:51Z</time>
      </trkpt>
      <trkpt lat="45.09735" lon="1.2783">
        <ele>126</ele>
        <time>2015-09-27T07:18:54Z</time>
      </trkpt>
      <trkpt lat="45.09728" lon="1.2784">
        <ele>128</ele>
        <time>2015-09-27T07:18:58Z</time>
      </trkpt>
      <trkpt lat="45.09723" lon="1.27846">
        <ele>129</ele>
        <time>2015-09-27T07:19:01Z</time>
      </trkpt>
      <trkpt lat="45.09716" lon="1.27852">
        <ele>130</ele>
        <time>2015-09-27T07:19:05Z</time>
      </trkpt>
      <trkpt lat="45.09711" lon="1.27856">
        <ele>132</ele>
        <time>2015-09-27T07:19:08Z</time>
      </trkpt>
      <trkpt lat="45.09704" lon="1.2786">
        <ele>133</ele>
        <time>2015-09-27T07:19:12Z</time>
      </trkpt>
      <trkpt lat="45.09698" lon="1.27864">
        <ele>134</ele>
        <time>2015-09-27T07:19:15Z</time>
      </trkpt>
      <trkpt lat="45.0969" lon="1.27867">
        <ele>135</ele>
        <time>2015-09-27T07:19:19Z</time>
      </trkpt>
      <trkpt lat="45.09684" lon="1.27873">
        <ele>137</ele>
        <time>2015-09-27T07:19:22Z</time>
      </trkpt>
      <trkpt lat="45.09678" lon="1.27877">
        <ele>138</ele>
        <time>2015-09-27T07:19:25Z</time>
      </trkpt>
      <trkpt lat="45.09668" lon="1.27884">
        <ele>140</ele>
        <time>2015-09-27T07:19:29Z</time>
      </trkpt>
      <trkpt lat="45.09662" lon="1.27889">
        <ele>141</ele>
        <time>2015-09-27T07:19:32Z</time>
      </trkpt>
      <trkpt lat="45.09656" lon="1.27895">
        <ele>142</ele>
        <time>2015-09-27T07:19:35Z</time>
      </trkpt>
      <trkpt lat="45.09648" lon="1.27898">
        <ele>143</ele>
        <time>2015-09-27T07:19:38Z</time>
      </trkpt>
      <trkpt lat="45.09642" lon="1.27902">
        <ele>144</ele>
        <time>2015-09-27T07:19:41Z</time>
      </trkpt>
      <trkpt lat="45.09633" lon="1.27904">
        <ele>145</ele>
        <time>2015-09-27T07:19:45Z</time>
      </trkpt>
      <trkpt lat="45.09624" lon="1.27907">
        <ele>147</ele>
        <time>2015-09-27T07:19:50Z</time>
      </trkpt>
      <trkpt lat="45.09616" lon="1.27909">
        <ele>149</ele>
        <time>2015-09-27T07:19:54Z</time>
      </trkpt>
      <trkpt lat="45.0961" lon="1.27913">
        <ele>150</ele>
        <time>2015-09-27T07:19:58Z</time>
      </trkpt>
      <trkpt lat="45.09605" lon="1.27915">
        <ele>151</ele>
        <time>2015-09-27T07:20:01Z</time>
      </trkpt>
      <trkpt lat="45.09598" lon="1.2792">
        <ele>152</ele>
        <time>2015-09-27T07:20:04Z</time>
      </trkpt>
      <trkpt lat="45.09593" lon="1.27923">
        <ele>154</ele>
        <time>2015-09-27T07:20:07Z</time>
      </trkpt>
      <trkpt lat="45.09589" lon="1.27927">
        <ele>155</ele>
        <time>2015-09-27T07:20:10Z</time>
      </trkpt>
      <trkpt lat="45.09585" lon="1.27931">
        <ele>156</ele>
        <time>2015-09-27T07:20:13Z</time>
      </trkpt>
      <trkpt lat="45.0958" lon="1.27936">
        <ele>157</ele>
        <time>2015-09-27T07:20:18Z</time>
      </trkpt>
      <trkpt lat="45.0957" lon="1.27942">
        <ele>158</ele>
        <time>2015-09-27T07:20:22Z</time>
      </trkpt>
      <trkpt lat="45.09565" lon="1.27945">
        <ele>159</ele>
        <time>2015-09-27T07:20:25Z</time>
      </trkpt>
      <trkpt lat="45.09558" lon="1.27951">
        <ele>160</ele>
        <time>2015-09-27T07:20:29Z</time>
      </trkpt>
      <trkpt lat="45.09552" lon="1.27955">
        <ele>162</ele>
        <time>2015-09-27T07:20:33Z</time>
      </trkpt>
      <trkpt lat="45.09545" lon="1.27959">
        <ele>164</ele>
        <time>2015-09-27T07:20:38Z</time>
      </trkpt>
      <trkpt lat="45.09541" lon="1.27962">
        <ele>165</ele>
        <time>2015-09-27T07:20:41Z</time>
      </trkpt>
      <trkpt lat="45.09535" lon="1.27969">
        <ele>166</ele>
        <time>2015-09-27T07:20:45Z</time>
      </trkpt>
      <trkpt lat="45.0953" lon="1.27972">
        <ele>167</ele>
        <time>2015-09-27T07:20:48Z</time>
      </trkpt>
      <trkpt lat="45.09525" lon="1.27978">
        <ele>168</ele>
        <time>2015-09-27T07:20:52Z</time>
      </trkpt>
      <trkpt lat="45.0952" lon="1.27982">
        <ele>169</ele>
        <time>2015-09-27T07:20:55Z</time>
      </trkpt>
      <trkpt lat="45.09516" lon="1.27985">
        <ele>171</ele>
        <time>2015-09-27T07:20:58Z</time>
      </trkpt>
      <trkpt lat="45.09512" lon="1.27989">
        <ele>172</ele>
        <time>2015-09-27T07:21:01Z</time>
      </trkpt>
      <trkpt lat="45.09508" lon="1.27992">
        <ele>173</ele>
        <time>2015-09-27T07:21:04Z</time>
      </trkpt>
      <trkpt lat="45.095" lon="1.27995">
        <ele>174</ele>
        <time>2015-09-27T07:21:08Z</time>
      </trkpt>
      <trkpt lat="45.09494" lon="1.27997">
        <ele>175</ele>
        <time>2015-09-27T07:21:12Z</time>
      </trkpt>
      <trkpt lat="45.09487" lon="1.28001">
        <ele>176</ele>
        <time>2015-09-27T07:21:16Z</time>
      </trkpt>
      <trkpt lat="45.09478" lon="1.28007">
        <ele>178</ele>
        <time>2015-09-27T07:21:21Z</time>
      </trkpt>
      <trkpt lat="45.09473" lon="1.2801">
        <ele>179</ele>
        <time>2015-09-27T07:21:24Z</time>
      </trkpt>
      <trkpt lat="45.09459" lon="1.28027">
        <ele>180</ele>
        <time>2015-09-27T07:21:30Z</time>
      </trkpt>
      <trkpt lat="45.09442" lon="1.28054">
        <ele>180</ele>
        <time>2015-09-27T07:21:36Z</time>
      </trkpt>
      <trkpt lat="45.0942" lon="1.2809">
        <ele>180</ele>
        <time>2015-09-27T07:21:43Z</time>
      </trkpt>
      <trkpt lat="45.09402" lon="1.2812">
        <ele>179</ele>
        <time>2015-09-27T07:21:48Z</time>
      </trkpt>
      <trkpt lat="45.09383" lon="1.28147">
        <ele>177</ele>
        <time>2015-09-27T07:21:52Z</time>
      </trkpt>
      <trkpt lat="45.0936" lon="1.28175">
        <ele>177</ele>
        <time>2015-09-27T07:21:56Z</time>
      </trkpt>
      <trkpt lat="45.09328" lon="1.28202">
        <ele>175</ele>
        <time>2015-09-27T07:22:01Z</time>
      </trkpt>
      <trkpt lat="45.09298" lon="1.28228">
        <ele>174</ele>
        <time>2015-09-27T07:22:06Z</time>
      </trkpt>
      <trkpt lat="45.09283" lon="1.2826">
        <ele>171</ele>
        <time>2015-09-27T07:22:10Z</time>
      </trkpt>
      <trkpt lat="45.09278" lon="1.28301">
        <ele>168</ele>
        <time>2015-09-27T07:22:14Z</time>
      </trkpt>
      <trkpt lat="45.09284" lon="1.28331">
        <ele>166</ele>
        <time>2015-09-27T07:22:17Z</time>
      </trkpt>
      <trkpt lat="45.09305" lon="1.2839">
        <ele>164</ele>
        <time>2015-09-27T07:22:22Z</time>
      </trkpt>
      <trkpt lat="45.0932" lon="1.28426">
        <ele>163</ele>
        <time>2015-09-27T07:22:25Z</time>
      </trkpt>
      <trkpt lat="45.09332" lon="1.28461">
        <ele>162</ele>
        <time>2015-09-27T07:22:28Z</time>
      </trkpt>
      <trkpt lat="45.09348" lon="1.2852">
        <ele>160</ele>
        <time>2015-09-27T07:22:33Z</time>
      </trkpt>
      <trkpt lat="45.09355" lon="1.2857">
        <ele>161</ele>
        <time>2015-09-27T07:22:38Z</time>
      </trkpt>
      <trkpt lat="45.09353" lon="1.28591">
        <ele>163</ele>
        <time>2015-09-27T07:22:42Z</time>
      </trkpt>
      <trkpt lat="45.09344" lon="1.28602">
        <ele>164</ele>
        <time>2015-09-27T07:22:46Z</time>
      </trkpt>
      <trkpt lat="45.09343" lon="1.28617">
        <ele>164</ele>
        <time>2015-09-27T07:22:50Z</time>
      </trkpt>
      <trkpt lat="45.09345" lon="1.28637">
        <ele>165</ele>
        <time>2015-09-27T07:22:54Z</time>
      </trkpt>
      <trkpt lat="45.09348" lon="1.28676">
        <ele>166</ele>
        <time>2015-09-27T07:23:01Z</time>
      </trkpt>
      <trkpt lat="45.09349" lon="1.28713">
        <ele>166</ele>
        <time>2015-09-27T07:23:08Z</time>
      </trkpt>
      <trkpt lat="45.0934" lon="1.28723">
        <ele>166</ele>
        <time>2015-09-27T07:23:11Z</time>
      </trkpt>
      <trkpt lat="45.09318" lon="1.28733">
        <ele>167</ele>
        <time>2015-09-27T07:23:17Z</time>
      </trkpt>
      <trkpt lat="45.093" lon="1.28741">
        <ele>168</ele>
        <time>2015-09-27T07:23:22Z</time>
      </trkpt>
      <trkpt lat="45.0929" lon="1.28747">
        <ele>168</ele>
        <time>2015-09-27T07:23:25Z</time>
      </trkpt>
      <trkpt lat="45.09274" lon="1.28761">
        <ele>168</ele>
        <time>2015-09-27T07:23:30Z</time>
      </trkpt>
      <trkpt lat="45.09251" lon="1.28771">
        <ele>168</ele>
        <time>2015-09-27T07:23:35Z</time>
      </trkpt>
      <trkpt lat="45.09239" lon="1.28779">
        <ele>168</ele>
        <time>2015-09-27T07:23:38Z</time>
      </trkpt>
      <trkpt lat="45.09225" lon="1.28795">
        <ele>168</ele>
        <time>2015-09-27T07:23:41Z</time>
      </trkpt>
      <trkpt lat="45.09209" lon="1.28818">
        <ele>169</ele>
        <time>2015-09-27T07:23:46Z</time>
      </trkpt>
      <trkpt lat="45.09185" lon="1.28841">
        <ele>171</ele>
        <time>2015-09-27T07:23:54Z</time>
      </trkpt>
      <trkpt lat="45.09174" lon="1.28847">
        <ele>172</ele>
        <time>2015-09-27T07:23:59Z</time>
      </trkpt>
      <trkpt lat="45.09167" lon="1.28853">
        <ele>173</ele>
        <time>2015-09-27T07:24:03Z</time>
      </trkpt>
      <trkpt lat="45.09159" lon="1.28865">
        <ele>174</ele>
        <time>2015-09-27T07:24:07Z</time>
      </trkpt>
      <trkpt lat="45.09152" lon="1.2888">
        <ele>175</ele>
        <time>2015-09-27T07:24:11Z</time>
      </trkpt>
      <trkpt lat="45.09143" lon="1.28892">
        <ele>177</ele>
        <time>2015-09-27T07:24:16Z</time>
      </trkpt>
      <trkpt lat="45.09136" lon="1.28901">
        <ele>178</ele>
        <time>2015-09-27T07:24:20Z</time>
      </trkpt>
      <trkpt lat="45.0913" lon="1.28913">
        <ele>179</ele>
        <time>2015-09-27T07:24:24Z</time>
      </trkpt>
      <trkpt lat="45.09126" lon="1.2892">
        <ele>180</ele>
        <time>2015-09-27T07:24:27Z</time>
      </trkpt>
      <trkpt lat="45.09122" lon="1.28926">
        <ele>181</ele>
        <time>2015-09-27T07:24:30Z</time>
      </trkpt>
      <trkpt lat="45.09117" lon="1.28935">
        <ele>183</ele>
        <time>2015-09-27T07:24:34Z</time>
      </trkpt>
      <trkpt lat="45.09111" lon="1.28942">
        <ele>184</ele>
        <time>2015-09-27T07:24:38Z</time>
      </trkpt>
      <trkpt lat="45.09106" lon="1.28953">
        <ele>185</ele>
        <time>2015-09-27T07:24:42Z</time>
      </trkpt>
      <trkpt lat="45.09102" lon="1.28961">
        <ele>186</ele>
        <time>2015-09-27T07:24:46Z</time>
      </trkpt>
      <trkpt lat="45.09098" lon="1.28967">
        <ele>187</ele>
        <time>2015-09-27T07:24:49Z</time>
      </trkpt>
      <trkpt lat="45.09091" lon="1.28975">
        <ele>188</ele>
        <time>2015-09-27T07:24:53Z</time>
      </trkpt>
      <trkpt lat="45.09086" lon="1.28985">
        <ele>189</ele>
        <time>2015-09-27T07:24:57Z</time>
      </trkpt>
      <trkpt lat="45.09078" lon="1.28996">
        <ele>191</ele>
        <time>2015-09-27T07:25:02Z</time>
      </trkpt>
      <trkpt lat="45.09073" lon="1.29006">
        <ele>192</ele>
        <time>2015-09-27T07:25:06Z</time>
      </trkpt>
      <trkpt lat="45.09065" lon="1.29023">
        <ele>194</ele>
        <time>2015-09-27T07:25:11Z</time>
      </trkpt>
      <trkpt lat="45.09058" lon="1.29037">
        <ele>195</ele>
        <time>2015-09-27T07:25:16Z</time>
      </trkpt>
      <trkpt lat="45.09053" lon="1.29047">
        <ele>196</ele>
        <time>2015-09-27T07:25:19Z</time>
      </trkpt>
      <trkpt lat="45.09047" lon="1.29061">
        <ele>197</ele>
        <time>2015-09-27T07:25:23Z</time>
      </trkpt>
      <trkpt lat="45.09042" lon="1.29073">
        <ele>197</ele>
        <time>2015-09-27T07:25:26Z</time>
      </trkpt>
      <trkpt lat="45.09035" lon="1.2909">
        <ele>198</ele>
        <time>2015-09-27T07:25:30Z</time>
      </trkpt>
      <trkpt lat="45.0903" lon="1.29103">
        <ele>198</ele>
        <time>2015-09-27T07:25:33Z</time>
      </trkpt>
      <trkpt lat="45.09014" lon="1.29138">
        <ele>199</ele>
        <time>2015-09-27T07:25:41Z</time>
      </trkpt>
      <trkpt lat="45.08999" lon="1.29171">
        <ele>199</ele>
        <time>2015-09-27T07:25:48Z</time>
      </trkpt>
      <trkpt lat="45.08986" lon="1.29195">
        <ele>198</ele>
        <time>2015-09-27T07:25:53Z</time>
      </trkpt>
      <trkpt lat="45.0897" lon="1.29226">
        <ele>197</ele>
        <time>2015-09-27T07:25:58Z</time>
      </trkpt>
      <trkpt lat="45.08959" lon="1.29248">
        <ele>196</ele>
        <time>2015-09-27T07:26:01Z</time>
      </trkpt>
      <trkpt lat="45.08944" lon="1.29287">
        <ele>193</ele>
        <time>2015-09-27T07:26:05Z</time>
      </trkpt>
      <trkpt lat="45.08933" lon="1.29328">
        <ele>189</ele>
        <time>2015-09-27T07:26:09Z</time>
      </trkpt>
      <trkpt lat="45.08919" lon="1.29358">
        <ele>185</ele>
        <time>2015-09-27T07:26:13Z</time>
      </trkpt>
      <trkpt lat="45.08903" lon="1.29383">
        <ele>182</ele>
        <time>2015-09-27T07:26:16Z</time>
      </trkpt>
      <trkpt lat="45.08879" lon="1.29415">
        <ele>180</ele>
        <time>2015-09-27T07:26:20Z</time>
      </trkpt>
      <trkpt lat="45.08847" lon="1.29465">
        <ele>180</ele>
        <time>2015-09-27T07:26:27Z</time>
      </trkpt>
      <trkpt lat="45.08833" lon="1.29485">
        <ele>181</ele>
        <time>2015-09-27T07:26:31Z</time>
      </trkpt>
      <trkpt lat="45.08824" lon="1.29496">
        <ele>182</ele>
        <time>2015-09-27T07:26:34Z</time>
      </trkpt>
      <trkpt lat="45.08816" lon="1.29509">
        <ele>184</ele>
        <time>2015-09-27T07:26:38Z</time>
      </trkpt>
      <trkpt lat="45.0881" lon="1.29518">
        <ele>184</ele>
        <time>2015-09-27T07:26:41Z</time>
      </trkpt>
      <trkpt lat="45.08799" lon="1.2953">
        <ele>185</ele>
        <time>2015-09-27T07:26:45Z</time>
      </trkpt>
      <trkpt lat="45.08782" lon="1.2954">
        <ele>185</ele>
        <time>2015-09-27T07:26:50Z</time>
      </trkpt>
      <trkpt lat="45.08754" lon="1.29552">
        <ele>185</ele>
        <time>2015-09-27T07:26:58Z</time>
      </trkpt>
      <trkpt lat="45.08741" lon="1.29546">
        <ele>185</ele>
        <time>2015-09-27T07:27:02Z</time>
      </trkpt>
      <trkpt lat="45.08726" lon="1.29536">
        <ele>184</ele>
        <time>2015-09-27T07:27:05Z</time>
      </trkpt>
      <trkpt lat="45.08714" lon="1.29517">
        <ele>183</ele>
        <time>2015-09-27T07:27:08Z</time>
      </trkpt>
      <trkpt lat="45.08711" lon="1.29485">
        <ele>181</ele>
        <time>2015-09-27T07:27:11Z</time>
      </trkpt>
      <trkpt lat="45.08716" lon="1.29438">
        <ele>178</ele>
        <time>2015-09-27T07:27:15Z</time>
      </trkpt>
      <trkpt lat="45.08727" lon="1.29389">
        <ele>176</ele>
        <time>2015-09-27T07:27:19Z</time>
      </trkpt>
      <trkpt lat="45.08736" lon="1.29354">
        <ele>175</ele>
        <time>2015-09-27T07:27:22Z</time>
      </trkpt>
      <trkpt lat="45.08736" lon="1.29317">
        <ele>173</ele>
        <time>2015-09-27T07:27:25Z</time>
      </trkpt>
      <trkpt lat="45.08728" lon="1.29291">
        <ele>173</ele>
        <time>2015-09-27T07:27:28Z</time>
      </trkpt>
      <trkpt lat="45.08726" lon="1.29269">
        <ele>174</ele>
        <time>2015-09-27T07:27:32Z</time>
      </trkpt>
      <trkpt lat="45.08727" lon="1.29246">
        <ele>174</ele>
        <time>2015-09-27T07:27:39Z</time>
      </trkpt>
      <trkpt lat="45.08723" lon="1.29229">
        <ele>175</ele>
        <time>2015-09-27T07:27:45Z</time>
      </trkpt>
      <trkpt lat="45.08717" lon="1.292">
        <ele>174</ele>
        <time>2015-09-27T07:27:51Z</time>
      </trkpt>
      <trkpt lat="45.0872" lon="1.29168">
        <ele>174</ele>
        <time>2015-09-27T07:27:56Z</time>
      </trkpt>
      <trkpt lat="45.08721" lon="1.29126">
        <ele>174</ele>
        <time>2015-09-27T07:28:03Z</time>
      </trkpt>
      <trkpt lat="45.08721" lon="1.29092">
        <ele>175</ele>
        <time>2015-09-27T07:28:10Z</time>
      </trkpt>
      <trkpt lat="45.08722" lon="1.29052">
        <ele>174</ele>
        <time>2015-09-27T07:28:17Z</time>
      </trkpt>
      <trkpt lat="45.08724" lon="1.29025">
        <ele>174</ele>
        <time>2015-09-27T07:28:22Z</time>
      </trkpt>
      <trkpt lat="45.08725" lon="1.2899">
        <ele>173</ele>
        <time>2015-09-27T07:28:27Z</time>
      </trkpt>
      <trkpt lat="45.08715" lon="1.28956">
        <ele>171</ele>
        <time>2015-09-27T07:28:31Z</time>
      </trkpt>
      <trkpt lat="45.08702" lon="1.28908">
        <ele>168</ele>
        <time>2015-09-27T07:28:35Z</time>
      </trkpt>
      <trkpt lat="45.08698" lon="1.28864">
        <ele>166</ele>
        <time>2015-09-27T07:28:38Z</time>
      </trkpt>
      <trkpt lat="45.08696" lon="1.28825">
        <ele>164</ele>
        <time>2015-09-27T07:28:41Z</time>
      </trkpt>
      <trkpt lat="45.08694" lon="1.28765">
        <ele>162</ele>
        <time>2015-09-27T07:28:46Z</time>
      </trkpt>
      <trkpt lat="45.08696" lon="1.28722">
        <ele>161</ele>
        <time>2015-09-27T07:28:50Z</time>
      </trkpt>
      <trkpt lat="45.08694" lon="1.28688">
        <ele>160</ele>
        <time>2015-09-27T07:28:53Z</time>
      </trkpt>
      <trkpt lat="45.08692" lon="1.2865">
        <ele>159</ele>
        <time>2015-09-27T07:28:56Z</time>
      </trkpt>
      <trkpt lat="45.08696" lon="1.28574">
        <ele>158</ele>
        <time>2015-09-27T07:29:03Z</time>
      </trkpt>
      <trkpt lat="45.08696" lon="1.28523">
        <ele>157</ele>
        <time>2015-09-27T07:29:08Z</time>
      </trkpt>
      <trkpt lat="45.08692" lon="1.2849">
        <ele>155</ele>
        <time>2015-09-27T07:29:11Z</time>
      </trkpt>
      <trkpt lat="45.08689" lon="1.28453">
        <ele>154</ele>
        <time>2015-09-27T07:29:14Z</time>
      </trkpt>
      <trkpt lat="45.08692" lon="1.28404">
        <ele>151</ele>
        <time>2015-09-27T07:29:18Z</time>
      </trkpt>
      <trkpt lat="45.08691" lon="1.28357">
        <ele>147</ele>
        <time>2015-09-27T07:29:22Z</time>
      </trkpt>
      <trkpt lat="45.08689" lon="1.28317">
        <ele>142</ele>
        <time>2015-09-27T07:29:25Z</time>
      </trkpt>
      <trkpt lat="45.08687" lon="1.28278">
        <ele>138</ele>
        <time>2015-09-27T07:29:28Z</time>
      </trkpt>
      <trkpt lat="45.08681" lon="1.28238">
        <ele>134</ele>
        <time>2015-09-27T07:29:32Z</time>
      </trkpt>
      <trkpt lat="45.08673" lon="1.28206">
        <ele>132</ele>
        <time>2015-09-27T07:29:36Z</time>
      </trkpt>
      <trkpt lat="45.08666" lon="1.28177">
        <ele>128</ele>
        <time>2015-09-27T07:29:40Z</time>
      </trkpt>
      <trkpt lat="45.08658" lon="1.28151">
        <ele>125</ele>
        <time>2015-09-27T07:29:44Z</time>
      </trkpt>
      <trkpt lat="45.08655" lon="1.2813">
        <ele>123</ele>
        <time>2015-09-27T07:29:47Z</time>
      </trkpt>
      <trkpt lat="45.08654" lon="1.28106">
        <ele>122</ele>
        <time>2015-09-27T07:29:50Z</time>
      </trkpt>
      <trkpt lat="45.08665" lon="1.28073">
        <ele>122</ele>
        <time>2015-09-27T07:29:55Z</time>
      </trkpt>
      <trkpt lat="45.08679" lon="1.28056">
        <ele>121</ele>
        <time>2015-09-27T07:29:58Z</time>
      </trkpt>
      <trkpt lat="45.08707" lon="1.28033">
        <ele>122</ele>
        <time>2015-09-27T07:30:02Z</time>
      </trkpt>
      <trkpt lat="45.08729" lon="1.27996">
        <ele>121</ele>
        <time>2015-09-27T07:30:06Z</time>
      </trkpt>
      <trkpt lat="45.08744" lon="1.27964">
        <ele>119</ele>
        <time>2015-09-27T07:30:09Z</time>
      </trkpt>
      <trkpt lat="45.08758" lon="1.27925">
        <ele>113</ele>
        <time>2015-09-27T07:30:13Z</time>
      </trkpt>
      <trkpt lat="45.08771" lon="1.27906">
        <ele>109</ele>
        <time>2015-09-27T07:30:16Z</time>
      </trkpt>
      <trkpt lat="45.08788" lon="1.27885">
        <ele>105</ele>
        <time>2015-09-27T07:30:19Z</time>
      </trkpt>
      <trkpt lat="45.08815" lon="1.27858">
        <ele>102</ele>
        <time>2015-09-27T07:30:23Z</time>
      </trkpt>
      <trkpt lat="45.08836" lon="1.27843">
        <ele>97</ele>
        <time>2015-09-27T07:30:26Z</time>
      </trkpt>
      <trkpt lat="45.08845" lon="1.27817">
        <ele>94</ele>
        <time>2015-09-27T07:30:30Z</time>
      </trkpt>
      <trkpt lat="45.08841" lon="1.278">
        <ele>90</ele>
        <time>2015-09-27T07:30:33Z</time>
      </trkpt>
      <trkpt lat="45.08832" lon="1.27778">
        <ele>85</ele>
        <time>2015-09-27T07:30:36Z</time>
      </trkpt>
      <trkpt lat="45.08823" lon="1.2775">
        <ele>83</ele>
        <time>2015-09-27T07:30:39Z</time>
      </trkpt>
      <trkpt lat="45.08817" lon="1.27725">
        <ele>78</ele>
        <time>2015-09-27T07:30:42Z</time>
      </trkpt>
      <trkpt lat="45.08804" lon="1.2769">
        <ele>74</ele>
        <time>2015-09-27T07:30:46Z</time>
      </trkpt>
      <trkpt lat="45.08792" lon="1.27664">
        <ele>72</ele>
        <time>2015-09-27T07:30:49Z</time>
      </trkpt>
      <trkpt lat="45.08785" lon="1.27634">
        <ele>69</ele>
        <time>2015-09-27T07:30:53Z</time>
      </trkpt>
      <trkpt lat="45.08792" lon="1.27613">
        <ele>68</ele>
        <time>2015-09-27T07:30:56Z</time>
      </trkpt>
      <trkpt lat="45.08783" lon="1.27573">
        <ele>65</ele>
        <time>2015-09-27T07:31:01Z</time>
      </trkpt>
      <trkpt lat="45.08769" lon="1.27531">
        <ele>64</ele>
        <time>2015-09-27T07:31:05Z</time>
      </trkpt>
      <trkpt lat="45.08757" lon="1.275">
        <ele>62</ele>
        <time>2015-09-27T07:31:08Z</time>
      </trkpt>
      <trkpt lat="45.08736" lon="1.27434">
        <ele>60</ele>
        <time>2015-09-27T07:31:14Z</time>
      </trkpt>
      <trkpt lat="45.08731" lon="1.27397">
        <ele>58</ele>
        <time>2015-09-27T07:31:17Z</time>
      </trkpt>
      <trkpt lat="45.08727" lon="1.2736">
        <ele>58</ele>
        <time>2015-09-27T07:31:20Z</time>
      </trkpt>
      <trkpt lat="45.08726" lon="1.27287">
        <ele>55</ele>
        <time>2015-09-27T07:31:26Z</time>
      </trkpt>
      <trkpt lat="45.08738" lon="1.27232">
        <ele>52</ele>
        <time>2015-09-27T07:31:30Z</time>
      </trkpt>
      <trkpt lat="45.0875" lon="1.2719">
        <ele>48</ele>
        <time>2015-09-27T07:31:34Z</time>
      </trkpt>
      <trkpt lat="45.08771" lon="1.27148">
        <ele>47</ele>
        <time>2015-09-27T07:31:38Z</time>
      </trkpt>
      <trkpt lat="45.08792" lon="1.27106">
        <ele>46</ele>
        <time>2015-09-27T07:31:42Z</time>
      </trkpt>
      <trkpt lat="45.08811" lon="1.27067">
        <ele>45</ele>
        <time>2015-09-27T07:31:46Z</time>
      </trkpt>
      <trkpt lat="45.0881" lon="1.27046">
        <ele>45</ele>
        <time>2015-09-27T07:31:49Z</time>
      </trkpt>
      <trkpt lat="45.08791" lon="1.27023">
        <ele>45</ele>
        <time>2015-09-27T07:31:52Z</time>
      </trkpt>
      <trkpt lat="45.08767" lon="1.2699">
        <ele>45</ele>
        <time>2015-09-27T07:31:56Z</time>
      </trkpt>
      <trkpt lat="45.08751" lon="1.26966">
        <ele>45</ele>
        <time>2015-09-27T07:31:59Z</time>
      </trkpt>
      <trkpt lat="45.08707" lon="1.2691">
        <ele>46</ele>
        <time>2015-09-27T07:32:07Z</time>
      </trkpt>
      <trkpt lat="45.08669" lon="1.26886">
        <ele>46</ele>
        <time>2015-09-27T07:32:13Z</time>
      </trkpt>
      <trkpt lat="45.08638" lon="1.26867">
        <ele>45</ele>
        <time>2015-09-27T07:32:18Z</time>
      </trkpt>
      <trkpt lat="45.08602" lon="1.26842">
        <ele>45</ele>
        <time>2015-09-27T07:32:25Z</time>
      </trkpt>
      <trkpt lat="45.08582" lon="1.26826">
        <ele>46</ele>
        <time>2015-09-27T07:32:30Z</time>
      </trkpt>
      <trkpt lat="45.08572" lon="1.26816">
        <ele>48</ele>
        <time>2015-09-27T07:32:34Z</time>
      </trkpt>
      <trkpt lat="45.08564" lon="1.26805">
        <ele>49</ele>
        <time>2015-09-27T07:32:37Z</time>
      </trkpt>
      <trkpt lat="45.08556" lon="1.26789">
        <ele>50</ele>
        <time>2015-09-27T07:32:40Z</time>
      </trkpt>
      <trkpt lat="45.08546" lon="1.26769">
        <ele>50</ele>
        <time>2015-09-27T07:32:44Z</time>
      </trkpt>
      <trkpt lat="45.08536" lon="1.26758">
        <ele>50</ele>
        <time>2015-09-27T07:32:47Z</time>
      </trkpt>
      <trkpt lat="45.08517" lon="1.26759">
        <ele>49</ele>
        <time>2015-09-27T07:32:50Z</time>
      </trkpt>
      <trkpt lat="45.08495" lon="1.26776">
        <ele>46</ele>
        <time>2015-09-27T07:32:53Z</time>
      </trkpt>
      <trkpt lat="45.08456" lon="1.26818">
        <ele>46</ele>
        <time>2015-09-27T07:32:59Z</time>
      </trkpt>
      <trkpt lat="45.08433" lon="1.26845">
        <ele>47</ele>
        <time>2015-09-27T07:33:04Z</time>
      </trkpt>
      <trkpt lat="45.08419" lon="1.26855">
        <ele>49</ele>
        <time>2015-09-27T07:33:08Z</time>
      </trkpt>
      <trkpt lat="45.08409" lon="1.26847">
        <ele>51</ele>
        <time>2015-09-27T07:33:12Z</time>
      </trkpt>
      <trkpt lat="45.08403" lon="1.26838">
        <ele>52</ele>
        <time>2015-09-27T07:33:15Z</time>
      </trkpt>
      <trkpt lat="45.08397" lon="1.26829">
        <ele>54</ele>
        <time>2015-09-27T07:33:18Z</time>
      </trkpt>
      <trkpt lat="45.08391" lon="1.26819">
        <ele>55</ele>
        <time>2015-09-27T07:33:21Z</time>
      </trkpt>
      <trkpt lat="45.08385" lon="1.26803">
        <ele>57</ele>
        <time>2015-09-27T07:33:25Z</time>
      </trkpt>
      <trkpt lat="45.08379" lon="1.26788">
        <ele>58</ele>
        <time>2015-09-27T07:33:29Z</time>
      </trkpt>
      <trkpt lat="45.08373" lon="1.26775">
        <ele>59</ele>
        <time>2015-09-27T07:33:32Z</time>
      </trkpt>
      <trkpt lat="45.08368" lon="1.26764">
        <ele>61</ele>
        <time>2015-09-27T07:33:35Z</time>
      </trkpt>
      <trkpt lat="45.08363" lon="1.26754">
        <ele>62</ele>
        <time>2015-09-27T07:33:38Z</time>
      </trkpt>
      <trkpt lat="45.08356" lon="1.26745">
        <ele>63</ele>
        <time>2015-09-27T07:33:41Z</time>
      </trkpt>
      <trkpt lat="45.08349" lon="1.26736">
        <ele>64</ele>
        <time>2015-09-27T07:33:44Z</time>
      </trkpt>
      <trkpt lat="45.08341" lon="1.26728">
        <ele>66</ele>
        <time>2015-09-27T07:33:47Z</time>
      </trkpt>
      <trkpt lat="45.08333" lon="1.2672">
        <ele>67</ele>
        <time>2015-09-27T07:33:50Z</time>
      </trkpt>
      <trkpt lat="45.08326" lon="1.2671">
        <ele>68</ele>
        <time>2015-09-27T07:33:53Z</time>
      </trkpt>
      <trkpt lat="45.08312" lon="1.26695">
        <ele>69</ele>
        <time>2015-09-27T07:33:58Z</time>
      </trkpt>
      <trkpt lat="45.08292" lon="1.26684">
        <ele>70</ele>
        <time>2015-09-27T07:34:05Z</time>
      </trkpt>
      <trkpt lat="45.08283" lon="1.26693">
        <ele>71</ele>
        <time>2015-09-27T07:34:10Z</time>
      </trkpt>
      <trkpt lat="45.08274" lon="1.26699">
        <ele>73</ele>
        <time>2015-09-27T07:34:15Z</time>
      </trkpt>
      <trkpt lat="45.08268" lon="1.26704">
        <ele>75</ele>
        <time>2015-09-27T07:34:19Z</time>
      </trkpt>
      <trkpt lat="45.08263" lon="1.2671">
        <ele>76</ele>
        <time>2015-09-27T07:34:23Z</time>
      </trkpt>
      <trkpt lat="45.08259" lon="1.26715">
        <ele>77</ele>
        <time>2015-09-27T07:34:26Z</time>
      </trkpt>
      <trkpt lat="45.08255" lon="1.26719">
        <ele>78</ele>
        <time>2015-09-27T07:34:29Z</time>
      </trkpt>
      <trkpt lat="45.0825" lon="1.26724">
        <ele>79</ele>
        <time>2015-09-27T07:34:33Z</time>
      </trkpt>
      <trkpt lat="45.08245" lon="1.26729">
        <ele>81</ele>
        <time>2015-09-27T07:34:38Z</time>
      </trkpt>
      <trkpt lat="45.08239" lon="1.26734">
        <ele>83</ele>
        <time>2015-09-27T07:34:42Z</time>
      </trkpt>
      <trkpt lat="45.08235" lon="1.26737">
        <ele>84</ele>
        <time>2015-09-27T07:34:45Z</time>
      </trkpt>
      <trkpt lat="45.08231" lon="1.26738">
        <ele>85</ele>
        <time>2015-09-27T07:34:48Z</time>
      </trkpt>
      <trkpt lat="45.08215" lon="1.26736">
        <ele>86</ele>
        <time>2015-09-27T07:34:56Z</time>
      </trkpt>
      <trkpt lat="45.08197" lon="1.26734">
        <ele>87</ele>
        <time>2015-09-27T07:35:03Z</time>
      </trkpt>
      <trkpt lat="45.08188" lon="1.26735">
        <ele>88</ele>
        <time>2015-09-27T07:35:08Z</time>
      </trkpt>
      <trkpt lat="45.0818" lon="1.26737">
        <ele>89</ele>
        <time>2015-09-27T07:35:13Z</time>
      </trkpt>
      <trkpt lat="45.08171" lon="1.26739">
        <ele>90</ele>
        <time>2015-09-27T07:35:18Z</time>
      </trkpt>
      <trkpt lat="45.08163" lon="1.26742">
        <ele>92</ele>
        <time>2015-09-27T07:35:23Z</time>
      </trkpt>
      <trkpt lat="45.08154" lon="1.26749">
        <ele>94</ele>
        <time>2015-09-27T07:35:30Z</time>
      </trkpt>
      <trkpt lat="45.08149" lon="1.26752">
        <ele>95</ele>
        <time>2015-09-27T07:35:34Z</time>
      </trkpt>
      <trkpt lat="45.08143" lon="1.26757">
        <ele>96</ele>
        <time>2015-09-27T07:35:38Z</time>
      </trkpt>
      <trkpt lat="45.08133" lon="1.26768">
        <ele>97</ele>
        <time>2015-09-27T07:35:44Z</time>
      </trkpt>
      <trkpt lat="45.08124" lon="1.26775">
        <ele>98</ele>
        <time>2015-09-27T07:35:48Z</time>
      </trkpt>
      <trkpt lat="45.08113" lon="1.26781">
        <ele>99</ele>
        <time>2015-09-27T07:35:52Z</time>
      </trkpt>
      <trkpt lat="45.08104" lon="1.26783">
        <ele>99</ele>
        <time>2015-09-27T07:35:55Z</time>
      </trkpt>
      <trkpt lat="45.0809" lon="1.26785">
        <ele>100</ele>
        <time>2015-09-27T07:36:00Z</time>
      </trkpt>
      <trkpt lat="45.08078" lon="1.26787">
        <ele>101</ele>
        <time>2015-09-27T07:36:04Z</time>
      </trkpt>
      <trkpt lat="45.08066" lon="1.26789">
        <ele>101</ele>
        <time>2015-09-27T07:36:08Z</time>
      </trkpt>
      <trkpt lat="45.08053" lon="1.26787">
        <ele>102</ele>
        <time>2015-09-27T07:36:13Z</time>
      </trkpt>
      <trkpt lat="45.08038" lon="1.26787">
        <ele>103</ele>
        <time>2015-09-27T07:36:18Z</time>
      </trkpt>
      <trkpt lat="45.08029" lon="1.26788">
        <ele>103</ele>
        <time>2015-09-27T07:36:21Z</time>
      </trkpt>
      <trkpt lat="45.08015" lon="1.26789">
        <ele>103</ele>
        <time>2015-09-27T07:36:26Z</time>
      </trkpt>
      <trkpt lat="45.08006" lon="1.26789">
        <ele>104</ele>
        <time>2015-09-27T07:36:29Z</time>
      </trkpt>
      <trkpt lat="45.07994" lon="1.26788">
        <ele>105</ele>
        <time>2015-09-27T07:36:34Z</time>
      </trkpt>
      <trkpt lat="45.07981" lon="1.26786">
        <ele>106</ele>
        <time>2015-09-27T07:36:39Z</time>
      </trkpt>
      <trkpt lat="45.0797" lon="1.26785">
        <ele>107</ele>
        <time>2015-09-27T07:36:43Z</time>
      </trkpt>
      <trkpt lat="45.07947" lon="1.26782">
        <ele>108</ele>
        <time>2015-09-27T07:36:51Z</time>
      </trkpt>
      <trkpt lat="45.07931" lon="1.26779">
        <ele>109</ele>
        <time>2015-09-27T07:36:57Z</time>
      </trkpt>
      <trkpt lat="45.07923" lon="1.26778">
        <ele>110</ele>
        <time>2015-09-27T07:37:00Z</time>
      </trkpt>
      <trkpt lat="45.07907" lon="1.26776">
        <ele>111</ele>
        <time>2015-09-27T07:37:06Z</time>
      </trkpt>
      <trkpt lat="45.07899" lon="1.26774">
        <ele>112</ele>
        <time>2015-09-27T07:37:09Z</time>
      </trkpt>
      <trkpt lat="45.07884" lon="1.26769">
        <ele>112</ele>
        <time>2015-09-27T07:37:14Z</time>
      </trkpt>
      <trkpt lat="45.07863" lon="1.26767">
        <ele>112</ele>
        <time>2015-09-27T07:37:20Z</time>
      </trkpt>
      <trkpt lat="45.0784" lon="1.2676">
        <ele>112</ele>
        <time>2015-09-27T07:37:26Z</time>
      </trkpt>
      <trkpt lat="45.07821" lon="1.26752">
        <ele>112</ele>
        <time>2015-09-27T07:37:30Z</time>
      </trkpt>
      <trkpt lat="45.07797" lon="1.26743">
        <ele>112</ele>
        <time>2015-09-27T07:37:36Z</time>
      </trkpt>
      <trkpt lat="45.07758" lon="1.2673">
        <ele>113</ele>
        <time>2015-09-27T07:37:45Z</time>
      </trkpt>
      <trkpt lat="45.07735" lon="1.26724">
        <ele>113</ele>
        <time>2015-09-27T07:37:50Z</time>
      </trkpt>
      <trkpt lat="45.07704" lon="1.26721">
        <ele>114</ele>
        <time>2015-09-27T07:37:57Z</time>
      </trkpt>
      <trkpt lat="45.07692" lon="1.26717">
        <ele>114</ele>
        <time>2015-09-27T07:38:00Z</time>
      </trkpt>
      <trkpt lat="45.07674" lon="1.26712">
        <ele>116</ele>
        <time>2015-09-27T07:38:05Z</time>
      </trkpt>
      <trkpt lat="45.07652" lon="1.26713">
        <ele>117</ele>
        <time>2015-09-27T07:38:12Z</time>
      </trkpt>
      <trkpt lat="45.07639" lon="1.26713">
        <ele>118</ele>
        <time>2015-09-27T07:38:16Z</time>
      </trkpt>
      <trkpt lat="45.07629" lon="1.26712">
        <ele>120</ele>
        <time>2015-09-27T07:38:20Z</time>
      </trkpt>
      <trkpt lat="45.07619" lon="1.26713">
        <ele>121</ele>
        <time>2015-09-27T07:38:24Z</time>
      </trkpt>
      <trkpt lat="45.07612" lon="1.26714">
        <ele>122</ele>
        <time>2015-09-27T07:38:27Z</time>
      </trkpt>
      <trkpt lat="45.07602" lon="1.2671">
        <ele>123</ele>
        <time>2015-09-27T07:38:31Z</time>
      </trkpt>
      <trkpt lat="45.07595" lon="1.26707">
        <ele>124</ele>
        <time>2015-09-27T07:38:34Z</time>
      </trkpt>
      <trkpt lat="45.07585" lon="1.26704">
        <ele>125</ele>
        <time>2015-09-27T07:38:38Z</time>
      </trkpt>
      <trkpt lat="45.07578" lon="1.26704">
        <ele>126</ele>
        <time>2015-09-27T07:38:41Z</time>
      </trkpt>
      <trkpt lat="45.07561" lon="1.26702">
        <ele>127</ele>
        <time>2015-09-27T07:38:48Z</time>
      </trkpt>
      <trkpt lat="45.07549" lon="1.26703">
        <ele>128</ele>
        <time>2015-09-27T07:38:52Z</time>
      </trkpt>
      <trkpt lat="45.07532" lon="1.26707">
        <ele>129</ele>
        <time>2015-09-27T07:38:58Z</time>
      </trkpt>
      <trkpt lat="45.07519" lon="1.26713">
        <ele>129</ele>
        <time>2015-09-27T07:39:02Z</time>
      </trkpt>
      <trkpt lat="45.07494" lon="1.26725">
        <ele>129</ele>
        <time>2015-09-27T07:39:09Z</time>
      </trkpt>
      <trkpt lat="45.07485" lon="1.26731">
        <ele>129</ele>
        <time>2015-09-27T07:39:12Z</time>
      </trkpt>
      <trkpt lat="45.07469" lon="1.26753">
        <ele>129</ele>
        <time>2015-09-27T07:39:18Z</time>
      </trkpt>
      <trkpt lat="45.07456" lon="1.2676">
        <ele>128</ele>
        <time>2015-09-27T07:39:21Z</time>
      </trkpt>
      <trkpt lat="45.07443" lon="1.26766">
        <ele>128</ele>
        <time>2015-09-27T07:39:24Z</time>
      </trkpt>
      <trkpt lat="45.07417" lon="1.26777">
        <ele>128</ele>
        <time>2015-09-27T07:39:29Z</time>
      </trkpt>
      <trkpt lat="45.07381" lon="1.26778">
        <ele>127</ele>
        <time>2015-09-27T07:39:35Z</time>
      </trkpt>
      <trkpt lat="45.07346" lon="1.26797">
        <ele>128</ele>
        <time>2015-09-27T07:39:41Z</time>
      </trkpt>
      <trkpt lat="45.07325" lon="1.26824">
        <ele>128</ele>
        <time>2015-09-27T07:39:46Z</time>
      </trkpt>
      <trkpt lat="45.07317" lon="1.26842">
        <ele>128</ele>
        <time>2015-09-27T07:39:49Z</time>
      </trkpt>
      <trkpt lat="45.07292" lon="1.26833">
        <ele>127</ele>
        <time>2015-09-27T07:39:54Z</time>
      </trkpt>
      <trkpt lat="45.07277" lon="1.26816">
        <ele>126</ele>
        <time>2015-09-27T07:39:57Z</time>
      </trkpt>
      <trkpt lat="45.07264" lon="1.26796">
        <ele>125</ele>
        <time>2015-09-27T07:40:00Z</time>
      </trkpt>
      <trkpt lat="45.07246" lon="1.26771">
        <ele>125</ele>
        <time>2015-09-27T07:40:04Z</time>
      </trkpt>
      <trkpt lat="45.07224" lon="1.26756">
        <ele>125</ele>
        <time>2015-09-27T07:40:08Z</time>
      </trkpt>
      <trkpt lat="45.072" lon="1.26743">
        <ele>124</ele>
        <time>2015-09-27T07:40:12Z</time>
      </trkpt>
      <trkpt lat="45.07177" lon="1.26738">
        <ele>124</ele>
        <time>2015-09-27T07:40:16Z</time>
      </trkpt>
      <trkpt lat="45.07149" lon="1.26721">
        <ele>124</ele>
        <time>2015-09-27T07:40:21Z</time>
      </trkpt>
      <trkpt lat="45.07116" lon="1.2671">
        <ele>124</ele>
        <time>2015-09-27T07:40:27Z</time>
      </trkpt>
      <trkpt lat="45.07099" lon="1.26711">
        <ele>123</ele>
        <time>2015-09-27T07:40:30Z</time>
      </trkpt>
      <trkpt lat="45.0708" lon="1.26713">
        <ele>122</ele>
        <time>2015-09-27T07:40:33Z</time>
      </trkpt>
      <trkpt lat="45.07045" lon="1.26716">
        <ele>121</ele>
        <time>2015-09-27T07:40:38Z</time>
      </trkpt>
      <trkpt lat="45.07026" lon="1.26713">
        <ele>121</ele>
        <time>2015-09-27T07:40:41Z</time>
      </trkpt>
      <trkpt lat="45.07006" lon="1.2671">
        <ele>121</ele>
        <time>2015-09-27T07:40:44Z</time>
      </trkpt>
      <trkpt lat="45.06984" lon="1.26709">
        <ele>121</ele>
        <time>2015-09-27T07:40:47Z</time>
      </trkpt>
      <trkpt lat="45.06944" lon="1.26705">
        <ele>122</ele>
        <time>2015-09-27T07:40:53Z</time>
      </trkpt>
      <trkpt lat="45.06918" lon="1.26701">
        <ele>123</ele>
        <time>2015-09-27T07:40:58Z</time>
      </trkpt>
      <trkpt lat="45.06905" lon="1.26698">
        <ele>124</ele>
        <time>2015-09-27T07:41:01Z</time>
      </trkpt>
      <trkpt lat="45.06888" lon="1.267">
        <ele>125</ele>
        <time>2015-09-27T07:41:05Z</time>
      </trkpt>
      <trkpt lat="45.06856" lon="1.26702">
        <ele>126</ele>
        <time>2015-09-27T07:41:13Z</time>
      </trkpt>
      <trkpt lat="45.06841" lon="1.26698">
        <ele>127</ele>
        <time>2015-09-27T07:41:17Z</time>
      </trkpt>
      <trkpt lat="45.06826" lon="1.26693">
        <ele>128</ele>
        <time>2015-09-27T07:41:21Z</time>
      </trkpt>
      <trkpt lat="45.06815" lon="1.26691">
        <ele>128</ele>
        <time>2015-09-27T07:41:24Z</time>
      </trkpt>
      <trkpt lat="45.06799" lon="1.26687">
        <ele>129</ele>
        <time>2015-09-27T07:41:28Z</time>
      </trkpt>
      <trkpt lat="45.06783" lon="1.26681">
        <ele>130</ele>
        <time>2015-09-27T07:41:32Z</time>
      </trkpt>
      <trkpt lat="45.06766" lon="1.2668">
        <ele>131</ele>
        <time>2015-09-27T07:41:36Z</time>
      </trkpt>
      <trkpt lat="45.06746" lon="1.26676">
        <ele>131</ele>
        <time>2015-09-27T07:41:41Z</time>
      </trkpt>
      <trkpt lat="45.06709" lon="1.26665">
        <ele>130</ele>
        <time>2015-09-27T07:41:48Z</time>
      </trkpt>
      <trkpt lat="45.06687" lon="1.26657">
        <ele>129</ele>
        <time>2015-09-27T07:41:52Z</time>
      </trkpt>
      <trkpt lat="45.06665" lon="1.26648">
        <ele>129</ele>
        <time>2015-09-27T07:41:56Z</time>
      </trkpt>
      <trkpt lat="45.06651" lon="1.26628">
        <ele>130</ele>
        <time>2015-09-27T07:42:00Z</time>
      </trkpt>
      <trkpt lat="45.06632" lon="1.26579">
        <ele>131</ele>
        <time>2015-09-27T07:42:08Z</time>
      </trkpt>
      <trkpt lat="45.06614" lon="1.26534">
        <ele>129</ele>
        <time>2015-09-27T07:42:14Z</time>
      </trkpt>
      <trkpt lat="45.06601" lon="1.26513">
        <ele>127</ele>
        <time>2015-09-27T07:42:17Z</time>
      </trkpt>
      <trkpt lat="45.06584" lon="1.26492">
        <ele>126</ele>
        <time>2015-09-27T07:42:20Z</time>
      </trkpt>
      <trkpt lat="45.06592" lon="1.26452">
        <ele>126</ele>
        <time>2015-09-27T07:42:25Z</time>
      </trkpt>
      <trkpt lat="45.06601" lon="1.26435">
        <ele>128</ele>
        <time>2015-09-27T07:42:28Z</time>
      </trkpt>
      <trkpt lat="45.06606" lon="1.26422">
        <ele>129</ele>
        <time>2015-09-27T07:42:31Z</time>
      </trkpt>
      <trkpt lat="45.06608" lon="1.26409">
        <ele>131</ele>
        <time>2015-09-27T07:42:34Z</time>
      </trkpt>
      <trkpt lat="45.06599" lon="1.26396">
        <ele>133</ele>
        <time>2015-09-27T07:42:38Z</time>
      </trkpt>
      <trkpt lat="45.0659" lon="1.26387">
        <ele>134</ele>
        <time>2015-09-27T07:42:41Z</time>
      </trkpt>
      <trkpt lat="45.06575" lon="1.26372">
        <ele>136</ele>
        <time>2015-09-27T07:42:46Z</time>
      </trkpt>
      <trkpt lat="45.06566" lon="1.26363">
        <ele>136</ele>
        <time>2015-09-27T07:42:49Z</time>
      </trkpt>
      <trkpt lat="45.06556" lon="1.26352">
        <ele>138</ele>
        <time>2015-09-27T07:42:53Z</time>
      </trkpt>
      <trkpt lat="45.06549" lon="1.26341">
        <ele>139</ele>
        <time>2015-09-27T07:42:56Z</time>
      </trkpt>
      <trkpt lat="45.06542" lon="1.26325">
        <ele>140</ele>
        <time>2015-09-27T07:43:01Z</time>
      </trkpt>
      <trkpt lat="45.06537" lon="1.26304">
        <ele>141</ele>
        <time>2015-09-27T07:43:07Z</time>
      </trkpt>
      <trkpt lat="45.06531" lon="1.26278">
        <ele>142</ele>
        <time>2015-09-27T07:43:13Z</time>
      </trkpt>
      <trkpt lat="45.06527" lon="1.26264">
        <ele>144</ele>
        <time>2015-09-27T07:43:17Z</time>
      </trkpt>
      <trkpt lat="45.06518" lon="1.26249">
        <ele>145</ele>
        <time>2015-09-27T07:43:22Z</time>
      </trkpt>
      <trkpt lat="45.06511" lon="1.26243">
        <ele>146</ele>
        <time>2015-09-27T07:43:25Z</time>
      </trkpt>
      <trkpt lat="45.06505" lon="1.26229">
        <ele>146</ele>
        <time>2015-09-27T07:43:30Z</time>
      </trkpt>
      <trkpt lat="45.06502" lon="1.26216">
        <ele>146</ele>
        <time>2015-09-27T07:43:35Z</time>
      </trkpt>
      <trkpt lat="45.06501" lon="1.26195">
        <ele>146</ele>
        <time>2015-09-27T07:43:41Z</time>
      </trkpt>
      <trkpt lat="45.06505" lon="1.26172">
        <ele>144</ele>
        <time>2015-09-27T07:43:45Z</time>
      </trkpt>
      <trkpt lat="45.06501" lon="1.26151">
        <ele>142</ele>
        <time>2015-09-27T07:43:48Z</time>
      </trkpt>
      <trkpt lat="45.06483" lon="1.26131">
        <ele>139</ele>
        <time>2015-09-27T07:43:51Z</time>
      </trkpt>
      <trkpt lat="45.0646" lon="1.26113">
        <ele>135</ele>
        <time>2015-09-27T07:43:54Z</time>
      </trkpt>
      <trkpt lat="45.06434" lon="1.26093">
        <ele>135</ele>
        <time>2015-09-27T07:43:57Z</time>
      </trkpt>
      <trkpt lat="45.06411" lon="1.26078">
        <ele>134</ele>
        <time>2015-09-27T07:44:00Z</time>
      </trkpt>
      <trkpt lat="45.06388" lon="1.26069">
        <ele>134</ele>
        <time>2015-09-27T07:44:03Z</time>
      </trkpt>
      <trkpt lat="45.06369" lon="1.26059">
        <ele>135</ele>
        <time>2015-09-27T07:44:06Z</time>
      </trkpt>
      <trkpt lat="45.06349" lon="1.26047">
        <ele>137</ele>
        <time>2015-09-27T07:44:10Z</time>
      </trkpt>
      <trkpt lat="45.06331" lon="1.26036">
        <ele>138</ele>
        <time>2015-09-27T07:44:14Z</time>
      </trkpt>
      <trkpt lat="45.06319" lon="1.2603">
        <ele>138</ele>
        <time>2015-09-27T07:44:17Z</time>
      </trkpt>
      <trkpt lat="45.06314" lon="1.26007">
        <ele>138</ele>
        <time>2015-09-27T07:44:21Z</time>
      </trkpt>
      <trkpt lat="45.06316" lon="1.25992">
        <ele>139</ele>
        <time>2015-09-27T07:44:24Z</time>
      </trkpt>
      <trkpt lat="45.0632" lon="1.2598">
        <ele>140</ele>
        <time>2015-09-27T07:44:27Z</time>
      </trkpt>
      <trkpt lat="45.06326" lon="1.25973">
        <ele>141</ele>
        <time>2015-09-27T07:44:30Z</time>
      </trkpt>
      <trkpt lat="45.06333" lon="1.25969">
        <ele>142</ele>
        <time>2015-09-27T07:44:33Z</time>
      </trkpt>
      <trkpt lat="45.06341" lon="1.25967">
        <ele>143</ele>
        <time>2015-09-27T07:44:36Z</time>
      </trkpt>
      <trkpt lat="45.06362" lon="1.25961">
        <ele>145</ele>
        <time>2015-09-27T07:44:43Z</time>
      </trkpt>
      <trkpt lat="45.06388" lon="1.25959">
        <ele>145</ele>
        <time>2015-09-27T07:44:50Z</time>
      </trkpt>
      <trkpt lat="45.06406" lon="1.25943">
        <ele>147</ele>
        <time>2015-09-27T07:44:56Z</time>
      </trkpt>
      <trkpt lat="45.06417" lon="1.25924">
        <ele>150</ele>
        <time>2015-09-27T07:45:01Z</time>
      </trkpt>
      <trkpt lat="45.06422" lon="1.2591">
        <ele>151</ele>
        <time>2015-09-27T07:45:04Z</time>
      </trkpt>
      <trkpt lat="45.06426" lon="1.25897">
        <ele>152</ele>
        <time>2015-09-27T07:45:07Z</time>
      </trkpt>
      <trkpt lat="45.06427" lon="1.25885">
        <ele>153</ele>
        <time>2015-09-27T07:45:10Z</time>
      </trkpt>
      <trkpt lat="45.06427" lon="1.25872">
        <ele>154</ele>
        <time>2015-09-27T07:45:13Z</time>
      </trkpt>
      <trkpt lat="45.06425" lon="1.25864">
        <ele>156</ele>
        <time>2015-09-27T07:45:16Z</time>
      </trkpt>
      <trkpt lat="45.06423" lon="1.25864">
        <ele>157</ele>
        <time>2015-09-27T07:45:19Z</time>
      </trkpt>
      <trkpt lat="45.06416" lon="1.25877">
        <ele>158</ele>
        <time>2015-09-27T07:45:25Z</time>
      </trkpt>
      <trkpt lat="45.06401" lon="1.25882">
        <ele>159</ele>
        <time>2015-09-27T07:45:31Z</time>
      </trkpt>
      <trkpt lat="45.06394" lon="1.25882">
        <ele>160</ele>
        <time>2015-09-27T07:45:34Z</time>
      </trkpt>
      <trkpt lat="45.06385" lon="1.25881">
        <ele>162</ele>
        <time>2015-09-27T07:45:38Z</time>
      </trkpt>
      <trkpt lat="45.06377" lon="1.2588">
        <ele>163</ele>
        <time>2015-09-27T07:45:42Z</time>
      </trkpt>
      <trkpt lat="45.0637" lon="1.25879">
        <ele>164</ele>
        <time>2015-09-27T07:45:45Z</time>
      </trkpt>
      <trkpt lat="45.06363" lon="1.25877">
        <ele>165</ele>
        <time>2015-09-27T07:45:48Z</time>
      </trkpt>
      <trkpt lat="45.06353" lon="1.25876">
        <ele>166</ele>
        <time>2015-09-27T07:45:52Z</time>
      </trkpt>
      <trkpt lat="45.06339" lon="1.25873">
        <ele>167</ele>
        <time>2015-09-27T07:45:57Z</time>
      </trkpt>
      <trkpt lat="45.06326" lon="1.2587">
        <ele>168</ele>
        <time>2015-09-27T07:46:01Z</time>
      </trkpt>
      <trkpt lat="45.06308" lon="1.25868">
        <ele>169</ele>
        <time>2015-09-27T07:46:07Z</time>
      </trkpt>
      <trkpt lat="45.06297" lon="1.25867">
        <ele>171</ele>
        <time>2015-09-27T07:46:12Z</time>
      </trkpt>
      <trkpt lat="45.0628" lon="1.25866">
        <ele>172</ele>
        <time>2015-09-27T07:46:18Z</time>
      </trkpt>
      <trkpt lat="45.0627" lon="1.25865">
        <ele>173</ele>
        <time>2015-09-27T07:46:22Z</time>
      </trkpt>
      <trkpt lat="45.06258" lon="1.25864">
        <ele>174</ele>
        <time>2015-09-27T07:46:26Z</time>
      </trkpt>
      <trkpt lat="45.06249" lon="1.25864">
        <ele>175</ele>
        <time>2015-09-27T07:46:29Z</time>
      </trkpt>
      <trkpt lat="45.06232" lon="1.25865">
        <ele>176</ele>
        <time>2015-09-27T07:46:35Z</time>
      </trkpt>
      <trkpt lat="45.06212" lon="1.25866">
        <ele>178</ele>
        <time>2015-09-27T07:46:41Z</time>
      </trkpt>
      <trkpt lat="45.06198" lon="1.25864">
        <ele>179</ele>
        <time>2015-09-27T07:46:45Z</time>
      </trkpt>
      <trkpt lat="45.06187" lon="1.25861">
        <ele>179</ele>
        <time>2015-09-27T07:46:48Z</time>
      </trkpt>
      <trkpt lat="45.06172" lon="1.25857">
        <ele>181</ele>
        <time>2015-09-27T07:46:53Z</time>
      </trkpt>
      <trkpt lat="45.0616" lon="1.25852">
        <ele>182</ele>
        <time>2015-09-27T07:46:57Z</time>
      </trkpt>
      <trkpt lat="45.06151" lon="1.25848">
        <ele>184</ele>
        <time>2015-09-27T07:47:00Z</time>
      </trkpt>
      <trkpt lat="45.06143" lon="1.25838">
        <ele>185</ele>
        <time>2015-09-27T07:47:03Z</time>
      </trkpt>
      <trkpt lat="45.06136" lon="1.25823">
        <ele>186</ele>
        <time>2015-09-27T07:47:07Z</time>
      </trkpt>
      <trkpt lat="45.06123" lon="1.25818">
        <ele>187</ele>
        <time>2015-09-27T07:47:11Z</time>
      </trkpt>
      <trkpt lat="45.06112" lon="1.25827">
        <ele>188</ele>
        <time>2015-09-27T07:47:15Z</time>
      </trkpt>
      <trkpt lat="45.06091" lon="1.25846">
        <ele>188</ele>
        <time>2015-09-27T07:47:21Z</time>
      </trkpt>
      <trkpt lat="45.06055" lon="1.25864">
        <ele>189</ele>
        <time>2015-09-27T07:47:30Z</time>
      </trkpt>
      <trkpt lat="45.06043" lon="1.25871">
        <ele>189</ele>
        <time>2015-09-27T07:47:33Z</time>
      </trkpt>
      <trkpt lat="45.06025" lon="1.25875">
        <ele>189</ele>
        <time>2015-09-27T07:47:37Z</time>
      </trkpt>
      <trkpt lat="45.06001" lon="1.25877">
        <ele>191</ele>
        <time>2015-09-27T07:47:43Z</time>
      </trkpt>
      <trkpt lat="45.05985" lon="1.25876">
        <ele>191</ele>
        <time>2015-09-27T07:47:47Z</time>
      </trkpt>
      <trkpt lat="45.05973" lon="1.25875">
        <ele>192</ele>
        <time>2015-09-27T07:47:50Z</time>
      </trkpt>
      <trkpt lat="45.05953" lon="1.25876">
        <ele>193</ele>
        <time>2015-09-27T07:47:56Z</time>
      </trkpt>
      <trkpt lat="45.05945" lon="1.2588">
        <ele>194</ele>
        <time>2015-09-27T07:47:59Z</time>
      </trkpt>
      <trkpt lat="45.05937" lon="1.25885">
        <ele>195</ele>
        <time>2015-09-27T07:48:02Z</time>
      </trkpt>
      <trkpt lat="45.05926" lon="1.25892">
        <ele>198</ele>
        <time>2015-09-27T07:48:07Z</time>
      </trkpt>
      <trkpt lat="45.05919" lon="1.25901">
        <ele>198</ele>
        <time>2015-09-27T07:48:10Z</time>
      </trkpt>
      <trkpt lat="45.05911" lon="1.25912">
        <ele>200</ele>
        <time>2015-09-27T07:48:14Z</time>
      </trkpt>
      <trkpt lat="45.05904" lon="1.25926">
        <ele>201</ele>
        <time>2015-09-27T07:48:18Z</time>
      </trkpt>
      <trkpt lat="45.05899" lon="1.25935">
        <ele>202</ele>
        <time>2015-09-27T07:48:21Z</time>
      </trkpt>
      <trkpt lat="45.05893" lon="1.25946">
        <ele>203</ele>
        <time>2015-09-27T07:48:24Z</time>
      </trkpt>
      <trkpt lat="45.05885" lon="1.25965">
        <ele>203</ele>
        <time>2015-09-27T07:48:29Z</time>
      </trkpt>
      <trkpt lat="45.05878" lon="1.25989">
        <ele>203</ele>
        <time>2015-09-27T07:48:35Z</time>
      </trkpt>
      <trkpt lat="45.05872" lon="1.26021">
        <ele>203</ele>
        <time>2015-09-27T07:48:41Z</time>
      </trkpt>
      <trkpt lat="45.05869" lon="1.26039">
        <ele>203</ele>
        <time>2015-09-27T07:48:44Z</time>
      </trkpt>
      <trkpt lat="45.05862" lon="1.26055">
        <ele>203</ele>
        <time>2015-09-27T07:48:47Z</time>
      </trkpt>
      <trkpt lat="45.05844" lon="1.26079">
        <ele>203</ele>
        <time>2015-09-27T07:48:53Z</time>
      </trkpt>
      <trkpt lat="45.05834" lon="1.26094">
        <ele>203</ele>
        <time>2015-09-27T07:48:57Z</time>
      </trkpt>
      <trkpt lat="45.05835" lon="1.26109">
        <ele>202</ele>
        <time>2015-09-27T07:49:00Z</time>
      </trkpt>
      <trkpt lat="45.05841" lon="1.26138">
        <ele>202</ele>
        <time>2015-09-27T07:49:05Z</time>
      </trkpt>
      <trkpt lat="45.05845" lon="1.26157">
        <ele>202</ele>
        <time>2015-09-27T07:49:08Z</time>
      </trkpt>
      <trkpt lat="45.0585" lon="1.26176">
        <ele>201</ele>
        <time>2015-09-27T07:49:11Z</time>
      </trkpt>
      <trkpt lat="45.05855" lon="1.26195">
        <ele>201</ele>
        <time>2015-09-27T07:49:14Z</time>
      </trkpt>
      <trkpt lat="45.05851" lon="1.26213">
        <ele>201</ele>
        <time>2015-09-27T07:49:17Z</time>
      </trkpt>
      <trkpt lat="45.05847" lon="1.26236">
        <ele>200</ele>
        <time>2015-09-27T07:49:20Z</time>
      </trkpt>
      <trkpt lat="45.05844" lon="1.26264">
        <ele>199</ele>
        <time>2015-09-27T07:49:23Z</time>
      </trkpt>
      <trkpt lat="45.0584" lon="1.26293">
        <ele>197</ele>
        <time>2015-09-27T07:49:26Z</time>
      </trkpt>
      <trkpt lat="45.05835" lon="1.26323">
        <ele>195</ele>
        <time>2015-09-27T07:49:29Z</time>
      </trkpt>
      <trkpt lat="45.05827" lon="1.26365">
        <ele>191</ele>
        <time>2015-09-27T07:49:33Z</time>
      </trkpt>
      <trkpt lat="45.05817" lon="1.26399">
        <ele>189</ele>
        <time>2015-09-27T07:49:36Z</time>
      </trkpt>
      <trkpt lat="45.05806" lon="1.26452">
        <ele>185</ele>
        <time>2015-09-27T07:49:40Z</time>
      </trkpt>
      <trkpt lat="45.05801" lon="1.26505">
        <ele>182</ele>
        <time>2015-09-27T07:49:44Z</time>
      </trkpt>
      <trkpt lat="45.05801" lon="1.26561">
        <ele>178</ele>
        <time>2015-09-27T07:49:48Z</time>
      </trkpt>
      <trkpt lat="45.05798" lon="1.26599">
        <ele>176</ele>
        <time>2015-09-27T07:49:51Z</time>
      </trkpt>
      <trkpt lat="45.05789" lon="1.26646">
        <ele>173</ele>
        <time>2015-09-27T07:49:55Z</time>
      </trkpt>
      <trkpt lat="45.05782" lon="1.26693">
        <ele>171</ele>
        <time>2015-09-27T07:49:59Z</time>
      </trkpt>
      <trkpt lat="45.05777" lon="1.26736">
        <ele>169</ele>
        <time>2015-09-27T07:50:03Z</time>
      </trkpt>
      <trkpt lat="45.05775" lon="1.26778">
        <ele>165</ele>
        <time>2015-09-27T07:50:07Z</time>
      </trkpt>
      <trkpt lat="45.05776" lon="1.26811">
        <ele>160</ele>
        <time>2015-09-27T07:50:10Z</time>
      </trkpt>
      <trkpt lat="45.05777" lon="1.26833">
        <ele>157</ele>
        <time>2015-09-27T07:50:13Z</time>
      </trkpt>
      <trkpt lat="45.05785" lon="1.26868">
        <ele>152</ele>
        <time>2015-09-27T07:50:16Z</time>
      </trkpt>
      <trkpt lat="45.05805" lon="1.26906">
        <ele>149</ele>
        <time>2015-09-27T07:50:19Z</time>
      </trkpt>
      <trkpt lat="45.05829" lon="1.26938">
        <ele>145</ele>
        <time>2015-09-27T07:50:22Z</time>
      </trkpt>
      <trkpt lat="45.05853" lon="1.26969">
        <ele>141</ele>
        <time>2015-09-27T07:50:25Z</time>
      </trkpt>
      <trkpt lat="45.05871" lon="1.26993">
        <ele>137</ele>
        <time>2015-09-27T07:50:28Z</time>
      </trkpt>
      <trkpt lat="45.05884" lon="1.27013">
        <ele>135</ele>
        <time>2015-09-27T07:50:31Z</time>
      </trkpt>
      <trkpt lat="45.059" lon="1.27034">
        <ele>132</ele>
        <time>2015-09-27T07:50:34Z</time>
      </trkpt>
      <trkpt lat="45.0592" lon="1.27039">
        <ele>129</ele>
        <time>2015-09-27T07:50:37Z</time>
      </trkpt>
      <trkpt lat="45.05943" lon="1.27038">
        <ele>125</ele>
        <time>2015-09-27T07:50:40Z</time>
      </trkpt>
      <trkpt lat="45.05965" lon="1.27043">
        <ele>123</ele>
        <time>2015-09-27T07:50:43Z</time>
      </trkpt>
      <trkpt lat="45.05987" lon="1.27059">
        <ele>121</ele>
        <time>2015-09-27T07:50:46Z</time>
      </trkpt>
      <trkpt lat="45.06006" lon="1.27079">
        <ele>117</ele>
        <time>2015-09-27T07:50:49Z</time>
      </trkpt>
      <trkpt lat="45.06013" lon="1.27104">
        <ele>114</ele>
        <time>2015-09-27T07:50:52Z</time>
      </trkpt>
      <trkpt lat="45.06015" lon="1.27145">
        <ele>109</ele>
        <time>2015-09-27T07:50:56Z</time>
      </trkpt>
      <trkpt lat="45.06023" lon="1.2719">
        <ele>104</ele>
        <time>2015-09-27T07:51:00Z</time>
      </trkpt>
      <trkpt lat="45.06032" lon="1.27223">
        <ele>99</ele>
        <time>2015-09-27T07:51:03Z</time>
      </trkpt>
      <trkpt lat="45.06041" lon="1.27258">
        <ele>97</ele>
        <time>2015-09-27T07:51:06Z</time>
      </trkpt>
      <trkpt lat="45.0605" lon="1.27307">
        <ele>93</ele>
        <time>2015-09-27T07:51:10Z</time>
      </trkpt>
      <trkpt lat="45.06057" lon="1.27335">
        <ele>89</ele>
        <time>2015-09-27T07:51:14Z</time>
      </trkpt>
      <trkpt lat="45.06048" lon="1.27334">
        <ele>87</ele>
        <time>2015-09-27T07:51:18Z</time>
      </trkpt>
      <trkpt lat="45.06035" lon="1.27321">
        <ele>85</ele>
        <time>2015-09-27T07:51:21Z</time>
      </trkpt>
      <trkpt lat="45.06009" lon="1.27298">
        <ele>84</ele>
        <time>2015-09-27T07:51:25Z</time>
      </trkpt>
      <trkpt lat="45.05987" lon="1.27278">
        <ele>81</ele>
        <time>2015-09-27T07:51:28Z</time>
      </trkpt>
      <trkpt lat="45.05958" lon="1.27251">
        <ele>78</ele>
        <time>2015-09-27T07:51:32Z</time>
      </trkpt>
      <trkpt lat="45.05929" lon="1.27235">
        <ele>75</ele>
        <time>2015-09-27T07:51:36Z</time>
      </trkpt>
      <trkpt lat="45.05906" lon="1.27248">
        <ele>72</ele>
        <time>2015-09-27T07:51:39Z</time>
      </trkpt>
      <trkpt lat="45.05886" lon="1.2726">
        <ele>68</ele>
        <time>2015-09-27T07:51:42Z</time>
      </trkpt>
      <trkpt lat="45.05881" lon="1.2727">
        <ele>65</ele>
        <time>2015-09-27T07:51:45Z</time>
      </trkpt>
      <trkpt lat="45.05889" lon="1.27278">
        <ele>64</ele>
        <time>2015-09-27T07:51:48Z</time>
      </trkpt>
      <trkpt lat="45.05911" lon="1.2729">
        <ele>64</ele>
        <time>2015-09-27T07:51:52Z</time>
      </trkpt>
      <trkpt lat="45.05928" lon="1.27302">
        <ele>63</ele>
        <time>2015-09-27T07:51:55Z</time>
      </trkpt>
      <trkpt lat="45.05954" lon="1.27327">
        <ele>63</ele>
        <time>2015-09-27T07:52:00Z</time>
      </trkpt>
      <trkpt lat="45.05978" lon="1.27371">
        <ele>62</ele>
        <time>2015-09-27T07:52:06Z</time>
      </trkpt>
      <trkpt lat="45.05992" lon="1.27413">
        <ele>60</ele>
        <time>2015-09-27T07:52:11Z</time>
      </trkpt>
      <trkpt lat="45.06002" lon="1.27447">
        <ele>59</ele>
        <time>2015-09-27T07:52:15Z</time>
      </trkpt>
      <trkpt lat="45.06013" lon="1.27479">
        <ele>58</ele>
        <time>2015-09-27T07:52:19Z</time>
      </trkpt>
      <trkpt lat="45.0602" lon="1.27502">
        <ele>58</ele>
        <time>2015-09-27T07:52:22Z</time>
      </trkpt>
      <trkpt lat="45.06014" lon="1.27526">
        <ele>58</ele>
        <time>2015-09-27T07:52:25Z</time>
      </trkpt>
      <trkpt lat="45.06004" lon="1.27557">
        <ele>55</ele>
        <time>2015-09-27T07:52:28Z</time>
      </trkpt>
      <trkpt lat="45.05997" lon="1.27586">
        <ele>54</ele>
        <time>2015-09-27T07:52:31Z</time>
      </trkpt>
      <trkpt lat="45.06007" lon="1.27609">
        <ele>54</ele>
        <time>2015-09-27T07:52:36Z</time>
      </trkpt>
      <trkpt lat="45.0602" lon="1.27621">
        <ele>54</ele>
        <time>2015-09-27T07:52:39Z</time>
      </trkpt>
      <trkpt lat="45.06033" lon="1.27636">
        <ele>54</ele>
        <time>2015-09-27T07:52:42Z</time>
      </trkpt>
      <trkpt lat="45.06055" lon="1.27658">
        <ele>55</ele>
        <time>2015-09-27T07:52:47Z</time>
      </trkpt>
      <trkpt lat="45.06094" lon="1.27699">
        <ele>54</ele>
        <time>2015-09-27T07:52:56Z</time>
      </trkpt>
      <trkpt lat="45.0612" lon="1.27719">
        <ele>54</ele>
        <time>2015-09-27T07:53:01Z</time>
      </trkpt>
      <trkpt lat="45.0617" lon="1.27739">
        <ele>54</ele>
        <time>2015-09-27T07:53:10Z</time>
      </trkpt>
      <trkpt lat="45.06188" lon="1.27742">
        <ele>54</ele>
        <time>2015-09-27T07:53:13Z</time>
      </trkpt>
      <trkpt lat="45.06206" lon="1.27744">
        <ele>54</ele>
        <time>2015-09-27T07:53:16Z</time>
      </trkpt>
      <trkpt lat="45.06247" lon="1.27744">
        <ele>54</ele>
        <time>2015-09-27T07:53:23Z</time>
      </trkpt>
      <trkpt lat="45.06276" lon="1.27739">
        <ele>55</ele>
        <time>2015-09-27T07:53:28Z</time>
      </trkpt>
      <trkpt lat="45.06298" lon="1.27734">
        <ele>55</ele>
        <time>2015-09-27T07:53:32Z</time>
      </trkpt>
      <trkpt lat="45.0633" lon="1.27719">
        <ele>54</ele>
        <time>2015-09-27T07:53:37Z</time>
      </trkpt>
      <trkpt lat="45.06348" lon="1.27714">
        <ele>54</ele>
        <time>2015-09-27T07:53:40Z</time>
      </trkpt>
      <trkpt lat="45.06374" lon="1.27704">
        <ele>55</ele>
        <time>2015-09-27T07:53:45Z</time>
      </trkpt>
      <trkpt lat="45.06387" lon="1.27697">
        <ele>56</ele>
        <time>2015-09-27T07:53:48Z</time>
      </trkpt>
      <trkpt lat="45.06422" lon="1.2768">
        <ele>56</ele>
        <time>2015-09-27T07:53:55Z</time>
      </trkpt>
      <trkpt lat="45.0645" lon="1.27666">
        <ele>55</ele>
        <time>2015-09-27T07:54:00Z</time>
      </trkpt>
      <trkpt lat="45.06468" lon="1.27658">
        <ele>54</ele>
        <time>2015-09-27T07:54:03Z</time>
      </trkpt>
      <trkpt lat="45.06488" lon="1.27647">
        <ele>53</ele>
        <time>2015-09-27T07:54:06Z</time>
      </trkpt>
      <trkpt lat="45.06516" lon="1.27628">
        <ele>51</ele>
        <time>2015-09-27T07:54:10Z</time>
      </trkpt>
      <trkpt lat="45.06533" lon="1.2761">
        <ele>51</ele>
        <time>2015-09-27T07:54:13Z</time>
      </trkpt>
      <trkpt lat="45.06554" lon="1.27599">
        <ele>50</ele>
        <time>2015-09-27T07:54:17Z</time>
      </trkpt>
      <trkpt lat="45.06576" lon="1.2762">
        <ele>51</ele>
        <time>2015-09-27T07:54:21Z</time>
      </trkpt>
      <trkpt lat="45.06591" lon="1.27638">
        <ele>52</ele>
        <time>2015-09-27T07:54:24Z</time>
      </trkpt>
      <trkpt lat="45.06603" lon="1.27646">
        <ele>54</ele>
        <time>2015-09-27T07:54:27Z</time>
      </trkpt>
      <trkpt lat="45.06616" lon="1.27645">
        <ele>56</ele>
        <time>2015-09-27T07:54:30Z</time>
      </trkpt>
      <trkpt lat="45.06628" lon="1.27654">
        <ele>56</ele>
        <time>2015-09-27T07:54:33Z</time>
      </trkpt>
      <trkpt lat="45.06643" lon="1.2767">
        <ele>58</ele>
        <time>2015-09-27T07:54:37Z</time>
      </trkpt>
      <trkpt lat="45.06653" lon="1.27681">
        <ele>59</ele>
        <time>2015-09-27T07:54:40Z</time>
      </trkpt>
      <trkpt lat="45.06665" lon="1.2769">
        <ele>60</ele>
        <time>2015-09-27T07:54:43Z</time>
      </trkpt>
      <trkpt lat="45.06675" lon="1.27697">
        <ele>61</ele>
        <time>2015-09-27T07:54:46Z</time>
      </trkpt>
      <trkpt lat="45.06694" lon="1.27712">
        <ele>62</ele>
        <time>2015-09-27T07:54:53Z</time>
      </trkpt>
      <trkpt lat="45.06703" lon="1.27732">
        <ele>63</ele>
        <time>2015-09-27T07:54:59Z</time>
      </trkpt>
      <trkpt lat="45.06708" lon="1.27747">
        <ele>65</ele>
        <time>2015-09-27T07:55:03Z</time>
      </trkpt>
      <trkpt lat="45.06713" lon="1.27766">
        <ele>66</ele>
        <time>2015-09-27T07:55:08Z</time>
      </trkpt>
      <trkpt lat="45.06734" lon="1.27772">
        <ele>66</ele>
        <time>2015-09-27T07:55:15Z</time>
      </trkpt>
      <trkpt lat="45.06748" lon="1.27755">
        <ele>65</ele>
        <time>2015-09-27T07:55:19Z</time>
      </trkpt>
      <trkpt lat="45.06764" lon="1.27735">
        <ele>63</ele>
        <time>2015-09-27T07:55:23Z</time>
      </trkpt>
      <trkpt lat="45.0678" lon="1.27736">
        <ele>61</ele>
        <time>2015-09-27T07:55:26Z</time>
      </trkpt>
      <trkpt lat="45.06801" lon="1.27748">
        <ele>61</ele>
        <time>2015-09-27T07:55:30Z</time>
      </trkpt>
      <trkpt lat="45.06829" lon="1.27766">
        <ele>60</ele>
        <time>2015-09-27T07:55:35Z</time>
      </trkpt>
      <trkpt lat="45.06851" lon="1.27782">
        <ele>59</ele>
        <time>2015-09-27T07:55:39Z</time>
      </trkpt>
      <trkpt lat="45.06867" lon="1.27797">
        <ele>58</ele>
        <time>2015-09-27T07:55:42Z</time>
      </trkpt>
      <trkpt lat="45.06883" lon="1.27813">
        <ele>57</ele>
        <time>2015-09-27T07:55:45Z</time>
      </trkpt>
      <trkpt lat="45.069" lon="1.2783">
        <ele>57</ele>
        <time>2015-09-27T07:55:48Z</time>
      </trkpt>
      <trkpt lat="45.06932" lon="1.27865">
        <ele>55</ele>
        <time>2015-09-27T07:55:54Z</time>
      </trkpt>
      <trkpt lat="45.06953" lon="1.27885">
        <ele>54</ele>
        <time>2015-09-27T07:55:58Z</time>
      </trkpt>
      <trkpt lat="45.06987" lon="1.27915">
        <ele>53</ele>
        <time>2015-09-27T07:56:04Z</time>
      </trkpt>
      <trkpt lat="45.07013" lon="1.27944">
        <ele>53</ele>
        <time>2015-09-27T07:56:09Z</time>
      </trkpt>
      <trkpt lat="45.07033" lon="1.2797">
        <ele>52</ele>
        <time>2015-09-27T07:56:13Z</time>
      </trkpt>
      <trkpt lat="45.07053" lon="1.27992">
        <ele>53</ele>
        <time>2015-09-27T07:56:17Z</time>
      </trkpt>
      <trkpt lat="45.07071" lon="1.28003">
        <ele>55</ele>
        <time>2015-09-27T07:56:21Z</time>
      </trkpt>
      <trkpt lat="45.07082" lon="1.2801">
        <ele>56</ele>
        <time>2015-09-27T07:56:24Z</time>
      </trkpt>
      <trkpt lat="45.07092" lon="1.28019">
        <ele>57</ele>
        <time>2015-09-27T07:56:27Z</time>
      </trkpt>
      <trkpt lat="45.07107" lon="1.28035">
        <ele>56</ele>
        <time>2015-09-27T07:56:31Z</time>
      </trkpt>
      <trkpt lat="45.07135" lon="1.28064">
        <ele>55</ele>
        <time>2015-09-27T07:56:37Z</time>
      </trkpt>
      <trkpt lat="45.07148" lon="1.28084">
        <ele>54</ele>
        <time>2015-09-27T07:56:40Z</time>
      </trkpt>
      <trkpt lat="45.07158" lon="1.28108">
        <ele>53</ele>
        <time>2015-09-27T07:56:43Z</time>
      </trkpt>
      <trkpt lat="45.07162" lon="1.28137">
        <ele>52</ele>
        <time>2015-09-27T07:56:46Z</time>
      </trkpt>
      <trkpt lat="45.07163" lon="1.28158">
        <ele>50</ele>
        <time>2015-09-27T07:56:49Z</time>
      </trkpt>
      <trkpt lat="45.07151" lon="1.2817">
        <ele>49</ele>
        <time>2015-09-27T07:56:53Z</time>
      </trkpt>
      <trkpt lat="45.07127" lon="1.28177">
        <ele>48</ele>
        <time>2015-09-27T07:56:57Z</time>
      </trkpt>
      <trkpt lat="45.07099" lon="1.28184">
        <ele>47</ele>
        <time>2015-09-27T07:57:01Z</time>
      </trkpt>
      <trkpt lat="45.0708" lon="1.28194">
        <ele>47</ele>
        <time>2015-09-27T07:57:04Z</time>
      </trkpt>
      <trkpt lat="45.07052" lon="1.28219">
        <ele>46</ele>
        <time>2015-09-27T07:57:09Z</time>
      </trkpt>
      <trkpt lat="45.07033" lon="1.28241">
        <ele>46</ele>
        <time>2015-09-27T07:57:13Z</time>
      </trkpt>
      <trkpt lat="45.07017" lon="1.28277">
        <ele>47</ele>
        <time>2015-09-27T07:57:18Z</time>
      </trkpt>
      <trkpt lat="45.07008" lon="1.28314">
        <ele>47</ele>
        <time>2015-09-27T07:57:23Z</time>
      </trkpt>
      <trkpt lat="45.07002" lon="1.28337">
        <ele>48</ele>
        <time>2015-09-27T07:57:26Z</time>
      </trkpt>
      <trkpt lat="45.06993" lon="1.2837">
        <ele>50</ele>
        <time>2015-09-27T07:57:32Z</time>
      </trkpt>
      <trkpt lat="45.0699" lon="1.28387">
        <ele>50</ele>
        <time>2015-09-27T07:57:35Z</time>
      </trkpt>
      <trkpt lat="45.06985" lon="1.28411">
        <ele>51</ele>
        <time>2015-09-27T07:57:39Z</time>
      </trkpt>
      <trkpt lat="45.06981" lon="1.28428">
        <ele>52</ele>
        <time>2015-09-27T07:57:42Z</time>
      </trkpt>
      <trkpt lat="45.06976" lon="1.28444">
        <ele>53</ele>
        <time>2015-09-27T07:57:45Z</time>
      </trkpt>
      <trkpt lat="45.06971" lon="1.28457">
        <ele>54</ele>
        <time>2015-09-27T07:57:48Z</time>
      </trkpt>
      <trkpt lat="45.06963" lon="1.28474">
        <ele>55</ele>
        <time>2015-09-27T07:57:52Z</time>
      </trkpt>
      <trkpt lat="45.06957" lon="1.28486">
        <ele>56</ele>
        <time>2015-09-27T07:57:55Z</time>
      </trkpt>
      <trkpt lat="45.06946" lon="1.28517">
        <ele>57</ele>
        <time>2015-09-27T07:58:02Z</time>
      </trkpt>
      <trkpt lat="45.06936" lon="1.28555">
        <ele>56</ele>
        <time>2015-09-27T07:58:09Z</time>
      </trkpt>
      <trkpt lat="45.06929" lon="1.28577">
        <ele>55</ele>
        <time>2015-09-27T07:58:12Z</time>
      </trkpt>
      <trkpt lat="45.06918" lon="1.28597">
        <ele>54</ele>
        <time>2015-09-27T07:58:15Z</time>
      </trkpt>
      <trkpt lat="45.06911" lon="1.28626">
        <ele>54</ele>
        <time>2015-09-27T07:58:19Z</time>
      </trkpt>
      <trkpt lat="45.06908" lon="1.28655">
        <ele>54</ele>
        <time>2015-09-27T07:58:23Z</time>
      </trkpt>
      <trkpt lat="45.06901" lon="1.28681">
        <ele>55</ele>
        <time>2015-09-27T07:58:27Z</time>
      </trkpt>
      <trkpt lat="45.06898" lon="1.28702">
        <ele>54</ele>
        <time>2015-09-27T07:58:30Z</time>
      </trkpt>
      <trkpt lat="45.06896" lon="1.28739">
        <ele>52</ele>
        <time>2015-09-27T07:58:34Z</time>
      </trkpt>
      <trkpt lat="45.06891" lon="1.28771">
        <ele>51</ele>
        <time>2015-09-27T07:58:37Z</time>
      </trkpt>
      <trkpt lat="45.0687" lon="1.28813">
        <ele>50</ele>
        <time>2015-09-27T07:58:42Z</time>
      </trkpt>
      <trkpt lat="45.06834" lon="1.28847">
        <ele>50</ele>
        <time>2015-09-27T07:58:49Z</time>
      </trkpt>
      <trkpt lat="45.06811" lon="1.28865">
        <ele>50</ele>
        <time>2015-09-27T07:58:53Z</time>
      </trkpt>
      <trkpt lat="45.06782" lon="1.28885">
        <ele>50</ele>
        <time>2015-09-27T07:58:58Z</time>
      </trkpt>
      <trkpt lat="45.06762" lon="1.2889">
        <ele>49</ele>
        <time>2015-09-27T07:59:01Z</time>
      </trkpt>
      <trkpt lat="45.06741" lon="1.28884">
        <ele>48</ele>
        <time>2015-09-27T07:59:04Z</time>
      </trkpt>
      <trkpt lat="45.06705" lon="1.28877">
        <ele>48</ele>
        <time>2015-09-27T07:59:10Z</time>
      </trkpt>
      <trkpt lat="45.06673" lon="1.28884">
        <ele>48</ele>
        <time>2015-09-27T07:59:16Z</time>
      </trkpt>
      <trkpt lat="45.06644" lon="1.28896">
        <ele>48</ele>
        <time>2015-09-27T07:59:21Z</time>
      </trkpt>
      <trkpt lat="45.06608" lon="1.28928">
        <ele>48</ele>
        <time>2015-09-27T07:59:28Z</time>
      </trkpt>
      <trkpt lat="45.06599" lon="1.28944">
        <ele>50</ele>
        <time>2015-09-27T07:59:31Z</time>
      </trkpt>
      <trkpt lat="45.06596" lon="1.28975">
        <ele>52</ele>
        <time>2015-09-27T07:59:37Z</time>
      </trkpt>
      <trkpt lat="45.06597" lon="1.28988">
        <ele>53</ele>
        <time>2015-09-27T07:59:40Z</time>
      </trkpt>
      <trkpt lat="45.066" lon="1.29008">
        <ele>54</ele>
        <time>2015-09-27T07:59:44Z</time>
      </trkpt>
      <trkpt lat="45.06601" lon="1.29032">
        <ele>55</ele>
        <time>2015-09-27T07:59:49Z</time>
      </trkpt>
      <trkpt lat="45.06601" lon="1.29047">
        <ele>56</ele>
        <time>2015-09-27T07:59:52Z</time>
      </trkpt>
      <trkpt lat="45.06604" lon="1.29084">
        <ele>56</ele>
        <time>2015-09-27T07:59:59Z</time>
      </trkpt>
      <trkpt lat="45.06604" lon="1.29114">
        <ele>57</ele>
        <time>2015-09-27T08:00:05Z</time>
      </trkpt>
      <trkpt lat="45.06605" lon="1.2913">
        <ele>57</ele>
        <time>2015-09-27T08:00:08Z</time>
      </trkpt>
      <trkpt lat="45.06608" lon="1.29145">
        <ele>58</ele>
        <time>2015-09-27T08:00:11Z</time>
      </trkpt>
      <trkpt lat="45.06613" lon="1.2917">
        <ele>58</ele>
        <time>2015-09-27T08:00:16Z</time>
      </trkpt>
      <trkpt lat="45.06618" lon="1.29194">
        <ele>58</ele>
        <time>2015-09-27T08:00:20Z</time>
      </trkpt>
      <trkpt lat="45.06622" lon="1.29213">
        <ele>58</ele>
        <time>2015-09-27T08:00:23Z</time>
      </trkpt>
      <trkpt lat="45.0663" lon="1.29242">
        <ele>59</ele>
        <time>2015-09-27T08:00:28Z</time>
      </trkpt>
      <trkpt lat="45.06633" lon="1.2927">
        <ele>58</ele>
        <time>2015-09-27T08:00:32Z</time>
      </trkpt>
      <trkpt lat="45.0663" lon="1.29293">
        <ele>58</ele>
        <time>2015-09-27T08:00:35Z</time>
      </trkpt>
      <trkpt lat="45.06622" lon="1.29315">
        <ele>57</ele>
        <time>2015-09-27T08:00:38Z</time>
      </trkpt>
      <trkpt lat="45.06611" lon="1.29345">
        <ele>56</ele>
        <time>2015-09-27T08:00:42Z</time>
      </trkpt>
      <trkpt lat="45.06611" lon="1.29368">
        <ele>53</ele>
        <time>2015-09-27T08:00:46Z</time>
      </trkpt>
      <trkpt lat="45.06631" lon="1.29371">
        <ele>52</ele>
        <time>2015-09-27T08:00:49Z</time>
      </trkpt>
      <trkpt lat="45.06642" lon="1.29381">
        <ele>53</ele>
        <time>2015-09-27T08:00:53Z</time>
      </trkpt>
      <trkpt lat="45.06634" lon="1.29398">
        <ele>53</ele>
        <time>2015-09-27T08:00:57Z</time>
      </trkpt>
      <trkpt lat="45.06621" lon="1.29436">
        <ele>54</ele>
        <time>2015-09-27T08:01:03Z</time>
      </trkpt>
      <trkpt lat="45.06616" lon="1.29484">
        <ele>54</ele>
        <time>2015-09-27T08:01:09Z</time>
      </trkpt>
      <trkpt lat="45.0662" lon="1.29516">
        <ele>54</ele>
        <time>2015-09-27T08:01:13Z</time>
      </trkpt>
      <trkpt lat="45.06635" lon="1.29566">
        <ele>55</ele>
        <time>2015-09-27T08:01:20Z</time>
      </trkpt>
      <trkpt lat="45.06657" lon="1.29606">
        <ele>56</ele>
        <time>2015-09-27T08:01:27Z</time>
      </trkpt>
      <trkpt lat="45.06664" lon="1.29623">
        <ele>56</ele>
        <time>2015-09-27T08:01:30Z</time>
      </trkpt>
      <trkpt lat="45.06647" lon="1.29632">
        <ele>57</ele>
        <time>2015-09-27T08:01:35Z</time>
      </trkpt>
      <trkpt lat="45.06637" lon="1.29627">
        <ele>58</ele>
        <time>2015-09-27T08:01:38Z</time>
      </trkpt>
      <trkpt lat="45.06627" lon="1.29621">
        <ele>59</ele>
        <time>2015-09-27T08:01:42Z</time>
      </trkpt>
      <trkpt lat="45.06615" lon="1.29614">
        <ele>60</ele>
        <time>2015-09-27T08:01:46Z</time>
      </trkpt>
      <trkpt lat="45.06605" lon="1.29609">
        <ele>62</ele>
        <time>2015-09-27T08:01:50Z</time>
      </trkpt>
      <trkpt lat="45.06597" lon="1.29605">
        <ele>63</ele>
        <time>2015-09-27T08:01:53Z</time>
      </trkpt>
      <trkpt lat="45.06574" lon="1.29598">
        <ele>64</ele>
        <time>2015-09-27T08:02:00Z</time>
      </trkpt>
      <trkpt lat="45.06553" lon="1.29589">
        <ele>65</ele>
        <time>2015-09-27T08:02:07Z</time>
      </trkpt>
      <trkpt lat="45.06537" lon="1.29578">
        <ele>66</ele>
        <time>2015-09-27T08:02:13Z</time>
      </trkpt>
      <trkpt lat="45.06528" lon="1.29574">
        <ele>68</ele>
        <time>2015-09-27T08:02:16Z</time>
      </trkpt>
      <trkpt lat="45.06516" lon="1.29572">
        <ele>69</ele>
        <time>2015-09-27T08:02:20Z</time>
      </trkpt>
      <trkpt lat="45.06504" lon="1.2957">
        <ele>70</ele>
        <time>2015-09-27T08:02:24Z</time>
      </trkpt>
      <trkpt lat="45.06492" lon="1.29569">
        <ele>71</ele>
        <time>2015-09-27T08:02:27Z</time>
      </trkpt>
      <trkpt lat="45.06473" lon="1.29571">
        <ele>72</ele>
        <time>2015-09-27T08:02:33Z</time>
      </trkpt>
      <trkpt lat="45.06456" lon="1.29575">
        <ele>73</ele>
        <time>2015-09-27T08:02:38Z</time>
      </trkpt>
      <trkpt lat="45.06447" lon="1.29578">
        <ele>74</ele>
        <time>2015-09-27T08:02:41Z</time>
      </trkpt>
      <trkpt lat="45.06438" lon="1.29579">
        <ele>74</ele>
        <time>2015-09-27T08:02:44Z</time>
      </trkpt>
      <trkpt lat="45.06424" lon="1.2958">
        <ele>75</ele>
        <time>2015-09-27T08:02:48Z</time>
      </trkpt>
      <trkpt lat="45.06404" lon="1.29583">
        <ele>77</ele>
        <time>2015-09-27T08:02:55Z</time>
      </trkpt>
      <trkpt lat="45.06379" lon="1.29588">
        <ele>78</ele>
        <time>2015-09-27T08:03:02Z</time>
      </trkpt>
      <trkpt lat="45.06355" lon="1.29592">
        <ele>79</ele>
        <time>2015-09-27T08:03:09Z</time>
      </trkpt>
      <trkpt lat="45.06333" lon="1.29595">
        <ele>80</ele>
        <time>2015-09-27T08:03:15Z</time>
      </trkpt>
      <trkpt lat="45.06316" lon="1.29602">
        <ele>81</ele>
        <time>2015-09-27T08:03:20Z</time>
      </trkpt>
      <trkpt lat="45.06298" lon="1.29612">
        <ele>82</ele>
        <time>2015-09-27T08:03:25Z</time>
      </trkpt>
      <trkpt lat="45.06277" lon="1.29623">
        <ele>84</ele>
        <time>2015-09-27T08:03:31Z</time>
      </trkpt>
      <trkpt lat="45.06255" lon="1.29637">
        <ele>85</ele>
        <time>2015-09-27T08:03:38Z</time>
      </trkpt>
      <trkpt lat="45.06239" lon="1.29653">
        <ele>86</ele>
        <time>2015-09-27T08:03:43Z</time>
      </trkpt>
      <trkpt lat="45.06222" lon="1.29673">
        <ele>87</ele>
        <time>2015-09-27T08:03:48Z</time>
      </trkpt>
      <trkpt lat="45.06199" lon="1.29705">
        <ele>88</ele>
        <time>2015-09-27T08:03:55Z</time>
      </trkpt>
      <trkpt lat="45.06184" lon="1.29731">
        <ele>89</ele>
        <time>2015-09-27T08:04:01Z</time>
      </trkpt>
      <trkpt lat="45.06163" lon="1.2974">
        <ele>90</ele>
        <time>2015-09-27T08:04:07Z</time>
      </trkpt>
      <trkpt lat="45.06152" lon="1.2974">
        <ele>90</ele>
        <time>2015-09-27T08:04:10Z</time>
      </trkpt>
      <trkpt lat="45.06138" lon="1.29739">
        <ele>91</ele>
        <time>2015-09-27T08:04:14Z</time>
      </trkpt>
      <trkpt lat="45.06118" lon="1.29736">
        <ele>92</ele>
        <time>2015-09-27T08:04:20Z</time>
      </trkpt>
      <trkpt lat="45.06107" lon="1.29735">
        <ele>92</ele>
        <time>2015-09-27T08:04:23Z</time>
      </trkpt>
      <trkpt lat="45.06097" lon="1.29735">
        <ele>93</ele>
        <time>2015-09-27T08:04:26Z</time>
      </trkpt>
      <trkpt lat="45.06086" lon="1.29734">
        <ele>93</ele>
        <time>2015-09-27T08:04:29Z</time>
      </trkpt>
      <trkpt lat="45.06066" lon="1.29738">
        <ele>94</ele>
        <time>2015-09-27T08:04:35Z</time>
      </trkpt>
      <trkpt lat="45.0605" lon="1.29744">
        <ele>95</ele>
        <time>2015-09-27T08:04:40Z</time>
      </trkpt>
      <trkpt lat="45.0604" lon="1.29749">
        <ele>96</ele>
        <time>2015-09-27T08:04:43Z</time>
      </trkpt>
      <trkpt lat="45.06032" lon="1.29755">
        <ele>96</ele>
        <time>2015-09-27T08:04:46Z</time>
      </trkpt>
      <trkpt lat="45.06017" lon="1.29763">
        <ele>97</ele>
        <time>2015-09-27T08:04:52Z</time>
      </trkpt>
      <trkpt lat="45.06" lon="1.29773">
        <ele>98</ele>
        <time>2015-09-27T08:04:58Z</time>
      </trkpt>
      <trkpt lat="45.05991" lon="1.29779">
        <ele>98</ele>
        <time>2015-09-27T08:05:01Z</time>
      </trkpt>
      <trkpt lat="45.05981" lon="1.29787">
        <ele>98</ele>
        <time>2015-09-27T08:05:04Z</time>
      </trkpt>
      <trkpt lat="45.05966" lon="1.29802">
        <ele>99</ele>
        <time>2015-09-27T08:05:08Z</time>
      </trkpt>
      <trkpt lat="45.05945" lon="1.2982">
        <ele>100</ele>
        <time>2015-09-27T08:05:14Z</time>
      </trkpt>
      <trkpt lat="45.0592" lon="1.2983">
        <ele>102</ele>
        <time>2015-09-27T08:05:21Z</time>
      </trkpt>
      <trkpt lat="45.05911" lon="1.29831">
        <ele>103</ele>
        <time>2015-09-27T08:05:24Z</time>
      </trkpt>
      <trkpt lat="45.05899" lon="1.29838">
        <ele>103</ele>
        <time>2015-09-27T08:05:28Z</time>
      </trkpt>
      <trkpt lat="45.05881" lon="1.29855">
        <ele>104</ele>
        <time>2015-09-27T08:05:33Z</time>
      </trkpt>
      <trkpt lat="45.05864" lon="1.29868">
        <ele>104</ele>
        <time>2015-09-27T08:05:38Z</time>
      </trkpt>
      <trkpt lat="45.05848" lon="1.29869">
        <ele>105</ele>
        <time>2015-09-27T08:05:42Z</time>
      </trkpt>
      <trkpt lat="45.05836" lon="1.29868">
        <ele>105</ele>
        <time>2015-09-27T08:05:45Z</time>
      </trkpt>
      <trkpt lat="45.0581" lon="1.29872">
        <ele>107</ele>
        <time>2015-09-27T08:05:52Z</time>
      </trkpt>
      <trkpt lat="45.05784" lon="1.29876">
        <ele>108</ele>
        <time>2015-09-27T08:05:59Z</time>
      </trkpt>
      <trkpt lat="45.05762" lon="1.29888">
        <ele>109</ele>
        <time>2015-09-27T08:06:05Z</time>
      </trkpt>
      <trkpt lat="45.05742" lon="1.29899">
        <ele>111</ele>
        <time>2015-09-27T08:06:11Z</time>
      </trkpt>
      <trkpt lat="45.05727" lon="1.29905">
        <ele>112</ele>
        <time>2015-09-27T08:06:15Z</time>
      </trkpt>
      <trkpt lat="45.05717" lon="1.29906">
        <ele>112</ele>
        <time>2015-09-27T08:06:18Z</time>
      </trkpt>
      <trkpt lat="45.05706" lon="1.29908">
        <ele>113</ele>
        <time>2015-09-27T08:06:21Z</time>
      </trkpt>
      <trkpt lat="45.05689" lon="1.29911">
        <ele>114</ele>
        <time>2015-09-27T08:06:26Z</time>
      </trkpt>
      <trkpt lat="45.05663" lon="1.29912">
        <ele>115</ele>
        <time>2015-09-27T08:06:33Z</time>
      </trkpt>
      <trkpt lat="45.05649" lon="1.29913">
        <ele>116</ele>
        <time>2015-09-27T08:06:37Z</time>
      </trkpt>
      <trkpt lat="45.05635" lon="1.29915">
        <ele>117</ele>
        <time>2015-09-27T08:06:41Z</time>
      </trkpt>
      <trkpt lat="45.05623" lon="1.29913">
        <ele>119</ele>
        <time>2015-09-27T08:06:45Z</time>
      </trkpt>
      <trkpt lat="45.05611" lon="1.29909">
        <ele>120</ele>
        <time>2015-09-27T08:06:49Z</time>
      </trkpt>
      <trkpt lat="45.05603" lon="1.29909">
        <ele>121</ele>
        <time>2015-09-27T08:06:52Z</time>
      </trkpt>
      <trkpt lat="45.05596" lon="1.29909">
        <ele>122</ele>
        <time>2015-09-27T08:06:55Z</time>
      </trkpt>
      <trkpt lat="45.0559" lon="1.29909">
        <ele>123</ele>
        <time>2015-09-27T08:06:58Z</time>
      </trkpt>
      <trkpt lat="45.05583" lon="1.29909">
        <ele>124</ele>
        <time>2015-09-27T08:07:01Z</time>
      </trkpt>
      <trkpt lat="45.05576" lon="1.29914">
        <ele>126</ele>
        <time>2015-09-27T08:07:04Z</time>
      </trkpt>
      <trkpt lat="45.05571" lon="1.2992">
        <ele>127</ele>
        <time>2015-09-27T08:07:07Z</time>
      </trkpt>
      <trkpt lat="45.05561" lon="1.2993">
        <ele>128</ele>
        <time>2015-09-27T08:07:12Z</time>
      </trkpt>
      <trkpt lat="45.05546" lon="1.29938">
        <ele>129</ele>
        <time>2015-09-27T08:07:17Z</time>
      </trkpt>
      <trkpt lat="45.05536" lon="1.29941">
        <ele>130</ele>
        <time>2015-09-27T08:07:20Z</time>
      </trkpt>
      <trkpt lat="45.05523" lon="1.29945">
        <ele>130</ele>
        <time>2015-09-27T08:07:24Z</time>
      </trkpt>
      <trkpt lat="45.0551" lon="1.29949">
        <ele>131</ele>
        <time>2015-09-27T08:07:28Z</time>
      </trkpt>
      <trkpt lat="45.05483" lon="1.29959">
        <ele>133</ele>
        <time>2015-09-27T08:07:36Z</time>
      </trkpt>
      <trkpt lat="45.05473" lon="1.29972">
        <ele>134</ele>
        <time>2015-09-27T08:07:40Z</time>
      </trkpt>
      <trkpt lat="45.05466" lon="1.29991">
        <ele>137</ele>
        <time>2015-09-27T08:07:45Z</time>
      </trkpt>
      <trkpt lat="45.05454" lon="1.30004">
        <ele>137</ele>
        <time>2015-09-27T08:07:49Z</time>
      </trkpt>
      <trkpt lat="45.05444" lon="1.30012">
        <ele>138</ele>
        <time>2015-09-27T08:07:52Z</time>
      </trkpt>
      <trkpt lat="45.05431" lon="1.30024">
        <ele>139</ele>
        <time>2015-09-27T08:07:56Z</time>
      </trkpt>
      <trkpt lat="45.05421" lon="1.30033">
        <ele>139</ele>
        <time>2015-09-27T08:07:59Z</time>
      </trkpt>
      <trkpt lat="45.05402" lon="1.3005">
        <ele>140</ele>
        <time>2015-09-27T08:08:05Z</time>
      </trkpt>
      <trkpt lat="45.05392" lon="1.30051">
        <ele>140</ele>
        <time>2015-09-27T08:08:08Z</time>
      </trkpt>
      <trkpt lat="45.05385" lon="1.3003">
        <ele>140</ele>
        <time>2015-09-27T08:08:12Z</time>
      </trkpt>
      <trkpt lat="45.05376" lon="1.30016">
        <ele>141</ele>
        <time>2015-09-27T08:08:16Z</time>
      </trkpt>
      <trkpt lat="45.05364" lon="1.30029">
        <ele>141</ele>
        <time>2015-09-27T08:08:20Z</time>
      </trkpt>
      <trkpt lat="45.05344" lon="1.30062">
        <ele>142</ele>
        <time>2015-09-27T08:08:28Z</time>
      </trkpt>
      <trkpt lat="45.05335" lon="1.30075">
        <ele>142</ele>
        <time>2015-09-27T08:08:32Z</time>
      </trkpt>
      <trkpt lat="45.05318" lon="1.30098">
        <ele>143</ele>
        <time>2015-09-27T08:08:38Z</time>
      </trkpt>
      <trkpt lat="45.053" lon="1.30119">
        <ele>144</ele>
        <time>2015-09-27T08:08:44Z</time>
      </trkpt>
      <trkpt lat="45.05282" lon="1.30136">
        <ele>146</ele>
        <time>2015-09-27T08:08:49Z</time>
      </trkpt>
      <trkpt lat="45.05268" lon="1.30145">
        <ele>147</ele>
        <time>2015-09-27T08:08:53Z</time>
      </trkpt>
      <trkpt lat="45.05254" lon="1.30155">
        <ele>148</ele>
        <time>2015-09-27T08:08:57Z</time>
      </trkpt>
      <trkpt lat="45.05241" lon="1.30162">
        <ele>149</ele>
        <time>2015-09-27T08:09:01Z</time>
      </trkpt>
      <trkpt lat="45.05227" lon="1.3017">
        <ele>150</ele>
        <time>2015-09-27T08:09:05Z</time>
      </trkpt>
      <trkpt lat="45.05208" lon="1.30181">
        <ele>151</ele>
        <time>2015-09-27T08:09:11Z</time>
      </trkpt>
      <trkpt lat="45.05195" lon="1.30189">
        <ele>153</ele>
        <time>2015-09-27T08:09:15Z</time>
      </trkpt>
      <trkpt lat="45.05187" lon="1.30194">
        <ele>153</ele>
        <time>2015-09-27T08:09:18Z</time>
      </trkpt>
      <trkpt lat="45.05168" lon="1.30208">
        <ele>155</ele>
        <time>2015-09-27T08:09:24Z</time>
      </trkpt>
      <trkpt lat="45.05156" lon="1.30215">
        <ele>156</ele>
        <time>2015-09-27T08:09:28Z</time>
      </trkpt>
      <trkpt lat="45.05141" lon="1.30224">
        <ele>158</ele>
        <time>2015-09-27T08:09:33Z</time>
      </trkpt>
      <trkpt lat="45.0513" lon="1.30233">
        <ele>159</ele>
        <time>2015-09-27T08:09:37Z</time>
      </trkpt>
      <trkpt lat="45.05121" lon="1.30238">
        <ele>160</ele>
        <time>2015-09-27T08:09:40Z</time>
      </trkpt>
      <trkpt lat="45.0511" lon="1.30245">
        <ele>161</ele>
        <time>2015-09-27T08:09:44Z</time>
      </trkpt>
      <trkpt lat="45.05098" lon="1.30253">
        <ele>163</ele>
        <time>2015-09-27T08:09:48Z</time>
      </trkpt>
      <trkpt lat="45.05089" lon="1.30258">
        <ele>164</ele>
        <time>2015-09-27T08:09:51Z</time>
      </trkpt>
      <trkpt lat="45.05079" lon="1.30264">
        <ele>165</ele>
        <time>2015-09-27T08:09:54Z</time>
      </trkpt>
      <trkpt lat="45.05065" lon="1.30273">
        <ele>166</ele>
        <time>2015-09-27T08:09:58Z</time>
      </trkpt>
      <trkpt lat="45.05051" lon="1.30284">
        <ele>167</ele>
        <time>2015-09-27T08:10:02Z</time>
      </trkpt>
      <trkpt lat="45.0503" lon="1.30299">
        <ele>168</ele>
        <time>2015-09-27T08:10:08Z</time>
      </trkpt>
      <trkpt lat="45.05029" lon="1.30311">
        <ele>168</ele>
        <time>2015-09-27T08:10:11Z</time>
      </trkpt>
      <trkpt lat="45.05035" lon="1.30332">
        <ele>168</ele>
        <time>2015-09-27T08:10:17Z</time>
      </trkpt>
      <trkpt lat="45.05039" lon="1.30343">
        <ele>167</ele>
        <time>2015-09-27T08:10:20Z</time>
      </trkpt>
      <trkpt lat="45.05044" lon="1.3036">
        <ele>166</ele>
        <time>2015-09-27T08:10:23Z</time>
      </trkpt>
      <trkpt lat="45.05046" lon="1.30398">
        <ele>162</ele>
        <time>2015-09-27T08:10:27Z</time>
      </trkpt>
      <trkpt lat="45.05047" lon="1.30434">
        <ele>159</ele>
        <time>2015-09-27T08:10:30Z</time>
      </trkpt>
      <trkpt lat="45.05036" lon="1.30466">
        <ele>156</ele>
        <time>2015-09-27T08:10:33Z</time>
      </trkpt>
      <trkpt lat="45.05007" lon="1.30465">
        <ele>153</ele>
        <time>2015-09-27T08:10:37Z</time>
      </trkpt>
      <trkpt lat="45.04976" lon="1.3046">
        <ele>150</ele>
        <time>2015-09-27T08:10:41Z</time>
      </trkpt>
      <trkpt lat="45.04964" lon="1.30469">
        <ele>148</ele>
        <time>2015-09-27T08:10:44Z</time>
      </trkpt>
      <trkpt lat="45.04959" lon="1.30481">
        <ele>150</ele>
        <time>2015-09-27T08:10:48Z</time>
      </trkpt>
      <trkpt lat="45.04963" lon="1.30496">
        <ele>151</ele>
        <time>2015-09-27T08:10:51Z</time>
      </trkpt>
      <trkpt lat="45.04967" lon="1.3051">
        <ele>152</ele>
        <time>2015-09-27T08:10:54Z</time>
      </trkpt>
      <trkpt lat="45.04969" lon="1.30527">
        <ele>154</ele>
        <time>2015-09-27T08:10:57Z</time>
      </trkpt>
      <trkpt lat="45.04972" lon="1.3054">
        <ele>155</ele>
        <time>2015-09-27T08:11:00Z</time>
      </trkpt>
      <trkpt lat="45.04972" lon="1.30551">
        <ele>156</ele>
        <time>2015-09-27T08:11:03Z</time>
      </trkpt>
      <trkpt lat="45.0497" lon="1.30561">
        <ele>157</ele>
        <time>2015-09-27T08:11:06Z</time>
      </trkpt>
      <trkpt lat="45.04967" lon="1.30571">
        <ele>158</ele>
        <time>2015-09-27T08:11:09Z</time>
      </trkpt>
      <trkpt lat="45.04963" lon="1.30584">
        <ele>160</ele>
        <time>2015-09-27T08:11:13Z</time>
      </trkpt>
      <trkpt lat="45.04956" lon="1.30587">
        <ele>161</ele>
        <time>2015-09-27T08:11:16Z</time>
      </trkpt>
      <trkpt lat="45.04949" lon="1.30577">
        <ele>162</ele>
        <time>2015-09-27T08:11:20Z</time>
      </trkpt>
      <trkpt lat="45.04941" lon="1.30567">
        <ele>163</ele>
        <time>2015-09-27T08:11:24Z</time>
      </trkpt>
      <trkpt lat="45.04934" lon="1.30563">
        <ele>164</ele>
        <time>2015-09-27T08:11:27Z</time>
      </trkpt>
      <trkpt lat="45.04922" lon="1.30566">
        <ele>165</ele>
        <time>2015-09-27T08:11:32Z</time>
      </trkpt>
      <trkpt lat="45.04918" lon="1.30575">
        <ele>167</ele>
        <time>2015-09-27T08:11:35Z</time>
      </trkpt>
      <trkpt lat="45.04914" lon="1.30585">
        <ele>167</ele>
        <time>2015-09-27T08:11:38Z</time>
      </trkpt>
      <trkpt lat="45.04911" lon="1.306">
        <ele>169</ele>
        <time>2015-09-27T08:11:42Z</time>
      </trkpt>
      <trkpt lat="45.04908" lon="1.30611">
        <ele>169</ele>
        <time>2015-09-27T08:11:45Z</time>
      </trkpt>
      <trkpt lat="45.04902" lon="1.30631">
        <ele>171</ele>
        <time>2015-09-27T08:11:50Z</time>
      </trkpt>
      <trkpt lat="45.04898" lon="1.3064">
        <ele>172</ele>
        <time>2015-09-27T08:11:53Z</time>
      </trkpt>
      <trkpt lat="45.04885" lon="1.30661">
        <ele>173</ele>
        <time>2015-09-27T08:12:00Z</time>
      </trkpt>
      <trkpt lat="45.04867" lon="1.30671">
        <ele>173</ele>
        <time>2015-09-27T08:12:06Z</time>
      </trkpt>
      <trkpt lat="45.04845" lon="1.30674">
        <ele>173</ele>
        <time>2015-09-27T08:12:11Z</time>
      </trkpt>
      <trkpt lat="45.04817" lon="1.30672">
        <ele>172</ele>
        <time>2015-09-27T08:12:16Z</time>
      </trkpt>
      <trkpt lat="45.04804" lon="1.30672">
        <ele>171</ele>
        <time>2015-09-27T08:12:19Z</time>
      </trkpt>
      <trkpt lat="45.04796" lon="1.30682">
        <ele>171</ele>
        <time>2015-09-27T08:12:23Z</time>
      </trkpt>
      <trkpt lat="45.04787" lon="1.30699">
        <ele>171</ele>
        <time>2015-09-27T08:12:27Z</time>
      </trkpt>
      <trkpt lat="45.04776" lon="1.30711">
        <ele>170</ele>
        <time>2015-09-27T08:12:30Z</time>
      </trkpt>
      <trkpt lat="45.04753" lon="1.30731">
        <ele>169</ele>
        <time>2015-09-27T08:12:35Z</time>
      </trkpt>
      <trkpt lat="45.0474" lon="1.30747">
        <ele>168</ele>
        <time>2015-09-27T08:12:38Z</time>
      </trkpt>
      <trkpt lat="45.04725" lon="1.30771">
        <ele>167</ele>
        <time>2015-09-27T08:12:42Z</time>
      </trkpt>
      <trkpt lat="45.04713" lon="1.308">
        <ele>166</ele>
        <time>2015-09-27T08:12:46Z</time>
      </trkpt>
      <trkpt lat="45.04712" lon="1.30825">
        <ele>166</ele>
        <time>2015-09-27T08:12:49Z</time>
      </trkpt>
      <trkpt lat="45.04717" lon="1.30848">
        <ele>166</ele>
        <time>2015-09-27T08:12:52Z</time>
      </trkpt>
      <trkpt lat="45.04726" lon="1.30886">
        <ele>167</ele>
        <time>2015-09-27T08:12:58Z</time>
      </trkpt>
      <trkpt lat="45.04729" lon="1.30903">
        <ele>168</ele>
        <time>2015-09-27T08:13:01Z</time>
      </trkpt>
      <trkpt lat="45.04732" lon="1.30923">
        <ele>169</ele>
        <time>2015-09-27T08:13:05Z</time>
      </trkpt>
      <trkpt lat="45.04736" lon="1.30946">
        <ele>170</ele>
        <time>2015-09-27T08:13:09Z</time>
      </trkpt>
      <trkpt lat="45.04737" lon="1.30978">
        <ele>171</ele>
        <time>2015-09-27T08:13:14Z</time>
      </trkpt>
      <trkpt lat="45.04733" lon="1.31007">
        <ele>171</ele>
        <time>2015-09-27T08:13:19Z</time>
      </trkpt>
      <trkpt lat="45.04724" lon="1.31037">
        <ele>170</ele>
        <time>2015-09-27T08:13:25Z</time>
      </trkpt>
      <trkpt lat="45.04717" lon="1.31061">
        <ele>170</ele>
        <time>2015-09-27T08:13:29Z</time>
      </trkpt>
      <trkpt lat="45.04716" lon="1.31086">
        <ele>170</ele>
        <time>2015-09-27T08:13:33Z</time>
      </trkpt>
      <trkpt lat="45.04716" lon="1.31122">
        <ele>170</ele>
        <time>2015-09-27T08:13:39Z</time>
      </trkpt>
      <trkpt lat="45.04705" lon="1.31152">
        <ele>170</ele>
        <time>2015-09-27T08:13:44Z</time>
      </trkpt>
      <trkpt lat="45.0469" lon="1.31163">
        <ele>170</ele>
        <time>2015-09-27T08:13:48Z</time>
      </trkpt>
      <trkpt lat="45.0468" lon="1.3117">
        <ele>172</ele>
        <time>2015-09-27T08:13:51Z</time>
      </trkpt>
      <trkpt lat="45.04666" lon="1.31201">
        <ele>169</ele>
        <time>2015-09-27T08:13:56Z</time>
      </trkpt>
      <trkpt lat="45.04659" lon="1.3123">
        <ele>168</ele>
        <time>2015-09-27T08:13:59Z</time>
      </trkpt>
      <trkpt lat="45.04652" lon="1.31262">
        <ele>166</ele>
        <time>2015-09-27T08:14:02Z</time>
      </trkpt>
      <trkpt lat="45.04642" lon="1.31309">
        <ele>164</ele>
        <time>2015-09-27T08:14:06Z</time>
      </trkpt>
      <trkpt lat="45.04634" lon="1.31346">
        <ele>163</ele>
        <time>2015-09-27T08:14:09Z</time>
      </trkpt>
      <trkpt lat="45.04627" lon="1.31378">
        <ele>162</ele>
        <time>2015-09-27T08:14:12Z</time>
      </trkpt>
      <trkpt lat="45.04605" lon="1.3141">
        <ele>162</ele>
        <time>2015-09-27T08:14:17Z</time>
      </trkpt>
      <trkpt lat="45.04578" lon="1.3141">
        <ele>163</ele>
        <time>2015-09-27T08:14:21Z</time>
      </trkpt>
      <trkpt lat="45.0455" lon="1.31421">
        <ele>165</ele>
        <time>2015-09-27T08:14:26Z</time>
      </trkpt>
      <trkpt lat="45.04525" lon="1.31432">
        <ele>166</ele>
        <time>2015-09-27T08:14:31Z</time>
      </trkpt>
      <trkpt lat="45.04511" lon="1.31441">
        <ele>167</ele>
        <time>2015-09-27T08:14:34Z</time>
      </trkpt>
      <trkpt lat="45.04493" lon="1.31453">
        <ele>168</ele>
        <time>2015-09-27T08:14:38Z</time>
      </trkpt>
      <trkpt lat="45.04482" lon="1.31461">
        <ele>169</ele>
        <time>2015-09-27T08:14:41Z</time>
      </trkpt>
      <trkpt lat="45.04474" lon="1.31469">
        <ele>169</ele>
        <time>2015-09-27T08:14:45Z</time>
      </trkpt>
      <trkpt lat="45.04472" lon="1.3147">
        <ele>170</ele>
        <time>2015-09-27T08:14:48Z</time>
      </trkpt>
      <trkpt lat="45.04471" lon="1.31473">
        <ele>170</ele>
        <time>2015-09-27T08:14:54Z</time>
      </trkpt>
      <trkpt lat="45.04472" lon="1.31474">
        <ele>170</ele>
        <time>2015-09-27T08:15:00Z</time>
      </trkpt>
      <trkpt lat="45.04471" lon="1.31476">
        <ele>169</ele>
        <time>2015-09-27T08:16:47Z</time>
      </trkpt>
      <trkpt lat="45.04465" lon="1.31481">
        <ele>169</ele>
        <time>2015-09-27T08:16:52Z</time>
      </trkpt>
      <trkpt lat="45.04457" lon="1.31487">
        <ele>170</ele>
        <time>2015-09-27T08:16:56Z</time>
      </trkpt>
      <trkpt lat="45.04454" lon="1.31501">
        <ele>170</ele>
        <time>2015-09-27T08:16:59Z</time>
      </trkpt>
      <trkpt lat="45.04453" lon="1.31518">
        <ele>171</ele>
        <time>2015-09-27T08:17:02Z</time>
      </trkpt>
      <trkpt lat="45.04453" lon="1.31539">
        <ele>171</ele>
        <time>2015-09-27T08:17:06Z</time>
      </trkpt>
      <trkpt lat="45.04454" lon="1.31554">
        <ele>172</ele>
        <time>2015-09-27T08:17:09Z</time>
      </trkpt>
      <trkpt lat="45.04454" lon="1.31584">
        <ele>173</ele>
        <time>2015-09-27T08:17:15Z</time>
      </trkpt>
      <trkpt lat="45.04453" lon="1.31603">
        <ele>174</ele>
        <time>2015-09-27T08:17:19Z</time>
      </trkpt>
      <trkpt lat="45.04436" lon="1.31616">
        <ele>175</ele>
        <time>2015-09-27T08:17:25Z</time>
      </trkpt>
      <trkpt lat="45.04408" lon="1.31623">
        <ele>176</ele>
        <time>2015-09-27T08:17:32Z</time>
      </trkpt>
      <trkpt lat="45.04368" lon="1.31633">
        <ele>178</ele>
        <time>2015-09-27T08:17:41Z</time>
      </trkpt>
      <trkpt lat="45.04354" lon="1.31635">
        <ele>178</ele>
        <time>2015-09-27T08:17:44Z</time>
      </trkpt>
      <trkpt lat="45.04336" lon="1.31636">
        <ele>179</ele>
        <time>2015-09-27T08:17:48Z</time>
      </trkpt>
      <trkpt lat="45.04319" lon="1.31637">
        <ele>180</ele>
        <time>2015-09-27T08:17:52Z</time>
      </trkpt>
      <trkpt lat="45.04303" lon="1.31638">
        <ele>181</ele>
        <time>2015-09-27T08:17:56Z</time>
      </trkpt>
      <trkpt lat="45.04292" lon="1.31638">
        <ele>182</ele>
        <time>2015-09-27T08:17:59Z</time>
      </trkpt>
      <trkpt lat="45.0428" lon="1.31638">
        <ele>183</ele>
        <time>2015-09-27T08:18:02Z</time>
      </trkpt>
      <trkpt lat="45.04269" lon="1.31636">
        <ele>184</ele>
        <time>2015-09-27T08:18:05Z</time>
      </trkpt>
      <trkpt lat="45.04258" lon="1.31633">
        <ele>186</ele>
        <time>2015-09-27T08:18:08Z</time>
      </trkpt>
      <trkpt lat="45.04244" lon="1.31628">
        <ele>188</ele>
        <time>2015-09-27T08:18:12Z</time>
      </trkpt>
      <trkpt lat="45.04235" lon="1.31615">
        <ele>190</ele>
        <time>2015-09-27T08:18:16Z</time>
      </trkpt>
      <trkpt lat="45.04229" lon="1.31599">
        <ele>192</ele>
        <time>2015-09-27T08:18:20Z</time>
      </trkpt>
      <trkpt lat="45.04226" lon="1.31586">
        <ele>194</ele>
        <time>2015-09-27T08:18:23Z</time>
      </trkpt>
      <trkpt lat="45.04224" lon="1.31573">
        <ele>195</ele>
        <time>2015-09-27T08:18:26Z</time>
      </trkpt>
      <trkpt lat="45.04223" lon="1.31558">
        <ele>197</ele>
        <time>2015-09-27T08:18:29Z</time>
      </trkpt>
      <trkpt lat="45.0422" lon="1.31547">
        <ele>198</ele>
        <time>2015-09-27T08:18:32Z</time>
      </trkpt>
      <trkpt lat="45.04212" lon="1.31552">
        <ele>200</ele>
        <time>2015-09-27T08:18:35Z</time>
      </trkpt>
      <trkpt lat="45.04204" lon="1.3156">
        <ele>201</ele>
        <time>2015-09-27T08:18:38Z</time>
      </trkpt>
      <trkpt lat="45.04196" lon="1.31568">
        <ele>202</ele>
        <time>2015-09-27T08:18:41Z</time>
      </trkpt>
      <trkpt lat="45.04189" lon="1.31581">
        <ele>204</ele>
        <time>2015-09-27T08:18:45Z</time>
      </trkpt>
      <trkpt lat="45.04191" lon="1.316">
        <ele>206</ele>
        <time>2015-09-27T08:18:49Z</time>
      </trkpt>
      <trkpt lat="45.04206" lon="1.31649">
        <ele>207</ele>
        <time>2015-09-27T08:18:58Z</time>
      </trkpt>
      <trkpt lat="45.04214" lon="1.31687">
        <ele>207</ele>
        <time>2015-09-27T08:19:04Z</time>
      </trkpt>
      <trkpt lat="45.04219" lon="1.3173">
        <ele>206</ele>
        <time>2015-09-27T08:19:09Z</time>
      </trkpt>
      <trkpt lat="45.04215" lon="1.31766">
        <ele>208</ele>
        <time>2015-09-27T08:19:14Z</time>
      </trkpt>
      <trkpt lat="45.0421" lon="1.31788">
        <ele>209</ele>
        <time>2015-09-27T08:19:18Z</time>
      </trkpt>
      <trkpt lat="45.04208" lon="1.31804">
        <ele>211</ele>
        <time>2015-09-27T08:19:21Z</time>
      </trkpt>
      <trkpt lat="45.04208" lon="1.31816">
        <ele>212</ele>
        <time>2015-09-27T08:19:24Z</time>
      </trkpt>
      <trkpt lat="45.04209" lon="1.31827">
        <ele>213</ele>
        <time>2015-09-27T08:19:27Z</time>
      </trkpt>
      <trkpt lat="45.04203" lon="1.31836">
        <ele>214</ele>
        <time>2015-09-27T08:19:30Z</time>
      </trkpt>
      <trkpt lat="45.04194" lon="1.31836">
        <ele>215</ele>
        <time>2015-09-27T08:19:33Z</time>
      </trkpt>
      <trkpt lat="45.04184" lon="1.31838">
        <ele>215</ele>
        <time>2015-09-27T08:19:36Z</time>
      </trkpt>
      <trkpt lat="45.04175" lon="1.31861">
        <ele>216</ele>
        <time>2015-09-27T08:19:42Z</time>
      </trkpt>
      <trkpt lat="45.04169" lon="1.31888">
        <ele>216</ele>
        <time>2015-09-27T08:19:47Z</time>
      </trkpt>
      <trkpt lat="45.04163" lon="1.31908">
        <ele>216</ele>
        <time>2015-09-27T08:19:51Z</time>
      </trkpt>
      <trkpt lat="45.04156" lon="1.31924">
        <ele>217</ele>
        <time>2015-09-27T08:19:55Z</time>
      </trkpt>
      <trkpt lat="45.0415" lon="1.31938">
        <ele>217</ele>
        <time>2015-09-27T08:19:58Z</time>
      </trkpt>
      <trkpt lat="45.04143" lon="1.31952">
        <ele>218</ele>
        <time>2015-09-27T08:20:01Z</time>
      </trkpt>
      <trkpt lat="45.04134" lon="1.31971">
        <ele>218</ele>
        <time>2015-09-27T08:20:05Z</time>
      </trkpt>
      <trkpt lat="45.04124" lon="1.31995">
        <ele>218</ele>
        <time>2015-09-27T08:20:10Z</time>
      </trkpt>
      <trkpt lat="45.04127" lon="1.31999">
        <ele>218</ele>
        <time>2015-09-27T08:20:13Z</time>
      </trkpt>
      <trkpt lat="45.0413" lon="1.32009">
        <ele>217</ele>
        <time>2015-09-27T08:20:16Z</time>
      </trkpt>
      <trkpt lat="45.04133" lon="1.32029">
        <ele>215</ele>
        <time>2015-09-27T08:20:19Z</time>
      </trkpt>
      <trkpt lat="45.04133" lon="1.32055">
        <ele>213</ele>
        <time>2015-09-27T08:20:22Z</time>
      </trkpt>
      <trkpt lat="45.04124" lon="1.32094">
        <ele>211</ele>
        <time>2015-09-27T08:20:26Z</time>
      </trkpt>
      <trkpt lat="45.04113" lon="1.32135">
        <ele>210</ele>
        <time>2015-09-27T08:20:29Z</time>
      </trkpt>
      <trkpt lat="45.04107" lon="1.32206">
        <ele>209</ele>
        <time>2015-09-27T08:20:34Z</time>
      </trkpt>
      <trkpt lat="45.04106" lon="1.32242">
        <ele>209</ele>
        <time>2015-09-27T08:20:37Z</time>
      </trkpt>
      <trkpt lat="45.04105" lon="1.32272">
        <ele>210</ele>
        <time>2015-09-27T08:20:40Z</time>
      </trkpt>
      <trkpt lat="45.04104" lon="1.32296">
        <ele>211</ele>
        <time>2015-09-27T08:20:43Z</time>
      </trkpt>
      <trkpt lat="45.04104" lon="1.32324">
        <ele>211</ele>
        <time>2015-09-27T08:20:47Z</time>
      </trkpt>
      <trkpt lat="45.04107" lon="1.32343">
        <ele>212</ele>
        <time>2015-09-27T08:20:50Z</time>
      </trkpt>
      <trkpt lat="45.04112" lon="1.32388">
        <ele>212</ele>
        <time>2015-09-27T08:20:57Z</time>
      </trkpt>
      <trkpt lat="45.04112" lon="1.32416">
        <ele>210</ele>
        <time>2015-09-27T08:21:01Z</time>
      </trkpt>
      <trkpt lat="45.04108" lon="1.32453">
        <ele>209</ele>
        <time>2015-09-27T08:21:05Z</time>
      </trkpt>
      <trkpt lat="45.04107" lon="1.32482">
        <ele>208</ele>
        <time>2015-09-27T08:21:08Z</time>
      </trkpt>
      <trkpt lat="45.04107" lon="1.32508">
        <ele>208</ele>
        <time>2015-09-27T08:21:11Z</time>
      </trkpt>
      <trkpt lat="45.04105" lon="1.3254">
        <ele>206</ele>
        <time>2015-09-27T08:21:15Z</time>
      </trkpt>
      <trkpt lat="45.04114" lon="1.32564">
        <ele>204</ele>
        <time>2015-09-27T08:21:18Z</time>
      </trkpt>
      <trkpt lat="45.04131" lon="1.32586">
        <ele>202</ele>
        <time>2015-09-27T08:21:21Z</time>
      </trkpt>
      <trkpt lat="45.04151" lon="1.32613">
        <ele>198</ele>
        <time>2015-09-27T08:21:24Z</time>
      </trkpt>
      <trkpt lat="45.04166" lon="1.32634">
        <ele>195</ele>
        <time>2015-09-27T08:21:28Z</time>
      </trkpt>
      <trkpt lat="45.04159" lon="1.32656">
        <ele>194</ele>
        <time>2015-09-27T08:21:32Z</time>
      </trkpt>
      <trkpt lat="45.04146" lon="1.32681">
        <ele>195</ele>
        <time>2015-09-27T08:21:36Z</time>
      </trkpt>
      <trkpt lat="45.04123" lon="1.32724">
        <ele>195</ele>
        <time>2015-09-27T08:21:43Z</time>
      </trkpt>
      <trkpt lat="45.04111" lon="1.32741">
        <ele>195</ele>
        <time>2015-09-27T08:21:46Z</time>
      </trkpt>
      <trkpt lat="45.04096" lon="1.32758">
        <ele>194</ele>
        <time>2015-09-27T08:21:49Z</time>
      </trkpt>
      <trkpt lat="45.04075" lon="1.32785">
        <ele>193</ele>
        <time>2015-09-27T08:21:53Z</time>
      </trkpt>
      <trkpt lat="45.04057" lon="1.32831">
        <ele>193</ele>
        <time>2015-09-27T08:21:58Z</time>
      </trkpt>
      <trkpt lat="45.04038" lon="1.32888">
        <ele>194</ele>
        <time>2015-09-27T08:22:05Z</time>
      </trkpt>
      <trkpt lat="45.04027" lon="1.32916">
        <ele>195</ele>
        <time>2015-09-27T08:22:09Z</time>
      </trkpt>
      <trkpt lat="45.04017" lon="1.32934">
        <ele>196</ele>
        <time>2015-09-27T08:22:12Z</time>
      </trkpt>
      <trkpt lat="45.04002" lon="1.32955">
        <ele>197</ele>
        <time>2015-09-27T08:22:16Z</time>
      </trkpt>
      <trkpt lat="45.03992" lon="1.32969">
        <ele>198</ele>
        <time>2015-09-27T08:22:19Z</time>
      </trkpt>
      <trkpt lat="45.03974" lon="1.32991">
        <ele>199</ele>
        <time>2015-09-27T08:22:24Z</time>
      </trkpt>
      <trkpt lat="45.03959" lon="1.3303">
        <ele>200</ele>
        <time>2015-09-27T08:22:30Z</time>
      </trkpt>
      <trkpt lat="45.03959" lon="1.33063">
        <ele>199</ele>
        <time>2015-09-27T08:22:34Z</time>
      </trkpt>
      <trkpt lat="45.03962" lon="1.33088">
        <ele>199</ele>
        <time>2015-09-27T08:22:37Z</time>
      </trkpt>
      <trkpt lat="45.03966" lon="1.33115">
        <ele>198</ele>
        <time>2015-09-27T08:22:40Z</time>
      </trkpt>
      <trkpt lat="45.03969" lon="1.33144">
        <ele>197</ele>
        <time>2015-09-27T08:22:43Z</time>
      </trkpt>
      <trkpt lat="45.03968" lon="1.33173">
        <ele>196</ele>
        <time>2015-09-27T08:22:46Z</time>
      </trkpt>
      <trkpt lat="45.03954" lon="1.3321">
        <ele>196</ele>
        <time>2015-09-27T08:22:50Z</time>
      </trkpt>
      <trkpt lat="45.03933" lon="1.33229">
        <ele>195</ele>
        <time>2015-09-27T08:22:53Z</time>
      </trkpt>
      <trkpt lat="45.03909" lon="1.33239">
        <ele>193</ele>
        <time>2015-09-27T08:22:56Z</time>
      </trkpt>
      <trkpt lat="45.03873" lon="1.33247">
        <ele>191</ele>
        <time>2015-09-27T08:23:00Z</time>
      </trkpt>
      <trkpt lat="45.03838" lon="1.33251">
        <ele>189</ele>
        <time>2015-09-27T08:23:04Z</time>
      </trkpt>
      <trkpt lat="45.03805" lon="1.33266">
        <ele>188</ele>
        <time>2015-09-27T08:23:08Z</time>
      </trkpt>
      <trkpt lat="45.03788" lon="1.33293">
        <ele>188</ele>
        <time>2015-09-27T08:23:11Z</time>
      </trkpt>
      <trkpt lat="45.03765" lon="1.33343">
        <ele>187</ele>
        <time>2015-09-27T08:23:16Z</time>
      </trkpt>
      <trkpt lat="45.03747" lon="1.33385">
        <ele>187</ele>
        <time>2015-09-27T08:23:20Z</time>
      </trkpt>
      <trkpt lat="45.03731" lon="1.33427">
        <ele>187</ele>
        <time>2015-09-27T08:23:24Z</time>
      </trkpt>
      <trkpt lat="45.03722" lon="1.33459">
        <ele>187</ele>
        <time>2015-09-27T08:23:27Z</time>
      </trkpt>
      <trkpt lat="45.03716" lon="1.33491">
        <ele>188</ele>
        <time>2015-09-27T08:23:30Z</time>
      </trkpt>
      <trkpt lat="45.03703" lon="1.33538">
        <ele>188</ele>
        <time>2015-09-27T08:23:35Z</time>
      </trkpt>
      <trkpt lat="45.03688" lon="1.33578">
        <ele>188</ele>
        <time>2015-09-27T08:23:40Z</time>
      </trkpt>
      <trkpt lat="45.03681" lon="1.33609">
        <ele>188</ele>
        <time>2015-09-27T08:23:44Z</time>
      </trkpt>
      <trkpt lat="45.03689" lon="1.33642">
        <ele>188</ele>
        <time>2015-09-27T08:23:49Z</time>
      </trkpt>
      <trkpt lat="45.03701" lon="1.33673">
        <ele>188</ele>
        <time>2015-09-27T08:23:53Z</time>
      </trkpt>
      <trkpt lat="45.03704" lon="1.33714">
        <ele>187</ele>
        <time>2015-09-27T08:23:57Z</time>
      </trkpt>
      <trkpt lat="45.03696" lon="1.33758">
        <ele>186</ele>
        <time>2015-09-27T08:24:01Z</time>
      </trkpt>
      <trkpt lat="45.03679" lon="1.33824">
        <ele>184</ele>
        <time>2015-09-27T08:24:07Z</time>
      </trkpt>
      <trkpt lat="45.03666" lon="1.33856">
        <ele>183</ele>
        <time>2015-09-27T08:24:10Z</time>
      </trkpt>
      <trkpt lat="45.03645" lon="1.33895">
        <ele>182</ele>
        <time>2015-09-27T08:24:14Z</time>
      </trkpt>
      <trkpt lat="45.03632" lon="1.33927">
        <ele>181</ele>
        <time>2015-09-27T08:24:17Z</time>
      </trkpt>
      <trkpt lat="45.03628" lon="1.33969">
        <ele>179</ele>
        <time>2015-09-27T08:24:21Z</time>
      </trkpt>
      <trkpt lat="45.0363" lon="1.33989">
        <ele>179</ele>
        <time>2015-09-27T08:24:24Z</time>
      </trkpt>
      <trkpt lat="45.03636" lon="1.3399">
        <ele>179</ele>
        <time>2015-09-27T08:24:27Z</time>
      </trkpt>
      <trkpt lat="45.03646" lon="1.33978">
        <ele>179</ele>
        <time>2015-09-27T08:24:31Z</time>
      </trkpt>
      <trkpt lat="45.03659" lon="1.33964">
        <ele>178</ele>
        <time>2015-09-27T08:24:34Z</time>
      </trkpt>
      <trkpt lat="45.03683" lon="1.3395">
        <ele>178</ele>
        <time>2015-09-27T08:24:38Z</time>
      </trkpt>
      <trkpt lat="45.03708" lon="1.33939">
        <ele>178</ele>
        <time>2015-09-27T08:24:42Z</time>
      </trkpt>
      <trkpt lat="45.03738" lon="1.33924">
        <ele>177</ele>
        <time>2015-09-27T08:24:47Z</time>
      </trkpt>
      <trkpt lat="45.03757" lon="1.33903">
        <ele>176</ele>
        <time>2015-09-27T08:24:51Z</time>
      </trkpt>
      <trkpt lat="45.03775" lon="1.33869">
        <ele>173</ele>
        <time>2015-09-27T08:24:55Z</time>
      </trkpt>
      <trkpt lat="45.03787" lon="1.33838">
        <ele>172</ele>
        <time>2015-09-27T08:24:58Z</time>
      </trkpt>
      <trkpt lat="45.0381" lon="1.3379">
        <ele>171</ele>
        <time>2015-09-27T08:25:03Z</time>
      </trkpt>
      <trkpt lat="45.03841" lon="1.33744">
        <ele>168</ele>
        <time>2015-09-27T08:25:09Z</time>
      </trkpt>
      <trkpt lat="45.03865" lon="1.33722">
        <ele>166</ele>
        <time>2015-09-27T08:25:13Z</time>
      </trkpt>
      <trkpt lat="45.03882" lon="1.33704">
        <ele>165</ele>
        <time>2015-09-27T08:25:16Z</time>
      </trkpt>
      <trkpt lat="45.03902" lon="1.33674">
        <ele>164</ele>
        <time>2015-09-27T08:25:20Z</time>
      </trkpt>
      <trkpt lat="45.03913" lon="1.3365">
        <ele>163</ele>
        <time>2015-09-27T08:25:23Z</time>
      </trkpt>
      <trkpt lat="45.03922" lon="1.33624">
        <ele>162</ele>
        <time>2015-09-27T08:25:26Z</time>
      </trkpt>
      <trkpt lat="45.03945" lon="1.33595">
        <ele>161</ele>
        <time>2015-09-27T08:25:30Z</time>
      </trkpt>
      <trkpt lat="45.03963" lon="1.33576">
        <ele>161</ele>
        <time>2015-09-27T08:25:33Z</time>
      </trkpt>
      <trkpt lat="45.03987" lon="1.33552">
        <ele>160</ele>
        <time>2015-09-27T08:25:37Z</time>
      </trkpt>
      <trkpt lat="45.04003" lon="1.3354">
        <ele>158</ele>
        <time>2015-09-27T08:25:40Z</time>
      </trkpt>
      <trkpt lat="45.04016" lon="1.33525">
        <ele>158</ele>
        <time>2015-09-27T08:25:43Z</time>
      </trkpt>
      <trkpt lat="45.04036" lon="1.33502">
        <ele>157</ele>
        <time>2015-09-27T08:25:47Z</time>
      </trkpt>
      <trkpt lat="45.04052" lon="1.33488">
        <ele>156</ele>
        <time>2015-09-27T08:25:50Z</time>
      </trkpt>
      <trkpt lat="45.04076" lon="1.33477">
        <ele>154</ele>
        <time>2015-09-27T08:25:53Z</time>
      </trkpt>
      <trkpt lat="45.04125" lon="1.33456">
        <ele>153</ele>
        <time>2015-09-27T08:25:59Z</time>
      </trkpt>
      <trkpt lat="45.0415" lon="1.33447">
        <ele>152</ele>
        <time>2015-09-27T08:26:02Z</time>
      </trkpt>
      <trkpt lat="45.04174" lon="1.33441">
        <ele>152</ele>
        <time>2015-09-27T08:26:05Z</time>
      </trkpt>
      <trkpt lat="45.04198" lon="1.33444">
        <ele>149</ele>
        <time>2015-09-27T08:26:08Z</time>
      </trkpt>
      <trkpt lat="45.04226" lon="1.33451">
        <ele>145</ele>
        <time>2015-09-27T08:26:11Z</time>
      </trkpt>
      <trkpt lat="45.04255" lon="1.3346">
        <ele>141</ele>
        <time>2015-09-27T08:26:14Z</time>
      </trkpt>
      <trkpt lat="45.04284" lon="1.33473">
        <ele>137</ele>
        <time>2015-09-27T08:26:17Z</time>
      </trkpt>
      <trkpt lat="45.04325" lon="1.3348">
        <ele>135</ele>
        <time>2015-09-27T08:26:21Z</time>
      </trkpt>
      <trkpt lat="45.04353" lon="1.33477">
        <ele>133</ele>
        <time>2015-09-27T08:26:24Z</time>
      </trkpt>
      <trkpt lat="45.04378" lon="1.33466">
        <ele>131</ele>
        <time>2015-09-27T08:26:27Z</time>
      </trkpt>
      <trkpt lat="45.04411" lon="1.33455">
        <ele>130</ele>
        <time>2015-09-27T08:26:31Z</time>
      </trkpt>
      <trkpt lat="45.04444" lon="1.33446">
        <ele>129</ele>
        <time>2015-09-27T08:26:35Z</time>
      </trkpt>
      <trkpt lat="45.0448" lon="1.33436">
        <ele>127</ele>
        <time>2015-09-27T08:26:39Z</time>
      </trkpt>
      <trkpt lat="45.04534" lon="1.33422">
        <ele>125</ele>
        <time>2015-09-27T08:26:45Z</time>
      </trkpt>
      <trkpt lat="45.04564" lon="1.33424">
        <ele>124</ele>
        <time>2015-09-27T08:26:49Z</time>
      </trkpt>
      <trkpt lat="45.04602" lon="1.33416">
        <ele>123</ele>
        <time>2015-09-27T08:26:54Z</time>
      </trkpt>
      <trkpt lat="45.04634" lon="1.33396">
        <ele>121</ele>
        <time>2015-09-27T08:26:59Z</time>
      </trkpt>
      <trkpt lat="45.04658" lon="1.33377">
        <ele>120</ele>
        <time>2015-09-27T08:27:03Z</time>
      </trkpt>
      <trkpt lat="45.04674" lon="1.33361">
        <ele>119</ele>
        <time>2015-09-27T08:27:06Z</time>
      </trkpt>
      <trkpt lat="45.04692" lon="1.33352">
        <ele>118</ele>
        <time>2015-09-27T08:27:09Z</time>
      </trkpt>
      <trkpt lat="45.04727" lon="1.33341">
        <ele>117</ele>
        <time>2015-09-27T08:27:15Z</time>
      </trkpt>
      <trkpt lat="45.04745" lon="1.33339">
        <ele>117</ele>
        <time>2015-09-27T08:27:18Z</time>
      </trkpt>
      <trkpt lat="45.04764" lon="1.33335">
        <ele>116</ele>
        <time>2015-09-27T08:27:21Z</time>
      </trkpt>
      <trkpt lat="45.0479" lon="1.33327">
        <ele>116</ele>
        <time>2015-09-27T08:27:25Z</time>
      </trkpt>
      <trkpt lat="45.04809" lon="1.33323">
        <ele>115</ele>
        <time>2015-09-27T08:27:28Z</time>
      </trkpt>
      <trkpt lat="45.04842" lon="1.33321">
        <ele>113</ele>
        <time>2015-09-27T08:27:33Z</time>
      </trkpt>
      <trkpt lat="45.04868" lon="1.33325">
        <ele>113</ele>
        <time>2015-09-27T08:27:37Z</time>
      </trkpt>
      <trkpt lat="45.04882" lon="1.33324">
        <ele>113</ele>
        <time>2015-09-27T08:27:40Z</time>
      </trkpt>
      <trkpt lat="45.04898" lon="1.33328">
        <ele>113</ele>
        <time>2015-09-27T08:27:43Z</time>
      </trkpt>
      <trkpt lat="45.04914" lon="1.33332">
        <ele>113</ele>
        <time>2015-09-27T08:27:46Z</time>
      </trkpt>
      <trkpt lat="45.04931" lon="1.33333">
        <ele>112</ele>
        <time>2015-09-27T08:27:49Z</time>
      </trkpt>
      <trkpt lat="45.04951" lon="1.33332">
        <ele>112</ele>
        <time>2015-09-27T08:27:54Z</time>
      </trkpt>
      <trkpt lat="45.04971" lon="1.33321">
        <ele>112</ele>
        <time>2015-09-27T08:27:58Z</time>
      </trkpt>
      <trkpt lat="45.04997" lon="1.33297">
        <ele>111</ele>
        <time>2015-09-27T08:28:03Z</time>
      </trkpt>
      <trkpt lat="45.05014" lon="1.33284">
        <ele>110</ele>
        <time>2015-09-27T08:28:06Z</time>
      </trkpt>
      <trkpt lat="45.05041" lon="1.33273">
        <ele>110</ele>
        <time>2015-09-27T08:28:10Z</time>
      </trkpt>
      <trkpt lat="45.05074" lon="1.33263">
        <ele>110</ele>
        <time>2015-09-27T08:28:16Z</time>
      </trkpt>
      <trkpt lat="45.05079" lon="1.33249">
        <ele>111</ele>
        <time>2015-09-27T08:28:19Z</time>
      </trkpt>
      <trkpt lat="45.05069" lon="1.3323">
        <ele>112</ele>
        <time>2015-09-27T08:28:23Z</time>
      </trkpt>
      <trkpt lat="45.05054" lon="1.33206">
        <ele>113</ele>
        <time>2015-09-27T08:28:29Z</time>
      </trkpt>
      <trkpt lat="45.05048" lon="1.33192">
        <ele>113</ele>
        <time>2015-09-27T08:28:32Z</time>
      </trkpt>
      <trkpt lat="45.05043" lon="1.33179">
        <ele>114</ele>
        <time>2015-09-27T08:28:35Z</time>
      </trkpt>
      <trkpt lat="45.05038" lon="1.33165">
        <ele>115</ele>
        <time>2015-09-27T08:28:38Z</time>
      </trkpt>
      <trkpt lat="45.0503" lon="1.3315">
        <ele>116</ele>
        <time>2015-09-27T08:28:41Z</time>
      </trkpt>
      <trkpt lat="45.05017" lon="1.3313">
        <ele>117</ele>
        <time>2015-09-27T08:28:46Z</time>
      </trkpt>
      <trkpt lat="45.05004" lon="1.33115">
        <ele>118</ele>
        <time>2015-09-27T08:28:51Z</time>
      </trkpt>
      <trkpt lat="45.04993" lon="1.33105">
        <ele>119</ele>
        <time>2015-09-27T08:28:55Z</time>
      </trkpt>
      <trkpt lat="45.04983" lon="1.33098">
        <ele>120</ele>
        <time>2015-09-27T08:28:59Z</time>
      </trkpt>
      <trkpt lat="45.04973" lon="1.33089">
        <ele>122</ele>
        <time>2015-09-27T08:29:03Z</time>
      </trkpt>
      <trkpt lat="45.04967" lon="1.33084">
        <ele>123</ele>
        <time>2015-09-27T08:29:06Z</time>
      </trkpt>
      <trkpt lat="45.04958" lon="1.3308">
        <ele>124</ele>
        <time>2015-09-27T08:29:10Z</time>
      </trkpt>
      <trkpt lat="45.04952" lon="1.33077">
        <ele>125</ele>
        <time>2015-09-27T08:29:13Z</time>
      </trkpt>
      <trkpt lat="45.04946" lon="1.33076">
        <ele>125</ele>
        <time>2015-09-27T08:29:16Z</time>
      </trkpt>
      <trkpt lat="45.04931" lon="1.33071">
        <ele>127</ele>
        <time>2015-09-27T08:29:23Z</time>
      </trkpt>
      <trkpt lat="45.04922" lon="1.33069">
        <ele>128</ele>
        <time>2015-09-27T08:29:27Z</time>
      </trkpt>
      <trkpt lat="45.04918" lon="1.33067">
        <ele>130</ele>
        <time>2015-09-27T08:29:30Z</time>
      </trkpt>
      <trkpt lat="45.04913" lon="1.33064">
        <ele>130</ele>
        <time>2015-09-27T08:29:33Z</time>
      </trkpt>
      <trkpt lat="45.04904" lon="1.33057">
        <ele>132</ele>
        <time>2015-09-27T08:29:38Z</time>
      </trkpt>
      <trkpt lat="45.04897" lon="1.33052">
        <ele>133</ele>
        <time>2015-09-27T08:29:42Z</time>
      </trkpt>
      <trkpt lat="45.04891" lon="1.33049">
        <ele>134</ele>
        <time>2015-09-27T08:29:45Z</time>
      </trkpt>
      <trkpt lat="45.04883" lon="1.33051">
        <ele>135</ele>
        <time>2015-09-27T08:29:49Z</time>
      </trkpt>
      <trkpt lat="45.04877" lon="1.33054">
        <ele>137</ele>
        <time>2015-09-27T08:29:53Z</time>
      </trkpt>
      <trkpt lat="45.04872" lon="1.33056">
        <ele>138</ele>
        <time>2015-09-27T08:29:56Z</time>
      </trkpt>
      <trkpt lat="45.04866" lon="1.33057">
        <ele>138</ele>
        <time>2015-09-27T08:29:59Z</time>
      </trkpt>
      <trkpt lat="45.04857" lon="1.33056">
        <ele>140</ele>
        <time>2015-09-27T08:30:04Z</time>
      </trkpt>
      <trkpt lat="45.04848" lon="1.33052">
        <ele>141</ele>
        <time>2015-09-27T08:30:09Z</time>
      </trkpt>
      <trkpt lat="45.04842" lon="1.33049">
        <ele>142</ele>
        <time>2015-09-27T08:30:12Z</time>
      </trkpt>
      <trkpt lat="45.04836" lon="1.33042">
        <ele>143</ele>
        <time>2015-09-27T08:30:17Z</time>
      </trkpt>
      <trkpt lat="45.04832" lon="1.33029">
        <ele>145</ele>
        <time>2015-09-27T08:30:23Z</time>
      </trkpt>
      <trkpt lat="45.04833" lon="1.33021">
        <ele>145</ele>
        <time>2015-09-27T08:30:26Z</time>
      </trkpt>
      <trkpt lat="45.04838" lon="1.33012">
        <ele>146</ele>
        <time>2015-09-27T08:30:30Z</time>
      </trkpt>
      <trkpt lat="45.04848" lon="1.32999">
        <ele>147</ele>
        <time>2015-09-27T08:30:37Z</time>
      </trkpt>
      <trkpt lat="45.04857" lon="1.32988">
        <ele>148</ele>
        <time>2015-09-27T08:30:41Z</time>
      </trkpt>
      <trkpt lat="45.04862" lon="1.32978">
        <ele>149</ele>
        <time>2015-09-27T08:30:44Z</time>
      </trkpt>
      <trkpt lat="45.04866" lon="1.32968">
        <ele>150</ele>
        <time>2015-09-27T08:30:47Z</time>
      </trkpt>
      <trkpt lat="45.04874" lon="1.32951">
        <ele>152</ele>
        <time>2015-09-27T08:30:52Z</time>
      </trkpt>
      <trkpt lat="45.04883" lon="1.32934">
        <ele>153</ele>
        <time>2015-09-27T08:30:57Z</time>
      </trkpt>
      <trkpt lat="45.04893" lon="1.32921">
        <ele>154</ele>
        <time>2015-09-27T08:31:02Z</time>
      </trkpt>
      <trkpt lat="45.04902" lon="1.32913">
        <ele>155</ele>
        <time>2015-09-27T08:31:06Z</time>
      </trkpt>
      <trkpt lat="45.0491" lon="1.32904">
        <ele>157</ele>
        <time>2015-09-27T08:31:10Z</time>
      </trkpt>
      <trkpt lat="45.04919" lon="1.32895">
        <ele>158</ele>
        <time>2015-09-27T08:31:14Z</time>
      </trkpt>
      <trkpt lat="45.04926" lon="1.3289">
        <ele>159</ele>
        <time>2015-09-27T08:31:17Z</time>
      </trkpt>
      <trkpt lat="45.04938" lon="1.32882">
        <ele>160</ele>
        <time>2015-09-27T08:31:22Z</time>
      </trkpt>
      <trkpt lat="45.04945" lon="1.32877">
        <ele>161</ele>
        <time>2015-09-27T08:31:25Z</time>
      </trkpt>
      <trkpt lat="45.04953" lon="1.32868">
        <ele>162</ele>
        <time>2015-09-27T08:31:29Z</time>
      </trkpt>
      <trkpt lat="45.04958" lon="1.3286">
        <ele>163</ele>
        <time>2015-09-27T08:31:32Z</time>
      </trkpt>
      <trkpt lat="45.04967" lon="1.32863">
        <ele>164</ele>
        <time>2015-09-27T08:31:36Z</time>
      </trkpt>
      <trkpt lat="45.04971" lon="1.32886">
        <ele>162</ele>
        <time>2015-09-27T08:31:39Z</time>
      </trkpt>
      <trkpt lat="45.04974" lon="1.32927">
        <ele>159</ele>
        <time>2015-09-27T08:31:43Z</time>
      </trkpt>
      <trkpt lat="45.04981" lon="1.3296">
        <ele>155</ele>
        <time>2015-09-27T08:31:46Z</time>
      </trkpt>
      <trkpt lat="45.05002" lon="1.32994">
        <ele>152</ele>
        <time>2015-09-27T08:31:50Z</time>
      </trkpt>
      <trkpt lat="45.05021" lon="1.33004">
        <ele>152</ele>
        <time>2015-09-27T08:31:53Z</time>
      </trkpt>
      <trkpt lat="45.05056" lon="1.33013">
        <ele>152</ele>
        <time>2015-09-27T08:31:59Z</time>
      </trkpt>
      <trkpt lat="45.05088" lon="1.33035">
        <ele>152</ele>
        <time>2015-09-27T08:32:05Z</time>
      </trkpt>
      <trkpt lat="45.05104" lon="1.3305">
        <ele>151</ele>
        <time>2015-09-27T08:32:08Z</time>
      </trkpt>
      <trkpt lat="45.05121" lon="1.33074">
        <ele>151</ele>
        <time>2015-09-27T08:32:12Z</time>
      </trkpt>
      <trkpt lat="45.05137" lon="1.33086">
        <ele>151</ele>
        <time>2015-09-27T08:32:15Z</time>
      </trkpt>
      <trkpt lat="45.0516" lon="1.33102">
        <ele>150</ele>
        <time>2015-09-27T08:32:19Z</time>
      </trkpt>
      <trkpt lat="45.05178" lon="1.33104">
        <ele>149</ele>
        <time>2015-09-27T08:32:22Z</time>
      </trkpt>
      <trkpt lat="45.05211" lon="1.33089">
        <ele>147</ele>
        <time>2015-09-27T08:32:27Z</time>
      </trkpt>
      <trkpt lat="45.05228" lon="1.33072">
        <ele>147</ele>
        <time>2015-09-27T08:32:30Z</time>
      </trkpt>
      <trkpt lat="45.05239" lon="1.3305">
        <ele>144</ele>
        <time>2015-09-27T08:32:33Z</time>
      </trkpt>
      <trkpt lat="45.05218" lon="1.3301">
        <ele>142</ele>
        <time>2015-09-27T08:32:38Z</time>
      </trkpt>
      <trkpt lat="45.05197" lon="1.32989">
        <ele>139</ele>
        <time>2015-09-27T08:32:41Z</time>
      </trkpt>
      <trkpt lat="45.0518" lon="1.3297">
        <ele>137</ele>
        <time>2015-09-27T08:32:44Z</time>
      </trkpt>
      <trkpt lat="45.05175" lon="1.32947">
        <ele>136</ele>
        <time>2015-09-27T08:32:47Z</time>
      </trkpt>
      <trkpt lat="45.05174" lon="1.32924">
        <ele>134</ele>
        <time>2015-09-27T08:32:50Z</time>
      </trkpt>
      <trkpt lat="45.05175" lon="1.32899">
        <ele>130</ele>
        <time>2015-09-27T08:32:53Z</time>
      </trkpt>
      <trkpt lat="45.05176" lon="1.32881">
        <ele>127</ele>
        <time>2015-09-27T08:32:56Z</time>
      </trkpt>
      <trkpt lat="45.05184" lon="1.32863">
        <ele>124</ele>
        <time>2015-09-27T08:32:59Z</time>
      </trkpt>
      <trkpt lat="45.05212" lon="1.3285">
        <ele>121</ele>
        <time>2015-09-27T08:33:03Z</time>
      </trkpt>
      <trkpt lat="45.05364" lon="1.32988">
        <ele>118</ele>
        <time>2015-09-27T08:33:06Z</time>
      </trkpt>
      <trkpt lat="45.05381" lon="1.33007">
        <ele>115</ele>
        <time>2015-09-27T08:33:09Z</time>
      </trkpt>
      <trkpt lat="45.05411" lon="1.33042">
        <ele>112</ele>
        <time>2015-09-27T08:33:13Z</time>
      </trkpt>
      <trkpt lat="45.05433" lon="1.33066">
        <ele>110</ele>
        <time>2015-09-27T08:33:16Z</time>
      </trkpt>
      <trkpt lat="45.05458" lon="1.3308">
        <ele>108</ele>
        <time>2015-09-27T08:33:19Z</time>
      </trkpt>
      <trkpt lat="45.05484" lon="1.33097">
        <ele>106</ele>
        <time>2015-09-27T08:33:22Z</time>
      </trkpt>
      <trkpt lat="45.055" lon="1.3311">
        <ele>104</ele>
        <time>2015-09-27T08:33:25Z</time>
      </trkpt>
      <trkpt lat="45.05515" lon="1.33105">
        <ele>102</ele>
        <time>2015-09-27T08:33:28Z</time>
      </trkpt>
      <trkpt lat="45.05531" lon="1.33096">
        <ele>101</ele>
        <time>2015-09-27T08:33:31Z</time>
      </trkpt>
      <trkpt lat="45.0555" lon="1.33088">
        <ele>101</ele>
        <time>2015-09-27T08:33:34Z</time>
      </trkpt>
      <trkpt lat="45.05571" lon="1.33081">
        <ele>101</ele>
        <time>2015-09-27T08:33:37Z</time>
      </trkpt>
      <trkpt lat="45.05599" lon="1.33068">
        <ele>100</ele>
        <time>2015-09-27T08:33:41Z</time>
      </trkpt>
      <trkpt lat="45.05619" lon="1.33057">
        <ele>100</ele>
        <time>2015-09-27T08:33:44Z</time>
      </trkpt>
      <trkpt lat="45.05643" lon="1.33039">
        <ele>99</ele>
        <time>2015-09-27T08:33:48Z</time>
      </trkpt>
      <trkpt lat="45.05664" lon="1.33034">
        <ele>100</ele>
        <time>2015-09-27T08:33:52Z</time>
      </trkpt>
      <trkpt lat="45.05676" lon="1.33048">
        <ele>99</ele>
        <time>2015-09-27T08:33:55Z</time>
      </trkpt>
      <trkpt lat="45.05689" lon="1.33056">
        <ele>98</ele>
        <time>2015-09-27T08:33:58Z</time>
      </trkpt>
      <trkpt lat="45.05729" lon="1.33069">
        <ele>97</ele>
        <time>2015-09-27T08:34:05Z</time>
      </trkpt>
      <trkpt lat="45.05745" lon="1.33081">
        <ele>97</ele>
        <time>2015-09-27T08:34:08Z</time>
      </trkpt>
      <trkpt lat="45.05768" lon="1.33097">
        <ele>97</ele>
        <time>2015-09-27T08:34:12Z</time>
      </trkpt>
      <trkpt lat="45.05789" lon="1.33117">
        <ele>96</ele>
        <time>2015-09-27T08:34:16Z</time>
      </trkpt>
      <trkpt lat="45.05807" lon="1.33127">
        <ele>96</ele>
        <time>2015-09-27T08:34:19Z</time>
      </trkpt>
      <trkpt lat="45.05824" lon="1.33135">
        <ele>95</ele>
        <time>2015-09-27T08:34:22Z</time>
      </trkpt>
      <trkpt lat="45.05847" lon="1.33142">
        <ele>95</ele>
        <time>2015-09-27T08:34:26Z</time>
      </trkpt>
      <trkpt lat="45.05886" lon="1.3315">
        <ele>94</ele>
        <time>2015-09-27T08:34:32Z</time>
      </trkpt>
      <trkpt lat="45.05915" lon="1.33172">
        <ele>94</ele>
        <time>2015-09-27T08:34:37Z</time>
      </trkpt>
      <trkpt lat="45.05938" lon="1.33191">
        <ele>93</ele>
        <time>2015-09-27T08:34:41Z</time>
      </trkpt>
      <trkpt lat="45.05959" lon="1.33215">
        <ele>92</ele>
        <time>2015-09-27T08:34:45Z</time>
      </trkpt>
      <trkpt lat="45.05975" lon="1.33242">
        <ele>92</ele>
        <time>2015-09-27T08:34:49Z</time>
      </trkpt>
      <trkpt lat="45.05975" lon="1.33271">
        <ele>93</ele>
        <time>2015-09-27T08:34:53Z</time>
      </trkpt>
      <trkpt lat="45.05969" lon="1.33287">
        <ele>94</ele>
        <time>2015-09-27T08:34:56Z</time>
      </trkpt>
      <trkpt lat="45.05944" lon="1.33319">
        <ele>94</ele>
        <time>2015-09-27T08:35:04Z</time>
      </trkpt>
      <trkpt lat="45.05927" lon="1.33349">
        <ele>95</ele>
        <time>2015-09-27T08:35:10Z</time>
      </trkpt>
      <trkpt lat="45.05904" lon="1.33391">
        <ele>95</ele>
        <time>2015-09-27T08:35:19Z</time>
      </trkpt>
      <trkpt lat="45.05895" lon="1.33422">
        <ele>95</ele>
        <time>2015-09-27T08:35:25Z</time>
      </trkpt>
      <trkpt lat="45.05893" lon="1.33441">
        <ele>96</ele>
        <time>2015-09-27T08:35:29Z</time>
      </trkpt>
      <trkpt lat="45.05893" lon="1.33456">
        <ele>96</ele>
        <time>2015-09-27T08:35:32Z</time>
      </trkpt>
      <trkpt lat="45.05897" lon="1.33498">
        <ele>95</ele>
        <time>2015-09-27T08:35:39Z</time>
      </trkpt>
      <trkpt lat="45.0591" lon="1.33532">
        <ele>96</ele>
        <time>2015-09-27T08:35:45Z</time>
      </trkpt>
      <trkpt lat="45.05922" lon="1.33565">
        <ele>97</ele>
        <time>2015-09-27T08:35:51Z</time>
      </trkpt>
      <trkpt lat="45.05927" lon="1.33591">
        <ele>97</ele>
        <time>2015-09-27T08:35:55Z</time>
      </trkpt>
      <trkpt lat="45.05928" lon="1.33612">
        <ele>97</ele>
        <time>2015-09-27T08:35:58Z</time>
      </trkpt>
      <trkpt lat="45.0593" lon="1.33634">
        <ele>97</ele>
        <time>2015-09-27T08:36:01Z</time>
      </trkpt>
      <trkpt lat="45.05937" lon="1.33655">
        <ele>98</ele>
        <time>2015-09-27T08:36:04Z</time>
      </trkpt>
      <trkpt lat="45.05947" lon="1.33692">
        <ele>99</ele>
        <time>2015-09-27T08:36:10Z</time>
      </trkpt>
      <trkpt lat="45.05949" lon="1.33711">
        <ele>99</ele>
        <time>2015-09-27T08:36:13Z</time>
      </trkpt>
      <trkpt lat="45.05951" lon="1.33738">
        <ele>99</ele>
        <time>2015-09-27T08:36:17Z</time>
      </trkpt>
      <trkpt lat="45.05951" lon="1.33758">
        <ele>100</ele>
        <time>2015-09-27T08:36:20Z</time>
      </trkpt>
      <trkpt lat="45.0595" lon="1.33778">
        <ele>102</ele>
        <time>2015-09-27T08:36:23Z</time>
      </trkpt>
      <trkpt lat="45.05947" lon="1.33796">
        <ele>103</ele>
        <time>2015-09-27T08:36:26Z</time>
      </trkpt>
      <trkpt lat="45.05941" lon="1.33813">
        <ele>104</ele>
        <time>2015-09-27T08:36:29Z</time>
      </trkpt>
      <trkpt lat="45.05933" lon="1.33836">
        <ele>104</ele>
        <time>2015-09-27T08:36:33Z</time>
      </trkpt>
      <trkpt lat="45.05925" lon="1.33861">
        <ele>105</ele>
        <time>2015-09-27T08:36:38Z</time>
      </trkpt>
      <trkpt lat="45.05914" lon="1.33891">
        <ele>105</ele>
        <time>2015-09-27T08:36:44Z</time>
      </trkpt>
      <trkpt lat="45.059" lon="1.33902">
        <ele>105</ele>
        <time>2015-09-27T08:36:49Z</time>
      </trkpt>
      <trkpt lat="45.05891" lon="1.33913">
        <ele>106</ele>
        <time>2015-09-27T08:36:55Z</time>
      </trkpt>
      <trkpt lat="45.05891" lon="1.33928">
        <ele>108</ele>
        <time>2015-09-27T08:37:00Z</time>
      </trkpt>
      <trkpt lat="45.05893" lon="1.33937">
        <ele>109</ele>
        <time>2015-09-27T08:37:03Z</time>
      </trkpt>
      <trkpt lat="45.05896" lon="1.33945">
        <ele>110</ele>
        <time>2015-09-27T08:37:06Z</time>
      </trkpt>
      <trkpt lat="45.05901" lon="1.33956">
        <ele>111</ele>
        <time>2015-09-27T08:37:10Z</time>
      </trkpt>
      <trkpt lat="45.05906" lon="1.33976">
        <ele>112</ele>
        <time>2015-09-27T08:37:16Z</time>
      </trkpt>
      <trkpt lat="45.05912" lon="1.33997">
        <ele>114</ele>
        <time>2015-09-27T08:37:22Z</time>
      </trkpt>
      <trkpt lat="45.05918" lon="1.34021">
        <ele>115</ele>
        <time>2015-09-27T08:37:29Z</time>
      </trkpt>
      <trkpt lat="45.05922" lon="1.34038">
        <ele>116</ele>
        <time>2015-09-27T08:37:34Z</time>
      </trkpt>
      <trkpt lat="45.05923" lon="1.34052">
        <ele>117</ele>
        <time>2015-09-27T08:37:38Z</time>
      </trkpt>
      <trkpt lat="45.05924" lon="1.34073">
        <ele>118</ele>
        <time>2015-09-27T08:37:43Z</time>
      </trkpt>
      <trkpt lat="45.05928" lon="1.34093">
        <ele>120</ele>
        <time>2015-09-27T08:37:48Z</time>
      </trkpt>
      <trkpt lat="45.0593" lon="1.34109">
        <ele>121</ele>
        <time>2015-09-27T08:37:52Z</time>
      </trkpt>
      <trkpt lat="45.05936" lon="1.34133">
        <ele>122</ele>
        <time>2015-09-27T08:37:59Z</time>
      </trkpt>
      <trkpt lat="45.0595" lon="1.34167">
        <ele>123</ele>
        <time>2015-09-27T08:38:06Z</time>
      </trkpt>
      <trkpt lat="45.05957" lon="1.3419">
        <ele>124</ele>
        <time>2015-09-27T08:38:11Z</time>
      </trkpt>
      <trkpt lat="45.0596" lon="1.34205">
        <ele>125</ele>
        <time>2015-09-27T08:38:15Z</time>
      </trkpt>
      <trkpt lat="45.0596" lon="1.34222">
        <ele>128</ele>
        <time>2015-09-27T08:38:20Z</time>
      </trkpt>
      <trkpt lat="45.05959" lon="1.34233">
        <ele>129</ele>
        <time>2015-09-27T08:38:23Z</time>
      </trkpt>
      <trkpt lat="45.05953" lon="1.34254">
        <ele>130</ele>
        <time>2015-09-27T08:38:30Z</time>
      </trkpt>
      <trkpt lat="45.05938" lon="1.34287">
        <ele>131</ele>
        <time>2015-09-27T08:38:39Z</time>
      </trkpt>
      <trkpt lat="45.05934" lon="1.34295">
        <ele>132</ele>
        <time>2015-09-27T08:38:42Z</time>
      </trkpt>
      <trkpt lat="45.05927" lon="1.34314">
        <ele>133</ele>
        <time>2015-09-27T08:38:47Z</time>
      </trkpt>
      <trkpt lat="45.05922" lon="1.34329">
        <ele>134</ele>
        <time>2015-09-27T08:38:51Z</time>
      </trkpt>
      <trkpt lat="45.05919" lon="1.34349">
        <ele>136</ele>
        <time>2015-09-27T08:38:56Z</time>
      </trkpt>
      <trkpt lat="45.05918" lon="1.34363">
        <ele>137</ele>
        <time>2015-09-27T08:39:00Z</time>
      </trkpt>
      <trkpt lat="45.05917" lon="1.34378">
        <ele>138</ele>
        <time>2015-09-27T08:39:04Z</time>
      </trkpt>
      <trkpt lat="45.05916" lon="1.34393">
        <ele>139</ele>
        <time>2015-09-27T08:39:08Z</time>
      </trkpt>
      <trkpt lat="45.05916" lon="1.34407">
        <ele>140</ele>
        <time>2015-09-27T08:39:12Z</time>
      </trkpt>
      <trkpt lat="45.05914" lon="1.34419">
        <ele>141</ele>
        <time>2015-09-27T08:39:15Z</time>
      </trkpt>
      <trkpt lat="45.05914" lon="1.3443">
        <ele>142</ele>
        <time>2015-09-27T08:39:18Z</time>
      </trkpt>
      <trkpt lat="45.05908" lon="1.34452">
        <ele>143</ele>
        <time>2015-09-27T08:39:24Z</time>
      </trkpt>
      <trkpt lat="45.05899" lon="1.34476">
        <ele>144</ele>
        <time>2015-09-27T08:39:30Z</time>
      </trkpt>
      <trkpt lat="45.05892" lon="1.34492">
        <ele>145</ele>
        <time>2015-09-27T08:39:35Z</time>
      </trkpt>
      <trkpt lat="45.05883" lon="1.34509">
        <ele>146</ele>
        <time>2015-09-27T08:39:40Z</time>
      </trkpt>
      <trkpt lat="45.05878" lon="1.34521">
        <ele>147</ele>
        <time>2015-09-27T08:39:44Z</time>
      </trkpt>
      <trkpt lat="45.05875" lon="1.3453">
        <ele>148</ele>
        <time>2015-09-27T08:39:47Z</time>
      </trkpt>
      <trkpt lat="45.05867" lon="1.34545">
        <ele>150</ele>
        <time>2015-09-27T08:39:52Z</time>
      </trkpt>
      <trkpt lat="45.05862" lon="1.34552">
        <ele>151</ele>
        <time>2015-09-27T08:39:55Z</time>
      </trkpt>
      <trkpt lat="45.05854" lon="1.34561">
        <ele>152</ele>
        <time>2015-09-27T08:39:59Z</time>
      </trkpt>
      <trkpt lat="45.05847" lon="1.34566">
        <ele>153</ele>
        <time>2015-09-27T08:40:02Z</time>
      </trkpt>
      <trkpt lat="45.0584" lon="1.34572">
        <ele>154</ele>
        <time>2015-09-27T08:40:06Z</time>
      </trkpt>
      <trkpt lat="45.05833" lon="1.34575">
        <ele>155</ele>
        <time>2015-09-27T08:40:09Z</time>
      </trkpt>
      <trkpt lat="45.05827" lon="1.34578">
        <ele>156</ele>
        <time>2015-09-27T08:40:12Z</time>
      </trkpt>
      <trkpt lat="45.05819" lon="1.34585">
        <ele>158</ele>
        <time>2015-09-27T08:40:17Z</time>
      </trkpt>
      <trkpt lat="45.05813" lon="1.34591">
        <ele>159</ele>
        <time>2015-09-27T08:40:20Z</time>
      </trkpt>
      <trkpt lat="45.05805" lon="1.34606">
        <ele>160</ele>
        <time>2015-09-27T08:40:25Z</time>
      </trkpt>
      <trkpt lat="45.05799" lon="1.34619">
        <ele>161</ele>
        <time>2015-09-27T08:40:29Z</time>
      </trkpt>
      <trkpt lat="45.05793" lon="1.34644">
        <ele>162</ele>
        <time>2015-09-27T08:40:36Z</time>
      </trkpt>
      <trkpt lat="45.05788" lon="1.34676">
        <ele>163</ele>
        <time>2015-09-27T08:40:44Z</time>
      </trkpt>
      <trkpt lat="45.05784" lon="1.34703">
        <ele>164</ele>
        <time>2015-09-27T08:40:50Z</time>
      </trkpt>
      <trkpt lat="45.05782" lon="1.34727">
        <ele>164</ele>
        <time>2015-09-27T08:40:56Z</time>
      </trkpt>
      <trkpt lat="45.05781" lon="1.34742">
        <ele>164</ele>
        <time>2015-09-27T08:41:00Z</time>
      </trkpt>
      <trkpt lat="45.05785" lon="1.3476">
        <ele>166</ele>
        <time>2015-09-27T08:41:06Z</time>
      </trkpt>
      <trkpt lat="45.05791" lon="1.3477">
        <ele>167</ele>
        <time>2015-09-27T08:41:10Z</time>
      </trkpt>
      <trkpt lat="45.05797" lon="1.34781">
        <ele>168</ele>
        <time>2015-09-27T08:41:14Z</time>
      </trkpt>
      <trkpt lat="45.05812" lon="1.348">
        <ele>168</ele>
        <time>2015-09-27T08:41:21Z</time>
      </trkpt>
      <trkpt lat="45.05825" lon="1.34803">
        <ele>169</ele>
        <time>2015-09-27T08:41:25Z</time>
      </trkpt>
      <trkpt lat="45.05834" lon="1.34807">
        <ele>169</ele>
        <time>2015-09-27T08:41:28Z</time>
      </trkpt>
      <trkpt lat="45.05849" lon="1.34812">
        <ele>170</ele>
        <time>2015-09-27T08:41:33Z</time>
      </trkpt>
      <trkpt lat="45.05864" lon="1.34815">
        <ele>172</ele>
        <time>2015-09-27T08:41:38Z</time>
      </trkpt>
      <trkpt lat="45.05875" lon="1.3482">
        <ele>173</ele>
        <time>2015-09-27T08:41:42Z</time>
      </trkpt>
      <trkpt lat="45.05892" lon="1.34825">
        <ele>174</ele>
        <time>2015-09-27T08:41:48Z</time>
      </trkpt>
      <trkpt lat="45.05902" lon="1.34829">
        <ele>174</ele>
        <time>2015-09-27T08:41:52Z</time>
      </trkpt>
      <trkpt lat="45.05909" lon="1.34827">
        <ele>175</ele>
        <time>2015-09-27T08:41:55Z</time>
      </trkpt>
      <trkpt lat="45.0592" lon="1.34809">
        <ele>175</ele>
        <time>2015-09-27T08:42:00Z</time>
      </trkpt>
      <trkpt lat="45.05928" lon="1.34791">
        <ele>175</ele>
        <time>2015-09-27T08:42:04Z</time>
      </trkpt>
      <trkpt lat="45.05935" lon="1.34775">
        <ele>175</ele>
        <time>2015-09-27T08:42:07Z</time>
      </trkpt>
      <trkpt lat="45.05944" lon="1.34753">
        <ele>175</ele>
        <time>2015-09-27T08:42:11Z</time>
      </trkpt>
      <trkpt lat="45.05951" lon="1.34736">
        <ele>175</ele>
        <time>2015-09-27T08:42:14Z</time>
      </trkpt>
      <trkpt lat="45.05962" lon="1.34713">
        <ele>175</ele>
        <time>2015-09-27T08:42:18Z</time>
      </trkpt>
      <trkpt lat="45.05972" lon="1.34698">
        <ele>174</ele>
        <time>2015-09-27T08:42:21Z</time>
      </trkpt>
      <trkpt lat="45.06002" lon="1.3467">
        <ele>174</ele>
        <time>2015-09-27T08:42:28Z</time>
      </trkpt>
      <trkpt lat="45.06009" lon="1.34653">
        <ele>174</ele>
        <time>2015-09-27T08:42:31Z</time>
      </trkpt>
      <trkpt lat="45.06016" lon="1.34615">
        <ele>173</ele>
        <time>2015-09-27T08:42:36Z</time>
      </trkpt>
      <trkpt lat="45.06027" lon="1.34583">
        <ele>172</ele>
        <time>2015-09-27T08:42:40Z</time>
      </trkpt>
      <trkpt lat="45.06042" lon="1.34549">
        <ele>171</ele>
        <time>2015-09-27T08:42:44Z</time>
      </trkpt>
      <trkpt lat="45.06054" lon="1.34512">
        <ele>170</ele>
        <time>2015-09-27T08:42:48Z</time>
      </trkpt>
      <trkpt lat="45.06066" lon="1.34474">
        <ele>168</ele>
        <time>2015-09-27T08:42:52Z</time>
      </trkpt>
      <trkpt lat="45.06076" lon="1.34446">
        <ele>168</ele>
        <time>2015-09-27T08:42:55Z</time>
      </trkpt>
      <trkpt lat="45.06081" lon="1.34404">
        <ele>167</ele>
        <time>2015-09-27T08:42:59Z</time>
      </trkpt>
      <trkpt lat="45.06094" lon="1.34351">
        <ele>166</ele>
        <time>2015-09-27T08:43:04Z</time>
      </trkpt>
      <trkpt lat="45.06117" lon="1.34285">
        <ele>165</ele>
        <time>2015-09-27T08:43:11Z</time>
      </trkpt>
      <trkpt lat="45.06135" lon="1.3424">
        <ele>164</ele>
        <time>2015-09-27T08:43:16Z</time>
      </trkpt>
      <trkpt lat="45.06143" lon="1.34209">
        <ele>163</ele>
        <time>2015-09-27T08:43:19Z</time>
      </trkpt>
      <trkpt lat="45.0615" lon="1.34177">
        <ele>162</ele>
        <time>2015-09-27T08:43:22Z</time>
      </trkpt>
      <trkpt lat="45.06152" lon="1.34147">
        <ele>162</ele>
        <time>2015-09-27T08:43:25Z</time>
      </trkpt>
      <trkpt lat="45.06144" lon="1.3412">
        <ele>161</ele>
        <time>2015-09-27T08:43:28Z</time>
      </trkpt>
      <trkpt lat="45.06138" lon="1.34081">
        <ele>161</ele>
        <time>2015-09-27T08:43:32Z</time>
      </trkpt>
      <trkpt lat="45.06135" lon="1.34052">
        <ele>161</ele>
        <time>2015-09-27T08:43:35Z</time>
      </trkpt>
      <trkpt lat="45.06131" lon="1.34003">
        <ele>161</ele>
        <time>2015-09-27T08:43:40Z</time>
      </trkpt>
      <trkpt lat="45.06123" lon="1.33964">
        <ele>160</ele>
        <time>2015-09-27T08:43:44Z</time>
      </trkpt>
      <trkpt lat="45.06118" lon="1.33935">
        <ele>159</ele>
        <time>2015-09-27T08:43:47Z</time>
      </trkpt>
      <trkpt lat="45.06123" lon="1.33898">
        <ele>159</ele>
        <time>2015-09-27T08:43:51Z</time>
      </trkpt>
      <trkpt lat="45.0615" lon="1.33872">
        <ele>159</ele>
        <time>2015-09-27T08:43:56Z</time>
      </trkpt>
      <trkpt lat="45.06171" lon="1.33866">
        <ele>158</ele>
        <time>2015-09-27T08:43:59Z</time>
      </trkpt>
      <trkpt lat="45.06194" lon="1.33878">
        <ele>159</ele>
        <time>2015-09-27T08:44:03Z</time>
      </trkpt>
      <trkpt lat="45.06209" lon="1.33888">
        <ele>159</ele>
        <time>2015-09-27T08:44:06Z</time>
      </trkpt>
      <trkpt lat="45.06223" lon="1.33898">
        <ele>160</ele>
        <time>2015-09-27T08:44:09Z</time>
      </trkpt>
      <trkpt lat="45.06245" lon="1.33918">
        <ele>161</ele>
        <time>2015-09-27T08:44:14Z</time>
      </trkpt>
      <trkpt lat="45.06267" lon="1.33941">
        <ele>162</ele>
        <time>2015-09-27T08:44:19Z</time>
      </trkpt>
      <trkpt lat="45.06284" lon="1.33972">
        <ele>161</ele>
        <time>2015-09-27T08:44:25Z</time>
      </trkpt>
      <trkpt lat="45.06291" lon="1.33992">
        <ele>161</ele>
        <time>2015-09-27T08:44:28Z</time>
      </trkpt>
      <trkpt lat="45.06299" lon="1.34012">
        <ele>160</ele>
        <time>2015-09-27T08:44:31Z</time>
      </trkpt>
      <trkpt lat="45.06305" lon="1.34037">
        <ele>158</ele>
        <time>2015-09-27T08:44:34Z</time>
      </trkpt>
      <trkpt lat="45.06314" lon="1.34078">
        <ele>156</ele>
        <time>2015-09-27T08:44:38Z</time>
      </trkpt>
      <trkpt lat="45.06318" lon="1.34106">
        <ele>153</ele>
        <time>2015-09-27T08:44:41Z</time>
      </trkpt>
      <trkpt lat="45.06324" lon="1.34145">
        <ele>150</ele>
        <time>2015-09-27T08:44:45Z</time>
      </trkpt>
      <trkpt lat="45.06343" lon="1.34186">
        <ele>149</ele>
        <time>2015-09-27T08:44:50Z</time>
      </trkpt>
      <trkpt lat="45.06353" lon="1.34215">
        <ele>147</ele>
        <time>2015-09-27T08:44:53Z</time>
      </trkpt>
      <trkpt lat="45.06367" lon="1.34256">
        <ele>145</ele>
        <time>2015-09-27T08:44:57Z</time>
      </trkpt>
      <trkpt lat="45.06378" lon="1.3431">
        <ele>144</ele>
        <time>2015-09-27T08:45:02Z</time>
      </trkpt>
      <trkpt lat="45.06386" lon="1.34352">
        <ele>143</ele>
        <time>2015-09-27T08:45:06Z</time>
      </trkpt>
      <trkpt lat="45.06394" lon="1.34383">
        <ele>141</ele>
        <time>2015-09-27T08:45:09Z</time>
      </trkpt>
      <trkpt lat="45.06404" lon="1.34414">
        <ele>138</ele>
        <time>2015-09-27T08:45:12Z</time>
      </trkpt>
      <trkpt lat="45.06415" lon="1.34442">
        <ele>136</ele>
        <time>2015-09-27T08:45:15Z</time>
      </trkpt>
      <trkpt lat="45.06426" lon="1.34473">
        <ele>133</ele>
        <time>2015-09-27T08:45:19Z</time>
      </trkpt>
      <trkpt lat="45.06437" lon="1.34493">
        <ele>131</ele>
        <time>2015-09-27T08:45:22Z</time>
      </trkpt>
      <trkpt lat="45.06442" lon="1.34512">
        <ele>128</ele>
        <time>2015-09-27T08:45:25Z</time>
      </trkpt>
      <trkpt lat="45.06449" lon="1.34518">
        <ele>125</ele>
        <time>2015-09-27T08:45:28Z</time>
      </trkpt>
      <trkpt lat="45.06465" lon="1.34514">
        <ele>123</ele>
        <time>2015-09-27T08:45:32Z</time>
      </trkpt>
      <trkpt lat="45.0648" lon="1.3453">
        <ele>121</ele>
        <time>2015-09-27T08:45:35Z</time>
      </trkpt>
      <trkpt lat="45.06493" lon="1.34548">
        <ele>121</ele>
        <time>2015-09-27T08:45:38Z</time>
      </trkpt>
      <trkpt lat="45.06506" lon="1.34577">
        <ele>122</ele>
        <time>2015-09-27T08:45:43Z</time>
      </trkpt>
      <trkpt lat="45.06517" lon="1.34591">
        <ele>123</ele>
        <time>2015-09-27T08:45:46Z</time>
      </trkpt>
      <trkpt lat="45.0653" lon="1.34603">
        <ele>123</ele>
        <time>2015-09-27T08:45:49Z</time>
      </trkpt>
      <trkpt lat="45.06544" lon="1.34614">
        <ele>124</ele>
        <time>2015-09-27T08:45:52Z</time>
      </trkpt>
      <trkpt lat="45.06559" lon="1.34625">
        <ele>125</ele>
        <time>2015-09-27T08:45:55Z</time>
      </trkpt>
      <trkpt lat="45.06575" lon="1.34635">
        <ele>125</ele>
        <time>2015-09-27T08:45:58Z</time>
      </trkpt>
      <trkpt lat="45.06595" lon="1.34648">
        <ele>126</ele>
        <time>2015-09-27T08:46:02Z</time>
      </trkpt>
      <trkpt lat="45.06614" lon="1.3468">
        <ele>126</ele>
        <time>2015-09-27T08:46:07Z</time>
      </trkpt>
      <trkpt lat="45.06623" lon="1.3471">
        <ele>127</ele>
        <time>2015-09-27T08:46:11Z</time>
      </trkpt>
      <trkpt lat="45.06627" lon="1.34743">
        <ele>128</ele>
        <time>2015-09-27T08:46:15Z</time>
      </trkpt>
      <trkpt lat="45.06631" lon="1.34785">
        <ele>129</ele>
        <time>2015-09-27T08:46:20Z</time>
      </trkpt>
      <trkpt lat="45.06634" lon="1.34813">
        <ele>131</ele>
        <time>2015-09-27T08:46:24Z</time>
      </trkpt>
      <trkpt lat="45.06637" lon="1.34851">
        <ele>132</ele>
        <time>2015-09-27T08:46:30Z</time>
      </trkpt>
      <trkpt lat="45.06641" lon="1.34869">
        <ele>132</ele>
        <time>2015-09-27T08:46:33Z</time>
      </trkpt>
      <trkpt lat="45.06649" lon="1.34885">
        <ele>133</ele>
        <time>2015-09-27T08:46:36Z</time>
      </trkpt>
      <trkpt lat="45.06664" lon="1.34905">
        <ele>134</ele>
        <time>2015-09-27T08:46:41Z</time>
      </trkpt>
      <trkpt lat="45.06671" lon="1.34918">
        <ele>135</ele>
        <time>2015-09-27T08:46:44Z</time>
      </trkpt>
      <trkpt lat="45.06682" lon="1.34932">
        <ele>136</ele>
        <time>2015-09-27T08:46:48Z</time>
      </trkpt>
      <trkpt lat="45.06706" lon="1.34935">
        <ele>137</ele>
        <time>2015-09-27T08:46:54Z</time>
      </trkpt>
      <trkpt lat="45.06733" lon="1.34939">
        <ele>138</ele>
        <time>2015-09-27T08:47:01Z</time>
      </trkpt>
      <trkpt lat="45.06749" lon="1.34951">
        <ele>140</ele>
        <time>2015-09-27T08:47:06Z</time>
      </trkpt>
      <trkpt lat="45.06769" lon="1.34962">
        <ele>141</ele>
        <time>2015-09-27T08:47:12Z</time>
      </trkpt>
      <trkpt lat="45.06791" lon="1.34971">
        <ele>142</ele>
        <time>2015-09-27T08:47:18Z</time>
      </trkpt>
      <trkpt lat="45.06817" lon="1.34976">
        <ele>143</ele>
        <time>2015-09-27T08:47:25Z</time>
      </trkpt>
      <trkpt lat="45.06831" lon="1.34985">
        <ele>144</ele>
        <time>2015-09-27T08:47:29Z</time>
      </trkpt>
      <trkpt lat="45.06847" lon="1.35021">
        <ele>145</ele>
        <time>2015-09-27T08:47:36Z</time>
      </trkpt>
      <trkpt lat="45.06858" lon="1.35053">
        <ele>146</ele>
        <time>2015-09-27T08:47:43Z</time>
      </trkpt>
      <trkpt lat="45.06873" lon="1.3507">
        <ele>147</ele>
        <time>2015-09-27T08:47:49Z</time>
      </trkpt>
      <trkpt lat="45.0689" lon="1.35077">
        <ele>148</ele>
        <time>2015-09-27T08:47:54Z</time>
      </trkpt>
      <trkpt lat="45.06907" lon="1.35084">
        <ele>150</ele>
        <time>2015-09-27T08:47:59Z</time>
      </trkpt>
      <trkpt lat="45.06934" lon="1.35097">
        <ele>151</ele>
        <time>2015-09-27T08:48:06Z</time>
      </trkpt>
      <trkpt lat="45.06953" lon="1.351">
        <ele>152</ele>
        <time>2015-09-27T08:48:12Z</time>
      </trkpt>
      <trkpt lat="45.06962" lon="1.35104">
        <ele>153</ele>
        <time>2015-09-27T08:48:15Z</time>
      </trkpt>
      <trkpt lat="45.06976" lon="1.35113">
        <ele>154</ele>
        <time>2015-09-27T08:48:20Z</time>
      </trkpt>
      <trkpt lat="45.06987" lon="1.35123">
        <ele>155</ele>
        <time>2015-09-27T08:48:24Z</time>
      </trkpt>
      <trkpt lat="45.06996" lon="1.35136">
        <ele>156</ele>
        <time>2015-09-27T08:48:27Z</time>
      </trkpt>
      <trkpt lat="45.07009" lon="1.3515">
        <ele>156</ele>
        <time>2015-09-27T08:48:30Z</time>
      </trkpt>
      <trkpt lat="45.0702" lon="1.35163">
        <ele>157</ele>
        <time>2015-09-27T08:48:33Z</time>
      </trkpt>
      <trkpt lat="45.07042" lon="1.35194">
        <ele>158</ele>
        <time>2015-09-27T08:48:40Z</time>
      </trkpt>
      <trkpt lat="45.07053" lon="1.35207">
        <ele>159</ele>
        <time>2015-09-27T08:48:44Z</time>
      </trkpt>
      <trkpt lat="45.07063" lon="1.35218">
        <ele>160</ele>
        <time>2015-09-27T08:48:48Z</time>
      </trkpt>
      <trkpt lat="45.07082" lon="1.35227">
        <ele>161</ele>
        <time>2015-09-27T08:48:54Z</time>
      </trkpt>
      <trkpt lat="45.071" lon="1.35227">
        <ele>161</ele>
        <time>2015-09-27T08:48:58Z</time>
      </trkpt>
      <trkpt lat="45.07121" lon="1.35226">
        <ele>162</ele>
        <time>2015-09-27T08:49:03Z</time>
      </trkpt>
      <trkpt lat="45.07137" lon="1.35225">
        <ele>162</ele>
        <time>2015-09-27T08:49:07Z</time>
      </trkpt>
      <trkpt lat="45.07152" lon="1.35224">
        <ele>164</ele>
        <time>2015-09-27T08:49:11Z</time>
      </trkpt>
      <trkpt lat="45.07173" lon="1.35222">
        <ele>164</ele>
        <time>2015-09-27T08:49:16Z</time>
      </trkpt>
      <trkpt lat="45.07202" lon="1.35225">
        <ele>165</ele>
        <time>2015-09-27T08:49:23Z</time>
      </trkpt>
      <trkpt lat="45.07228" lon="1.35238">
        <ele>167</ele>
        <time>2015-09-27T08:49:30Z</time>
      </trkpt>
      <trkpt lat="45.07241" lon="1.35248">
        <ele>168</ele>
        <time>2015-09-27T08:49:34Z</time>
      </trkpt>
      <trkpt lat="45.07255" lon="1.35258">
        <ele>169</ele>
        <time>2015-09-27T08:49:38Z</time>
      </trkpt>
      <trkpt lat="45.07268" lon="1.35269">
        <ele>170</ele>
        <time>2015-09-27T08:49:42Z</time>
      </trkpt>
      <trkpt lat="45.07274" lon="1.35283">
        <ele>171</ele>
        <time>2015-09-27T08:49:45Z</time>
      </trkpt>
      <trkpt lat="45.0728" lon="1.35314">
        <ele>172</ele>
        <time>2015-09-27T08:49:51Z</time>
      </trkpt>
      <trkpt lat="45.07285" lon="1.35334">
        <ele>174</ele>
        <time>2015-09-27T08:49:56Z</time>
      </trkpt>
      <trkpt lat="45.07288" lon="1.3535">
        <ele>176</ele>
        <time>2015-09-27T08:50:00Z</time>
      </trkpt>
      <trkpt lat="45.0729" lon="1.35361">
        <ele>177</ele>
        <time>2015-09-27T08:50:03Z</time>
      </trkpt>
      <trkpt lat="45.07291" lon="1.35371">
        <ele>178</ele>
        <time>2015-09-27T08:50:06Z</time>
      </trkpt>
      <trkpt lat="45.07295" lon="1.35389">
        <ele>179</ele>
        <time>2015-09-27T08:50:11Z</time>
      </trkpt>
      <trkpt lat="45.07296" lon="1.354">
        <ele>180</ele>
        <time>2015-09-27T08:50:14Z</time>
      </trkpt>
      <trkpt lat="45.07301" lon="1.35409">
        <ele>181</ele>
        <time>2015-09-27T08:50:18Z</time>
      </trkpt>
      <trkpt lat="45.0731" lon="1.35402">
        <ele>184</ele>
        <time>2015-09-27T08:50:24Z</time>
      </trkpt>
      <trkpt lat="45.07317" lon="1.35388">
        <ele>185</ele>
        <time>2015-09-27T08:50:30Z</time>
      </trkpt>
      <trkpt lat="45.07332" lon="1.35378">
        <ele>186</ele>
        <time>2015-09-27T08:50:37Z</time>
      </trkpt>
      <trkpt lat="45.07341" lon="1.35377">
        <ele>187</ele>
        <time>2015-09-27T08:50:41Z</time>
      </trkpt>
      <trkpt lat="45.07347" lon="1.35383">
        <ele>188</ele>
        <time>2015-09-27T08:50:44Z</time>
      </trkpt>
      <trkpt lat="45.07347" lon="1.35393">
        <ele>189</ele>
        <time>2015-09-27T08:50:47Z</time>
      </trkpt>
      <trkpt lat="45.07346" lon="1.35409">
        <ele>190</ele>
        <time>2015-09-27T08:50:52Z</time>
      </trkpt>
      <trkpt lat="45.07345" lon="1.35423">
        <ele>192</ele>
        <time>2015-09-27T08:50:56Z</time>
      </trkpt>
      <trkpt lat="45.07345" lon="1.35445">
        <ele>193</ele>
        <time>2015-09-27T08:51:01Z</time>
      </trkpt>
      <trkpt lat="45.07354" lon="1.3546">
        <ele>194</ele>
        <time>2015-09-27T08:51:06Z</time>
      </trkpt>
      <trkpt lat="45.07364" lon="1.3546">
        <ele>195</ele>
        <time>2015-09-27T08:51:10Z</time>
      </trkpt>
      <trkpt lat="45.07372" lon="1.35458">
        <ele>197</ele>
        <time>2015-09-27T08:51:13Z</time>
      </trkpt>
      <trkpt lat="45.07382" lon="1.35454">
        <ele>198</ele>
        <time>2015-09-27T08:51:17Z</time>
      </trkpt>
      <trkpt lat="45.07392" lon="1.35449">
        <ele>199</ele>
        <time>2015-09-27T08:51:21Z</time>
      </trkpt>
      <trkpt lat="45.07402" lon="1.35444">
        <ele>200</ele>
        <time>2015-09-27T08:51:25Z</time>
      </trkpt>
      <trkpt lat="45.07421" lon="1.35433">
        <ele>201</ele>
        <time>2015-09-27T08:51:32Z</time>
      </trkpt>
      <trkpt lat="45.07435" lon="1.35424">
        <ele>202</ele>
        <time>2015-09-27T08:51:36Z</time>
      </trkpt>
      <trkpt lat="45.07448" lon="1.35414">
        <ele>202</ele>
        <time>2015-09-27T08:51:40Z</time>
      </trkpt>
      <trkpt lat="45.0746" lon="1.35406">
        <ele>203</ele>
        <time>2015-09-27T08:51:44Z</time>
      </trkpt>
      <trkpt lat="45.07468" lon="1.35399">
        <ele>204</ele>
        <time>2015-09-27T08:51:47Z</time>
      </trkpt>
      <trkpt lat="45.07481" lon="1.3539">
        <ele>206</ele>
        <time>2015-09-27T08:51:52Z</time>
      </trkpt>
      <trkpt lat="45.07487" lon="1.35384">
        <ele>207</ele>
        <time>2015-09-27T08:51:55Z</time>
      </trkpt>
      <trkpt lat="45.07494" lon="1.35379">
        <ele>208</ele>
        <time>2015-09-27T08:51:58Z</time>
      </trkpt>
      <trkpt lat="45.07505" lon="1.35371">
        <ele>210</ele>
        <time>2015-09-27T08:52:03Z</time>
      </trkpt>
      <trkpt lat="45.07515" lon="1.35365">
        <ele>211</ele>
        <time>2015-09-27T08:52:07Z</time>
      </trkpt>
      <trkpt lat="45.07523" lon="1.3536">
        <ele>211</ele>
        <time>2015-09-27T08:52:10Z</time>
      </trkpt>
      <trkpt lat="45.07539" lon="1.35349">
        <ele>213</ele>
        <time>2015-09-27T08:52:16Z</time>
      </trkpt>
      <trkpt lat="45.0755" lon="1.35342">
        <ele>214</ele>
        <time>2015-09-27T08:52:20Z</time>
      </trkpt>
      <trkpt lat="45.07563" lon="1.35331">
        <ele>215</ele>
        <time>2015-09-27T08:52:25Z</time>
      </trkpt>
      <trkpt lat="45.07578" lon="1.35309">
        <ele>216</ele>
        <time>2015-09-27T08:52:31Z</time>
      </trkpt>
      <trkpt lat="45.07589" lon="1.3529">
        <ele>217</ele>
        <time>2015-09-27T08:52:36Z</time>
      </trkpt>
      <trkpt lat="45.076" lon="1.35278">
        <ele>218</ele>
        <time>2015-09-27T08:52:40Z</time>
      </trkpt>
      <trkpt lat="45.07611" lon="1.35267">
        <ele>220</ele>
        <time>2015-09-27T08:52:44Z</time>
      </trkpt>
      <trkpt lat="45.07622" lon="1.35256">
        <ele>221</ele>
        <time>2015-09-27T08:52:49Z</time>
      </trkpt>
      <trkpt lat="45.07632" lon="1.35246">
        <ele>222</ele>
        <time>2015-09-27T08:52:53Z</time>
      </trkpt>
      <trkpt lat="45.07641" lon="1.35237">
        <ele>223</ele>
        <time>2015-09-27T08:52:57Z</time>
      </trkpt>
      <trkpt lat="45.07654" lon="1.35221">
        <ele>224</ele>
        <time>2015-09-27T08:53:03Z</time>
      </trkpt>
      <trkpt lat="45.07664" lon="1.35213">
        <ele>226</ele>
        <time>2015-09-27T08:53:07Z</time>
      </trkpt>
      <trkpt lat="45.07676" lon="1.35206">
        <ele>227</ele>
        <time>2015-09-27T08:53:11Z</time>
      </trkpt>
      <trkpt lat="45.07691" lon="1.35195">
        <ele>229</ele>
        <time>2015-09-27T08:53:17Z</time>
      </trkpt>
      <trkpt lat="45.07699" lon="1.3519">
        <ele>229</ele>
        <time>2015-09-27T08:53:20Z</time>
      </trkpt>
      <trkpt lat="45.0771" lon="1.35181">
        <ele>230</ele>
        <time>2015-09-27T08:53:24Z</time>
      </trkpt>
      <trkpt lat="45.07718" lon="1.35177">
        <ele>231</ele>
        <time>2015-09-27T08:53:27Z</time>
      </trkpt>
      <trkpt lat="45.0774" lon="1.35167">
        <ele>232</ele>
        <time>2015-09-27T08:53:34Z</time>
      </trkpt>
      <trkpt lat="45.07764" lon="1.35155">
        <ele>233</ele>
        <time>2015-09-27T08:53:41Z</time>
      </trkpt>
      <trkpt lat="45.07776" lon="1.3515">
        <ele>233</ele>
        <time>2015-09-27T08:53:46Z</time>
      </trkpt>
      <trkpt lat="45.0778" lon="1.35143">
        <ele>233</ele>
        <time>2015-09-27T08:53:49Z</time>
      </trkpt>
      <trkpt lat="45.07787" lon="1.3513">
        <ele>233</ele>
        <time>2015-09-27T08:53:54Z</time>
      </trkpt>
      <trkpt lat="45.0779" lon="1.35121">
        <ele>232</ele>
        <time>2015-09-27T08:53:57Z</time>
      </trkpt>
      <trkpt lat="45.07793" lon="1.35109">
        <ele>231</ele>
        <time>2015-09-27T08:54:00Z</time>
      </trkpt>
      <trkpt lat="45.07786" lon="1.35098">
        <ele>231</ele>
        <time>2015-09-27T08:54:03Z</time>
      </trkpt>
      <trkpt lat="45.07775" lon="1.35078">
        <ele>231</ele>
        <time>2015-09-27T08:54:08Z</time>
      </trkpt>
      <trkpt lat="45.07779" lon="1.35033">
        <ele>231</ele>
        <time>2015-09-27T08:54:14Z</time>
      </trkpt>
      <trkpt lat="45.0778" lon="1.35005">
        <ele>230</ele>
        <time>2015-09-27T08:54:17Z</time>
      </trkpt>
      <trkpt lat="45.07765" lon="1.34934">
        <ele>229</ele>
        <time>2015-09-27T08:54:25Z</time>
      </trkpt>
      <trkpt lat="45.07757" lon="1.34908">
        <ele>228</ele>
        <time>2015-09-27T08:54:28Z</time>
      </trkpt>
      <trkpt lat="45.07749" lon="1.34874">
        <ele>228</ele>
        <time>2015-09-27T08:54:32Z</time>
      </trkpt>
      <trkpt lat="45.07747" lon="1.34847">
        <ele>227</ele>
        <time>2015-09-27T08:54:35Z</time>
      </trkpt>
      <trkpt lat="45.07746" lon="1.34809">
        <ele>226</ele>
        <time>2015-09-27T08:54:39Z</time>
      </trkpt>
      <trkpt lat="45.07751" lon="1.34765">
        <ele>227</ele>
        <time>2015-09-27T08:54:44Z</time>
      </trkpt>
      <trkpt lat="45.07758" lon="1.34736">
        <ele>227</ele>
        <time>2015-09-27T08:54:48Z</time>
      </trkpt>
      <trkpt lat="45.07766" lon="1.34706">
        <ele>228</ele>
        <time>2015-09-27T08:54:53Z</time>
      </trkpt>
      <trkpt lat="45.07773" lon="1.34692">
        <ele>229</ele>
        <time>2015-09-27T08:54:56Z</time>
      </trkpt>
      <trkpt lat="45.07785" lon="1.34675">
        <ele>230</ele>
        <time>2015-09-27T08:55:00Z</time>
      </trkpt>
      <trkpt lat="45.07798" lon="1.34657">
        <ele>230</ele>
        <time>2015-09-27T08:55:04Z</time>
      </trkpt>
      <trkpt lat="45.0781" lon="1.3464">
        <ele>231</ele>
        <time>2015-09-27T08:55:08Z</time>
      </trkpt>
      <trkpt lat="45.07827" lon="1.34613">
        <ele>231</ele>
        <time>2015-09-27T08:55:14Z</time>
      </trkpt>
      <trkpt lat="45.07834" lon="1.34586">
        <ele>231</ele>
        <time>2015-09-27T08:55:19Z</time>
      </trkpt>
      <trkpt lat="45.07822" lon="1.34575">
        <ele>231</ele>
        <time>2015-09-27T08:55:22Z</time>
      </trkpt>
      <trkpt lat="45.07794" lon="1.34556">
        <ele>233</ele>
        <time>2015-09-27T08:55:30Z</time>
      </trkpt>
      <trkpt lat="45.07781" lon="1.34538">
        <ele>233</ele>
        <time>2015-09-27T08:55:34Z</time>
      </trkpt>
      <trkpt lat="45.07764" lon="1.34499">
        <ele>233</ele>
        <time>2015-09-27T08:55:41Z</time>
      </trkpt>
      <trkpt lat="45.07759" lon="1.34486">
        <ele>233</ele>
        <time>2015-09-27T08:55:44Z</time>
      </trkpt>
      <trkpt lat="45.07758" lon="1.34473">
        <ele>233</ele>
        <time>2015-09-27T08:55:47Z</time>
      </trkpt>
      <trkpt lat="45.07758" lon="1.34454">
        <ele>234</ele>
        <time>2015-09-27T08:55:51Z</time>
      </trkpt>
      <trkpt lat="45.07766" lon="1.34398">
        <ele>233</ele>
        <time>2015-09-27T08:55:59Z</time>
      </trkpt>
      <trkpt lat="45.07776" lon="1.34368">
        <ele>232</ele>
        <time>2015-09-27T08:56:03Z</time>
      </trkpt>
      <trkpt lat="45.07784" lon="1.34344">
        <ele>230</ele>
        <time>2015-09-27T08:56:06Z</time>
      </trkpt>
      <trkpt lat="45.07788" lon="1.34318">
        <ele>229</ele>
        <time>2015-09-27T08:56:09Z</time>
      </trkpt>
      <trkpt lat="45.07791" lon="1.34288">
        <ele>228</ele>
        <time>2015-09-27T08:56:12Z</time>
      </trkpt>
      <trkpt lat="45.07795" lon="1.34259">
        <ele>226</ele>
        <time>2015-09-27T08:56:15Z</time>
      </trkpt>
      <trkpt lat="45.07804" lon="1.34231">
        <ele>225</ele>
        <time>2015-09-27T08:56:18Z</time>
      </trkpt>
      <trkpt lat="45.07814" lon="1.34191">
        <ele>222</ele>
        <time>2015-09-27T08:56:22Z</time>
      </trkpt>
      <trkpt lat="45.07821" lon="1.3416">
        <ele>222</ele>
        <time>2015-09-27T08:56:25Z</time>
      </trkpt>
      <trkpt lat="45.07845" lon="1.34116">
        <ele>222</ele>
        <time>2015-09-27T08:56:30Z</time>
      </trkpt>
      <trkpt lat="45.07872" lon="1.34092">
        <ele>222</ele>
        <time>2015-09-27T08:56:34Z</time>
      </trkpt>
      <trkpt lat="45.07889" lon="1.3406">
        <ele>222</ele>
        <time>2015-09-27T08:56:38Z</time>
      </trkpt>
      <trkpt lat="45.07903" lon="1.34044">
        <ele>222</ele>
        <time>2015-09-27T08:56:41Z</time>
      </trkpt>
      <trkpt lat="45.07936" lon="1.34034">
        <ele>221</ele>
        <time>2015-09-27T08:56:46Z</time>
      </trkpt>
      <trkpt lat="45.07974" lon="1.34027">
        <ele>219</ele>
        <time>2015-09-27T08:56:51Z</time>
      </trkpt>
      <trkpt lat="45.07992" lon="1.34037">
        <ele>219</ele>
        <time>2015-09-27T08:56:54Z</time>
      </trkpt>
      <trkpt lat="45.08008" lon="1.34058">
        <ele>219</ele>
        <time>2015-09-27T08:56:57Z</time>
      </trkpt>
      <trkpt lat="45.08029" lon="1.34088">
        <ele>218</ele>
        <time>2015-09-27T08:57:01Z</time>
      </trkpt>
      <trkpt lat="45.0804" lon="1.34112">
        <ele>219</ele>
        <time>2015-09-27T08:57:04Z</time>
      </trkpt>
      <trkpt lat="45.08049" lon="1.34135">
        <ele>219</ele>
        <time>2015-09-27T08:57:07Z</time>
      </trkpt>
      <trkpt lat="45.08057" lon="1.34159">
        <ele>221</ele>
        <time>2015-09-27T08:57:10Z</time>
      </trkpt>
      <trkpt lat="45.08069" lon="1.34194">
        <ele>222</ele>
        <time>2015-09-27T08:57:15Z</time>
      </trkpt>
      <trkpt lat="45.08076" lon="1.34212">
        <ele>223</ele>
        <time>2015-09-27T08:57:18Z</time>
      </trkpt>
      <trkpt lat="45.08091" lon="1.3422">
        <ele>224</ele>
        <time>2015-09-27T08:57:22Z</time>
      </trkpt>
      <trkpt lat="45.08098" lon="1.34204">
        <ele>224</ele>
        <time>2015-09-27T08:57:25Z</time>
      </trkpt>
      <trkpt lat="45.08103" lon="1.34185">
        <ele>225</ele>
        <time>2015-09-27T08:57:28Z</time>
      </trkpt>
      <trkpt lat="45.08111" lon="1.34156">
        <ele>226</ele>
        <time>2015-09-27T08:57:33Z</time>
      </trkpt>
      <trkpt lat="45.08124" lon="1.34109">
        <ele>226</ele>
        <time>2015-09-27T08:57:41Z</time>
      </trkpt>
      <trkpt lat="45.08134" lon="1.34074">
        <ele>226</ele>
        <time>2015-09-27T08:57:47Z</time>
      </trkpt>
      <trkpt lat="45.0814" lon="1.34047">
        <ele>226</ele>
        <time>2015-09-27T08:57:51Z</time>
      </trkpt>
      <trkpt lat="45.08148" lon="1.34004">
        <ele>225</ele>
        <time>2015-09-27T08:57:57Z</time>
      </trkpt>
      <trkpt lat="45.08154" lon="1.33975">
        <ele>225</ele>
        <time>2015-09-27T08:58:01Z</time>
      </trkpt>
      <trkpt lat="45.0816" lon="1.33942">
        <ele>224</ele>
        <time>2015-09-27T08:58:05Z</time>
      </trkpt>
      <trkpt lat="45.08165" lon="1.33881">
        <ele>222</ele>
        <time>2015-09-27T08:58:11Z</time>
      </trkpt>
      <trkpt lat="45.08173" lon="1.33848">
        <ele>221</ele>
        <time>2015-09-27T08:58:14Z</time>
      </trkpt>
      <trkpt lat="45.08186" lon="1.33805">
        <ele>220</ele>
        <time>2015-09-27T08:58:18Z</time>
      </trkpt>
      <trkpt lat="45.08198" lon="1.33774">
        <ele>219</ele>
        <time>2015-09-27T08:58:21Z</time>
      </trkpt>
      <trkpt lat="45.08212" lon="1.33746">
        <ele>218</ele>
        <time>2015-09-27T08:58:24Z</time>
      </trkpt>
      <trkpt lat="45.08226" lon="1.3372">
        <ele>218</ele>
        <time>2015-09-27T08:58:27Z</time>
      </trkpt>
      <trkpt lat="45.08237" lon="1.3369">
        <ele>217</ele>
        <time>2015-09-27T08:58:30Z</time>
      </trkpt>
      <trkpt lat="45.08246" lon="1.33643">
        <ele>215</ele>
        <time>2015-09-27T08:58:34Z</time>
      </trkpt>
      <trkpt lat="45.08248" lon="1.33609">
        <ele>215</ele>
        <time>2015-09-27T08:58:37Z</time>
      </trkpt>
      <trkpt lat="45.08253" lon="1.33563">
        <ele>214</ele>
        <time>2015-09-27T08:58:41Z</time>
      </trkpt>
      <trkpt lat="45.08263" lon="1.33527">
        <ele>213</ele>
        <time>2015-09-27T08:58:44Z</time>
      </trkpt>
      <trkpt lat="45.08274" lon="1.33489">
        <ele>211</ele>
        <time>2015-09-27T08:58:47Z</time>
      </trkpt>
      <trkpt lat="45.08289" lon="1.33424">
        <ele>209</ele>
        <time>2015-09-27T08:58:52Z</time>
      </trkpt>
      <trkpt lat="45.08315" lon="1.33343">
        <ele>208</ele>
        <time>2015-09-27T08:58:59Z</time>
      </trkpt>
      <trkpt lat="45.08321" lon="1.33313">
        <ele>208</ele>
        <time>2015-09-27T08:59:03Z</time>
      </trkpt>
      <trkpt lat="45.0833" lon="1.33289">
        <ele>208</ele>
        <time>2015-09-27T08:59:07Z</time>
      </trkpt>
      <trkpt lat="45.08339" lon="1.33264">
        <ele>210</ele>
        <time>2015-09-27T08:59:11Z</time>
      </trkpt>
      <trkpt lat="45.08343" lon="1.33245">
        <ele>210</ele>
        <time>2015-09-27T08:59:14Z</time>
      </trkpt>
      <trkpt lat="45.08347" lon="1.33223">
        <ele>211</ele>
        <time>2015-09-27T08:59:18Z</time>
      </trkpt>
      <trkpt lat="45.08349" lon="1.3321">
        <ele>211</ele>
        <time>2015-09-27T08:59:21Z</time>
      </trkpt>
      <trkpt lat="45.08356" lon="1.33188">
        <ele>212</ele>
        <time>2015-09-27T08:59:26Z</time>
      </trkpt>
      <trkpt lat="45.08359" lon="1.33163">
        <ele>213</ele>
        <time>2015-09-27T08:59:31Z</time>
      </trkpt>
      <trkpt lat="45.08366" lon="1.33127">
        <ele>214</ele>
        <time>2015-09-27T08:59:38Z</time>
      </trkpt>
      <trkpt lat="45.08372" lon="1.33099">
        <ele>215</ele>
        <time>2015-09-27T08:59:44Z</time>
      </trkpt>
      <trkpt lat="45.08382" lon="1.33072">
        <ele>216</ele>
        <time>2015-09-27T08:59:50Z</time>
      </trkpt>
      <trkpt lat="45.08393" lon="1.33047">
        <ele>215</ele>
        <time>2015-09-27T08:59:55Z</time>
      </trkpt>
      <trkpt lat="45.08405" lon="1.33009">
        <ele>214</ele>
        <time>2015-09-27T09:00:01Z</time>
      </trkpt>
      <trkpt lat="45.08413" lon="1.32975">
        <ele>213</ele>
        <time>2015-09-27T09:00:06Z</time>
      </trkpt>
      <trkpt lat="45.08418" lon="1.32952">
        <ele>213</ele>
        <time>2015-09-27T09:00:09Z</time>
      </trkpt>
      <trkpt lat="45.08424" lon="1.32911">
        <ele>212</ele>
        <time>2015-09-27T09:00:14Z</time>
      </trkpt>
      <trkpt lat="45.08435" lon="1.32889">
        <ele>212</ele>
        <time>2015-09-27T09:00:17Z</time>
      </trkpt>
      <trkpt lat="45.08449" lon="1.32858">
        <ele>211</ele>
        <time>2015-09-27T09:00:21Z</time>
      </trkpt>
      <trkpt lat="45.08454" lon="1.32831">
        <ele>210</ele>
        <time>2015-09-27T09:00:24Z</time>
      </trkpt>
      <trkpt lat="45.08455" lon="1.32803">
        <ele>210</ele>
        <time>2015-09-27T09:00:27Z</time>
      </trkpt>
      <trkpt lat="45.08464" lon="1.32759">
        <ele>209</ele>
        <time>2015-09-27T09:00:32Z</time>
      </trkpt>
      <trkpt lat="45.0847" lon="1.32717">
        <ele>208</ele>
        <time>2015-09-27T09:00:37Z</time>
      </trkpt>
      <trkpt lat="45.08477" lon="1.32685">
        <ele>207</ele>
        <time>2015-09-27T09:00:41Z</time>
      </trkpt>
      <trkpt lat="45.08484" lon="1.32653">
        <ele>206</ele>
        <time>2015-09-27T09:00:45Z</time>
      </trkpt>
      <trkpt lat="45.0849" lon="1.32629">
        <ele>206</ele>
        <time>2015-09-27T09:00:48Z</time>
      </trkpt>
      <trkpt lat="45.08501" lon="1.3259">
        <ele>205</ele>
        <time>2015-09-27T09:00:53Z</time>
      </trkpt>
      <trkpt lat="45.08508" lon="1.32558">
        <ele>205</ele>
        <time>2015-09-27T09:00:57Z</time>
      </trkpt>
      <trkpt lat="45.08515" lon="1.32516">
        <ele>205</ele>
        <time>2015-09-27T09:01:02Z</time>
      </trkpt>
      <trkpt lat="45.08522" lon="1.32495">
        <ele>206</ele>
        <time>2015-09-27T09:01:05Z</time>
      </trkpt>
      <trkpt lat="45.0853" lon="1.32466">
        <ele>206</ele>
        <time>2015-09-27T09:01:09Z</time>
      </trkpt>
      <trkpt lat="45.0854" lon="1.32437">
        <ele>207</ele>
        <time>2015-09-27T09:01:13Z</time>
      </trkpt>
      <trkpt lat="45.08546" lon="1.32414">
        <ele>206</ele>
        <time>2015-09-27T09:01:16Z</time>
      </trkpt>
      <trkpt lat="45.08549" lon="1.32387">
        <ele>205</ele>
        <time>2015-09-27T09:01:19Z</time>
      </trkpt>
      <trkpt lat="45.08558" lon="1.3236">
        <ele>204</ele>
        <time>2015-09-27T09:01:22Z</time>
      </trkpt>
      <trkpt lat="45.08567" lon="1.32338">
        <ele>201</ele>
        <time>2015-09-27T09:01:25Z</time>
      </trkpt>
      <trkpt lat="45.08582" lon="1.32327">
        <ele>200</ele>
        <time>2015-09-27T09:01:28Z</time>
      </trkpt>
      <trkpt lat="45.086" lon="1.32309">
        <ele>198</ele>
        <time>2015-09-27T09:01:32Z</time>
      </trkpt>
      <trkpt lat="45.08611" lon="1.32286">
        <ele>195</ele>
        <time>2015-09-27T09:01:35Z</time>
      </trkpt>
      <trkpt lat="45.08628" lon="1.32265">
        <ele>194</ele>
        <time>2015-09-27T09:01:38Z</time>
      </trkpt>
      <trkpt lat="45.08648" lon="1.32237">
        <ele>192</ele>
        <time>2015-09-27T09:01:43Z</time>
      </trkpt>
      <trkpt lat="45.08642" lon="1.32235">
        <ele>191</ele>
        <time>2015-09-27T09:01:46Z</time>
      </trkpt>
      <trkpt lat="45.0862" lon="1.32235">
        <ele>191</ele>
        <time>2015-09-27T09:01:51Z</time>
      </trkpt>
      <trkpt lat="45.08572" lon="1.32233">
        <ele>190</ele>
        <time>2015-09-27T09:01:59Z</time>
      </trkpt>
      <trkpt lat="45.08544" lon="1.32241">
        <ele>189</ele>
        <time>2015-09-27T09:02:04Z</time>
      </trkpt>
      <trkpt lat="45.08531" lon="1.32232">
        <ele>190</ele>
        <time>2015-09-27T09:02:07Z</time>
      </trkpt>
      <trkpt lat="45.08524" lon="1.32215">
        <ele>190</ele>
        <time>2015-09-27T09:02:10Z</time>
      </trkpt>
      <trkpt lat="45.08505" lon="1.3217">
        <ele>189</ele>
        <time>2015-09-27T09:02:17Z</time>
      </trkpt>
      <trkpt lat="45.085" lon="1.32146">
        <ele>188</ele>
        <time>2015-09-27T09:02:20Z</time>
      </trkpt>
      <trkpt lat="45.08495" lon="1.3212">
        <ele>188</ele>
        <time>2015-09-27T09:02:24Z</time>
      </trkpt>
      <trkpt lat="45.08479" lon="1.32087">
        <ele>189</ele>
        <time>2015-09-27T09:02:30Z</time>
      </trkpt>
      <trkpt lat="45.08469" lon="1.32074">
        <ele>190</ele>
        <time>2015-09-27T09:02:33Z</time>
      </trkpt>
      <trkpt lat="45.08458" lon="1.3206">
        <ele>190</ele>
        <time>2015-09-27T09:02:36Z</time>
      </trkpt>
      <trkpt lat="45.08445" lon="1.3204">
        <ele>189</ele>
        <time>2015-09-27T09:02:41Z</time>
      </trkpt>
      <trkpt lat="45.08436" lon="1.32025">
        <ele>189</ele>
        <time>2015-09-27T09:02:44Z</time>
      </trkpt>
      <trkpt lat="45.08435" lon="1.32002">
        <ele>188</ele>
        <time>2015-09-27T09:02:47Z</time>
      </trkpt>
      <trkpt lat="45.08429" lon="1.31977">
        <ele>187</ele>
        <time>2015-09-27T09:02:50Z</time>
      </trkpt>
      <trkpt lat="45.08419" lon="1.31953">
        <ele>186</ele>
        <time>2015-09-27T09:02:53Z</time>
      </trkpt>
      <trkpt lat="45.08406" lon="1.31936">
        <ele>185</ele>
        <time>2015-09-27T09:02:56Z</time>
      </trkpt>
      <trkpt lat="45.0839" lon="1.31932">
        <ele>184</ele>
        <time>2015-09-27T09:02:59Z</time>
      </trkpt>
      <trkpt lat="45.08377" lon="1.31915">
        <ele>184</ele>
        <time>2015-09-27T09:03:03Z</time>
      </trkpt>
      <trkpt lat="45.08371" lon="1.31888">
        <ele>182</ele>
        <time>2015-09-27T09:03:06Z</time>
      </trkpt>
      <trkpt lat="45.08367" lon="1.31854">
        <ele>181</ele>
        <time>2015-09-27T09:03:09Z</time>
      </trkpt>
      <trkpt lat="45.08356" lon="1.31823">
        <ele>178</ele>
        <time>2015-09-27T09:03:12Z</time>
      </trkpt>
      <trkpt lat="45.0835" lon="1.31788">
        <ele>176</ele>
        <time>2015-09-27T09:03:15Z</time>
      </trkpt>
      <trkpt lat="45.08346" lon="1.31752">
        <ele>173</ele>
        <time>2015-09-27T09:03:18Z</time>
      </trkpt>
      <trkpt lat="45.08347" lon="1.31714">
        <ele>172</ele>
        <time>2015-09-27T09:03:21Z</time>
      </trkpt>
      <trkpt lat="45.08356" lon="1.31666">
        <ele>168</ele>
        <time>2015-09-27T09:03:25Z</time>
      </trkpt>
      <trkpt lat="45.08363" lon="1.31644">
        <ele>165</ele>
        <time>2015-09-27T09:03:28Z</time>
      </trkpt>
      <trkpt lat="45.0839" lon="1.31643">
        <ele>163</ele>
        <time>2015-09-27T09:03:32Z</time>
      </trkpt>
      <trkpt lat="45.08409" lon="1.31637">
        <ele>162</ele>
        <time>2015-09-27T09:03:35Z</time>
      </trkpt>
      <trkpt lat="45.08427" lon="1.31624">
        <ele>159</ele>
        <time>2015-09-27T09:03:38Z</time>
      </trkpt>
      <trkpt lat="45.08445" lon="1.31607">
        <ele>156</ele>
        <time>2015-09-27T09:03:41Z</time>
      </trkpt>
      <trkpt lat="45.08462" lon="1.31592">
        <ele>152</ele>
        <time>2015-09-27T09:03:44Z</time>
      </trkpt>
      <trkpt lat="45.08461" lon="1.31553">
        <ele>149</ele>
        <time>2015-09-27T09:03:48Z</time>
      </trkpt>
      <trkpt lat="45.08454" lon="1.3151">
        <ele>145</ele>
        <time>2015-09-27T09:03:52Z</time>
      </trkpt>
      <trkpt lat="45.08444" lon="1.3146">
        <ele>142</ele>
        <time>2015-09-27T09:03:56Z</time>
      </trkpt>
      <trkpt lat="45.08437" lon="1.31409">
        <ele>140</ele>
        <time>2015-09-27T09:04:01Z</time>
      </trkpt>
      <trkpt lat="45.08435" lon="1.31397">
        <ele>144</ele>
        <time>2015-09-27T09:04:05Z</time>
      </trkpt>
      <trkpt lat="45.08435" lon="1.31394">
        <ele>145</ele>
        <time>2015-09-27T09:04:08Z</time>
      </trkpt>
      <trkpt lat="45.08434" lon="1.31388">
        <ele>146</ele>
        <time>2015-09-27T09:04:11Z</time>
      </trkpt>
      <trkpt lat="45.08433" lon="1.31383">
        <ele>148</ele>
        <time>2015-09-27T09:04:14Z</time>
      </trkpt>
      <trkpt lat="45.08431" lon="1.31373">
        <ele>149</ele>
        <time>2015-09-27T09:04:18Z</time>
      </trkpt>
      <trkpt lat="45.08428" lon="1.31364">
        <ele>149</ele>
        <time>2015-09-27T09:04:21Z</time>
      </trkpt>
      <trkpt lat="45.08426" lon="1.3135">
        <ele>149</ele>
        <time>2015-09-27T09:04:24Z</time>
      </trkpt>
      <trkpt lat="45.08421" lon="1.31315">
        <ele>148</ele>
        <time>2015-09-27T09:04:30Z</time>
      </trkpt>
      <trkpt lat="45.08416" lon="1.31293">
        <ele>146</ele>
        <time>2015-09-27T09:04:34Z</time>
      </trkpt>
      <trkpt lat="45.08412" lon="1.31272">
        <ele>145</ele>
        <time>2015-09-27T09:04:37Z</time>
      </trkpt>
      <trkpt lat="45.08408" lon="1.31245">
        <ele>142</ele>
        <time>2015-09-27T09:04:40Z</time>
      </trkpt>
      <trkpt lat="45.08403" lon="1.31213">
        <ele>138</ele>
        <time>2015-09-27T09:04:43Z</time>
      </trkpt>
      <trkpt lat="45.08396" lon="1.31176">
        <ele>132</ele>
        <time>2015-09-27T09:04:46Z</time>
      </trkpt>
      <trkpt lat="45.08391" lon="1.31151">
        <ele>132</ele>
        <time>2015-09-27T09:04:49Z</time>
      </trkpt>
      <trkpt lat="45.08388" lon="1.31135">
        <ele>135</ele>
        <time>2015-09-27T09:04:52Z</time>
      </trkpt>
      <trkpt lat="45.08386" lon="1.31116">
        <ele>138</ele>
        <time>2015-09-27T09:04:56Z</time>
      </trkpt>
      <trkpt lat="45.08384" lon="1.31102">
        <ele>139</ele>
        <time>2015-09-27T09:04:59Z</time>
      </trkpt>
      <trkpt lat="45.0838" lon="1.31082">
        <ele>140</ele>
        <time>2015-09-27T09:05:03Z</time>
      </trkpt>
      <trkpt lat="45.08373" lon="1.31043">
        <ele>140</ele>
        <time>2015-09-27T09:05:10Z</time>
      </trkpt>
      <trkpt lat="45.08369" lon="1.31014">
        <ele>139</ele>
        <time>2015-09-27T09:05:14Z</time>
      </trkpt>
      <trkpt lat="45.08364" lon="1.30988">
        <ele>138</ele>
        <time>2015-09-27T09:05:17Z</time>
      </trkpt>
      <trkpt lat="45.08357" lon="1.30952">
        <ele>134</ele>
        <time>2015-09-27T09:05:21Z</time>
      </trkpt>
      <trkpt lat="45.08351" lon="1.30925">
        <ele>130</ele>
        <time>2015-09-27T09:05:24Z</time>
      </trkpt>
      <trkpt lat="45.08346" lon="1.30897">
        <ele>126</ele>
        <time>2015-09-27T09:05:27Z</time>
      </trkpt>
      <trkpt lat="45.08342" lon="1.30868">
        <ele>121</ele>
        <time>2015-09-27T09:05:31Z</time>
      </trkpt>
      <trkpt lat="45.08339" lon="1.30844">
        <ele>118</ele>
        <time>2015-09-27T09:05:34Z</time>
      </trkpt>
      <trkpt lat="45.08333" lon="1.30817">
        <ele>119</ele>
        <time>2015-09-27T09:05:38Z</time>
      </trkpt>
      <trkpt lat="45.0833" lon="1.30802">
        <ele>121</ele>
        <time>2015-09-27T09:05:41Z</time>
      </trkpt>
      <trkpt lat="45.08331" lon="1.30793">
        <ele>123</ele>
        <time>2015-09-27T09:05:44Z</time>
      </trkpt>
      <trkpt lat="45.08335" lon="1.30785">
        <ele>124</ele>
        <time>2015-09-27T09:05:47Z</time>
      </trkpt>
      <trkpt lat="45.0833" lon="1.30775">
        <ele>126</ele>
        <time>2015-09-27T09:05:51Z</time>
      </trkpt>
      <trkpt lat="45.08327" lon="1.30766">
        <ele>127</ele>
        <time>2015-09-27T09:05:55Z</time>
      </trkpt>
      <trkpt lat="45.08326" lon="1.30758">
        <ele>129</ele>
        <time>2015-09-27T09:05:58Z</time>
      </trkpt>
      <trkpt lat="45.08324" lon="1.3075">
        <ele>130</ele>
        <time>2015-09-27T09:06:02Z</time>
      </trkpt>
      <trkpt lat="45.08323" lon="1.30745">
        <ele>131</ele>
        <time>2015-09-27T09:06:05Z</time>
      </trkpt>
      <trkpt lat="45.08321" lon="1.30738">
        <ele>132</ele>
        <time>2015-09-27T09:06:08Z</time>
      </trkpt>
      <trkpt lat="45.08319" lon="1.3073">
        <ele>134</ele>
        <time>2015-09-27T09:06:12Z</time>
      </trkpt>
      <trkpt lat="45.08317" lon="1.30721">
        <ele>135</ele>
        <time>2015-09-27T09:06:16Z</time>
      </trkpt>
      <trkpt lat="45.08315" lon="1.30712">
        <ele>136</ele>
        <time>2015-09-27T09:06:20Z</time>
      </trkpt>
      <trkpt lat="45.08314" lon="1.30706">
        <ele>137</ele>
        <time>2015-09-27T09:06:23Z</time>
      </trkpt>
      <trkpt lat="45.08312" lon="1.30697">
        <ele>138</ele>
        <time>2015-09-27T09:06:27Z</time>
      </trkpt>
      <trkpt lat="45.0831" lon="1.30689">
        <ele>139</ele>
        <time>2015-09-27T09:06:31Z</time>
      </trkpt>
      <trkpt lat="45.08309" lon="1.30674">
        <ele>141</ele>
        <time>2015-09-27T09:06:38Z</time>
      </trkpt>
      <trkpt lat="45.08306" lon="1.30661">
        <ele>142</ele>
        <time>2015-09-27T09:06:43Z</time>
      </trkpt>
      <trkpt lat="45.08303" lon="1.30651">
        <ele>142</ele>
        <time>2015-09-27T09:06:47Z</time>
      </trkpt>
      <trkpt lat="45.08301" lon="1.30632">
        <ele>143</ele>
        <time>2015-09-27T09:06:54Z</time>
      </trkpt>
      <trkpt lat="45.08299" lon="1.3062">
        <ele>144</ele>
        <time>2015-09-27T09:06:58Z</time>
      </trkpt>
      <trkpt lat="45.08297" lon="1.30609">
        <ele>144</ele>
        <time>2015-09-27T09:07:01Z</time>
      </trkpt>
      <trkpt lat="45.08294" lon="1.3059">
        <ele>144</ele>
        <time>2015-09-27T09:07:07Z</time>
      </trkpt>
      <trkpt lat="45.0829" lon="1.30573">
        <ele>144</ele>
        <time>2015-09-27T09:07:12Z</time>
      </trkpt>
      <trkpt lat="45.08289" lon="1.30562">
        <ele>144</ele>
        <time>2015-09-27T09:07:15Z</time>
      </trkpt>
      <trkpt lat="45.08284" lon="1.30541">
        <ele>143</ele>
        <time>2015-09-27T09:07:21Z</time>
      </trkpt>
      <trkpt lat="45.08283" lon="1.30521">
        <ele>142</ele>
        <time>2015-09-27T09:07:25Z</time>
      </trkpt>
      <trkpt lat="45.08281" lon="1.30507">
        <ele>141</ele>
        <time>2015-09-27T09:07:29Z</time>
      </trkpt>
      <trkpt lat="45.08276" lon="1.30482">
        <ele>140</ele>
        <time>2015-09-27T09:07:33Z</time>
      </trkpt>
      <trkpt lat="45.08273" lon="1.3046">
        <ele>141</ele>
        <time>2015-09-27T09:07:38Z</time>
      </trkpt>
      <trkpt lat="45.08272" lon="1.30454">
        <ele>143</ele>
        <time>2015-09-27T09:07:42Z</time>
      </trkpt>
      <trkpt lat="45.08272" lon="1.30449">
        <ele>144</ele>
        <time>2015-09-27T09:07:45Z</time>
      </trkpt>
      <trkpt lat="45.08271" lon="1.30443">
        <ele>145</ele>
        <time>2015-09-27T09:07:48Z</time>
      </trkpt>
      <trkpt lat="45.0827" lon="1.30437">
        <ele>146</ele>
        <time>2015-09-27T09:07:51Z</time>
      </trkpt>
      <trkpt lat="45.08269" lon="1.3043">
        <ele>148</ele>
        <time>2015-09-27T09:07:55Z</time>
      </trkpt>
      <trkpt lat="45.08267" lon="1.30424">
        <ele>149</ele>
        <time>2015-09-27T09:07:58Z</time>
      </trkpt>
      <trkpt lat="45.08266" lon="1.30419">
        <ele>150</ele>
        <time>2015-09-27T09:08:01Z</time>
      </trkpt>
      <trkpt lat="45.08265" lon="1.30412">
        <ele>152</ele>
        <time>2015-09-27T09:08:04Z</time>
      </trkpt>
      <trkpt lat="45.08262" lon="1.30402">
        <ele>153</ele>
        <time>2015-09-27T09:08:08Z</time>
      </trkpt>
      <trkpt lat="45.08261" lon="1.30394">
        <ele>154</ele>
        <time>2015-09-27T09:08:12Z</time>
      </trkpt>
      <trkpt lat="45.08259" lon="1.30384">
        <ele>155</ele>
        <time>2015-09-27T09:08:16Z</time>
      </trkpt>
      <trkpt lat="45.08257" lon="1.30371">
        <ele>156</ele>
        <time>2015-09-27T09:08:21Z</time>
      </trkpt>
      <trkpt lat="45.08252" lon="1.30356">
        <ele>157</ele>
        <time>2015-09-27T09:08:26Z</time>
      </trkpt>
      <trkpt lat="45.08248" lon="1.30333">
        <ele>159</ele>
        <time>2015-09-27T09:08:33Z</time>
      </trkpt>
      <trkpt lat="45.08241" lon="1.30304">
        <ele>159</ele>
        <time>2015-09-27T09:08:40Z</time>
      </trkpt>
      <trkpt lat="45.08236" lon="1.30275">
        <ele>159</ele>
        <time>2015-09-27T09:08:47Z</time>
      </trkpt>
      <trkpt lat="45.0824" lon="1.30259">
        <ele>159</ele>
        <time>2015-09-27T09:08:51Z</time>
      </trkpt>
      <trkpt lat="45.08253" lon="1.30253">
        <ele>160</ele>
        <time>2015-09-27T09:08:57Z</time>
      </trkpt>
      <trkpt lat="45.08268" lon="1.30247">
        <ele>161</ele>
        <time>2015-09-27T09:09:04Z</time>
      </trkpt>
      <trkpt lat="45.08278" lon="1.3025">
        <ele>162</ele>
        <time>2015-09-27T09:09:09Z</time>
      </trkpt>
      <trkpt lat="45.0829" lon="1.30257">
        <ele>163</ele>
        <time>2015-09-27T09:09:14Z</time>
      </trkpt>
      <trkpt lat="45.083" lon="1.30261">
        <ele>164</ele>
        <time>2015-09-27T09:09:18Z</time>
      </trkpt>
      <trkpt lat="45.08318" lon="1.3027">
        <ele>165</ele>
        <time>2015-09-27T09:09:25Z</time>
      </trkpt>
      <trkpt lat="45.08329" lon="1.30266">
        <ele>166</ele>
        <time>2015-09-27T09:09:29Z</time>
      </trkpt>
      <trkpt lat="45.08342" lon="1.30249">
        <ele>167</ele>
        <time>2015-09-27T09:09:34Z</time>
      </trkpt>
      <trkpt lat="45.08359" lon="1.30221">
        <ele>168</ele>
        <time>2015-09-27T09:09:42Z</time>
      </trkpt>
      <trkpt lat="45.08375" lon="1.3021">
        <ele>169</ele>
        <time>2015-09-27T09:09:48Z</time>
      </trkpt>
      <trkpt lat="45.08381" lon="1.302">
        <ele>169</ele>
        <time>2015-09-27T09:09:51Z</time>
      </trkpt>
      <trkpt lat="45.0839" lon="1.30199">
        <ele>169</ele>
        <time>2015-09-27T09:09:54Z</time>
      </trkpt>
      <trkpt lat="45.08405" lon="1.30198">
        <ele>170</ele>
        <time>2015-09-27T09:09:59Z</time>
      </trkpt>
      <trkpt lat="45.08423" lon="1.30189">
        <ele>171</ele>
        <time>2015-09-27T09:10:04Z</time>
      </trkpt>
      <trkpt lat="45.08438" lon="1.3019">
        <ele>171</ele>
        <time>2015-09-27T09:10:08Z</time>
      </trkpt>
      <trkpt lat="45.0845" lon="1.30195">
        <ele>171</ele>
        <time>2015-09-27T09:10:11Z</time>
      </trkpt>
      <trkpt lat="45.08464" lon="1.30203">
        <ele>173</ele>
        <time>2015-09-27T09:10:15Z</time>
      </trkpt>
      <trkpt lat="45.08483" lon="1.30209">
        <ele>173</ele>
        <time>2015-09-27T09:10:20Z</time>
      </trkpt>
      <trkpt lat="45.08496" lon="1.30212">
        <ele>174</ele>
        <time>2015-09-27T09:10:23Z</time>
      </trkpt>
      <trkpt lat="45.08514" lon="1.30215">
        <ele>174</ele>
        <time>2015-09-27T09:10:27Z</time>
      </trkpt>
      <trkpt lat="45.0855" lon="1.30206">
        <ele>175</ele>
        <time>2015-09-27T09:10:35Z</time>
      </trkpt>
      <trkpt lat="45.08572" lon="1.30197">
        <ele>175</ele>
        <time>2015-09-27T09:10:40Z</time>
      </trkpt>
      <trkpt lat="45.08591" lon="1.30187">
        <ele>174</ele>
        <time>2015-09-27T09:10:44Z</time>
      </trkpt>
      <trkpt lat="45.08607" lon="1.30183">
        <ele>174</ele>
        <time>2015-09-27T09:10:47Z</time>
      </trkpt>
      <trkpt lat="45.08629" lon="1.30175">
        <ele>174</ele>
        <time>2015-09-27T09:10:51Z</time>
      </trkpt>
      <trkpt lat="45.0865" lon="1.30174">
        <ele>175</ele>
        <time>2015-09-27T09:10:55Z</time>
      </trkpt>
      <trkpt lat="45.08668" lon="1.30181">
        <ele>176</ele>
        <time>2015-09-27T09:10:59Z</time>
      </trkpt>
      <trkpt lat="45.0869" lon="1.30181">
        <ele>177</ele>
        <time>2015-09-27T09:11:04Z</time>
      </trkpt>
      <trkpt lat="45.08704" lon="1.30179">
        <ele>178</ele>
        <time>2015-09-27T09:11:07Z</time>
      </trkpt>
      <trkpt lat="45.08723" lon="1.30174">
        <ele>179</ele>
        <time>2015-09-27T09:11:11Z</time>
      </trkpt>
      <trkpt lat="45.08737" lon="1.30169">
        <ele>179</ele>
        <time>2015-09-27T09:11:14Z</time>
      </trkpt>
      <trkpt lat="45.08749" lon="1.3016">
        <ele>179</ele>
        <time>2015-09-27T09:11:17Z</time>
      </trkpt>
      <trkpt lat="45.08761" lon="1.30149">
        <ele>178</ele>
        <time>2015-09-27T09:11:20Z</time>
      </trkpt>
      <trkpt lat="45.08787" lon="1.30134">
        <ele>178</ele>
        <time>2015-09-27T09:11:25Z</time>
      </trkpt>
      <trkpt lat="45.08816" lon="1.30122">
        <ele>178</ele>
        <time>2015-09-27T09:11:31Z</time>
      </trkpt>
      <trkpt lat="45.08839" lon="1.30108">
        <ele>179</ele>
        <time>2015-09-27T09:11:37Z</time>
      </trkpt>
      <trkpt lat="45.08846" lon="1.30092">
        <ele>180</ele>
        <time>2015-09-27T09:11:41Z</time>
      </trkpt>
      <trkpt lat="45.08854" lon="1.30054">
        <ele>179</ele>
        <time>2015-09-27T09:11:47Z</time>
      </trkpt>
      <trkpt lat="45.08857" lon="1.30018">
        <ele>179</ele>
        <time>2015-09-27T09:11:52Z</time>
      </trkpt>
      <trkpt lat="45.08856" lon="1.29995">
        <ele>178</ele>
        <time>2015-09-27T09:11:55Z</time>
      </trkpt>
      <trkpt lat="45.08855" lon="1.29959">
        <ele>177</ele>
        <time>2015-09-27T09:11:59Z</time>
      </trkpt>
      <trkpt lat="45.08852" lon="1.29927">
        <ele>177</ele>
        <time>2015-09-27T09:12:03Z</time>
      </trkpt>
      <trkpt lat="45.08852" lon="1.29866">
        <ele>177</ele>
        <time>2015-09-27T09:12:11Z</time>
      </trkpt>
      <trkpt lat="45.08852" lon="1.29827">
        <ele>177</ele>
        <time>2015-09-27T09:12:16Z</time>
      </trkpt>
      <trkpt lat="45.08846" lon="1.2978">
        <ele>177</ele>
        <time>2015-09-27T09:12:22Z</time>
      </trkpt>
      <trkpt lat="45.08834" lon="1.29735">
        <ele>178</ele>
        <time>2015-09-27T09:12:28Z</time>
      </trkpt>
      <trkpt lat="45.0883" lon="1.29685">
        <ele>179</ele>
        <time>2015-09-27T09:12:36Z</time>
      </trkpt>
      <trkpt lat="45.08839" lon="1.29687">
        <ele>180</ele>
        <time>2015-09-27T09:12:39Z</time>
      </trkpt>
      <trkpt lat="45.08852" lon="1.29687">
        <ele>180</ele>
        <time>2015-09-27T09:12:44Z</time>
      </trkpt>
      <trkpt lat="45.08853" lon="1.29687">
        <ele>180</ele>
        <time>2015-09-27T09:12:48Z</time>
      </trkpt>
      <trkpt lat="45.08854" lon="1.29686">
        <ele>180</ele>
        <time>2015-09-27T09:14:09Z</time>
      </trkpt>
      <trkpt lat="45.08858" lon="1.29687">
        <ele>179</ele>
        <time>2015-09-27T09:14:13Z</time>
      </trkpt>
      <trkpt lat="45.08885" lon="1.29693">
        <ele>179</ele>
        <time>2015-09-27T09:14:20Z</time>
      </trkpt>
      <trkpt lat="45.08899" lon="1.29703">
        <ele>179</ele>
        <time>2015-09-27T09:14:23Z</time>
      </trkpt>
      <trkpt lat="45.08912" lon="1.29715">
        <ele>179</ele>
        <time>2015-09-27T09:14:26Z</time>
      </trkpt>
      <trkpt lat="45.08927" lon="1.29718">
        <ele>179</ele>
        <time>2015-09-27T09:14:29Z</time>
      </trkpt>
      <trkpt lat="45.08952" lon="1.29716">
        <ele>179</ele>
        <time>2015-09-27T09:14:33Z</time>
      </trkpt>
      <trkpt lat="45.08971" lon="1.29706">
        <ele>178</ele>
        <time>2015-09-27T09:14:36Z</time>
      </trkpt>
      <trkpt lat="45.0899" lon="1.29692">
        <ele>177</ele>
        <time>2015-09-27T09:14:39Z</time>
      </trkpt>
      <trkpt lat="45.09011" lon="1.29685">
        <ele>176</ele>
        <time>2015-09-27T09:14:42Z</time>
      </trkpt>
      <trkpt lat="45.09046" lon="1.29686">
        <ele>173</ele>
        <time>2015-09-27T09:14:46Z</time>
      </trkpt>
      <trkpt lat="45.09088" lon="1.29694">
        <ele>171</ele>
        <time>2015-09-27T09:14:51Z</time>
      </trkpt>
      <trkpt lat="45.09125" lon="1.29714">
        <ele>172</ele>
        <time>2015-09-27T09:14:56Z</time>
      </trkpt>
      <trkpt lat="45.09142" lon="1.29731">
        <ele>173</ele>
        <time>2015-09-27T09:14:59Z</time>
      </trkpt>
      <trkpt lat="45.09153" lon="1.29749">
        <ele>174</ele>
        <time>2015-09-27T09:15:02Z</time>
      </trkpt>
      <trkpt lat="45.09163" lon="1.2977">
        <ele>174</ele>
        <time>2015-09-27T09:15:05Z</time>
      </trkpt>
      <trkpt lat="45.09174" lon="1.29808">
        <ele>173</ele>
        <time>2015-09-27T09:15:10Z</time>
      </trkpt>
      <trkpt lat="45.09182" lon="1.29834">
        <ele>172</ele>
        <time>2015-09-27T09:15:13Z</time>
      </trkpt>
      <trkpt lat="45.09193" lon="1.29857">
        <ele>171</ele>
        <time>2015-09-27T09:15:16Z</time>
      </trkpt>
      <trkpt lat="45.0921" lon="1.29877">
        <ele>169</ele>
        <time>2015-09-27T09:15:19Z</time>
      </trkpt>
      <trkpt lat="45.09229" lon="1.29895">
        <ele>169</ele>
        <time>2015-09-27T09:15:22Z</time>
      </trkpt>
      <trkpt lat="45.09254" lon="1.29911">
        <ele>170</ele>
        <time>2015-09-27T09:15:26Z</time>
      </trkpt>
      <trkpt lat="45.09298" lon="1.29936">
        <ele>170</ele>
        <time>2015-09-27T09:15:33Z</time>
      </trkpt>
      <trkpt lat="45.09333" lon="1.29964">
        <ele>169</ele>
        <time>2015-09-27T09:15:39Z</time>
      </trkpt>
      <trkpt lat="45.09358" lon="1.2998">
        <ele>168</ele>
        <time>2015-09-27T09:15:43Z</time>
      </trkpt>
      <trkpt lat="45.09391" lon="1.29999">
        <ele>167</ele>
        <time>2015-09-27T09:15:48Z</time>
      </trkpt>
      <trkpt lat="45.09416" lon="1.30018">
        <ele>166</ele>
        <time>2015-09-27T09:15:52Z</time>
      </trkpt>
      <trkpt lat="45.09439" lon="1.3004">
        <ele>165</ele>
        <time>2015-09-27T09:15:56Z</time>
      </trkpt>
      <trkpt lat="45.09464" lon="1.30061">
        <ele>163</ele>
        <time>2015-09-27T09:16:00Z</time>
      </trkpt>
      <trkpt lat="45.09478" lon="1.30084">
        <ele>162</ele>
        <time>2015-09-27T09:16:03Z</time>
      </trkpt>
      <trkpt lat="45.09491" lon="1.30107">
        <ele>162</ele>
        <time>2015-09-27T09:16:06Z</time>
      </trkpt>
      <trkpt lat="45.09512" lon="1.30135">
        <ele>159</ele>
        <time>2015-09-27T09:16:10Z</time>
      </trkpt>
      <trkpt lat="45.09542" lon="1.30131">
        <ele>156</ele>
        <time>2015-09-27T09:16:14Z</time>
      </trkpt>
      <trkpt lat="45.09567" lon="1.30114">
        <ele>153</ele>
        <time>2015-09-27T09:16:17Z</time>
      </trkpt>
      <trkpt lat="45.09595" lon="1.30097">
        <ele>151</ele>
        <time>2015-09-27T09:16:20Z</time>
      </trkpt>
      <trkpt lat="45.09622" lon="1.3008">
        <ele>149</ele>
        <time>2015-09-27T09:16:23Z</time>
      </trkpt>
      <trkpt lat="45.09647" lon="1.30068">
        <ele>148</ele>
        <time>2015-09-27T09:16:26Z</time>
      </trkpt>
      <trkpt lat="45.09673" lon="1.30064">
        <ele>148</ele>
        <time>2015-09-27T09:16:29Z</time>
      </trkpt>
      <trkpt lat="45.09701" lon="1.30061">
        <ele>147</ele>
        <time>2015-09-27T09:16:32Z</time>
      </trkpt>
      <trkpt lat="45.09726" lon="1.30054">
        <ele>146</ele>
        <time>2015-09-27T09:16:35Z</time>
      </trkpt>
      <trkpt lat="45.0975" lon="1.30043">
        <ele>146</ele>
        <time>2015-09-27T09:16:38Z</time>
      </trkpt>
      <trkpt lat="45.09778" lon="1.30025">
        <ele>145</ele>
        <time>2015-09-27T09:16:42Z</time>
      </trkpt>
      <trkpt lat="45.09807" lon="1.30013">
        <ele>145</ele>
        <time>2015-09-27T09:16:46Z</time>
      </trkpt>
      <trkpt lat="45.09831" lon="1.2999">
        <ele>143</ele>
        <time>2015-09-27T09:16:50Z</time>
      </trkpt>
      <trkpt lat="45.09853" lon="1.29967">
        <ele>142</ele>
        <time>2015-09-27T09:16:54Z</time>
      </trkpt>
      <trkpt lat="45.09873" lon="1.29959">
        <ele>139</ele>
        <time>2015-09-27T09:16:57Z</time>
      </trkpt>
      <trkpt lat="45.09898" lon="1.29958">
        <ele>135</ele>
        <time>2015-09-27T09:17:00Z</time>
      </trkpt>
      <trkpt lat="45.09925" lon="1.29955">
        <ele>129</ele>
        <time>2015-09-27T09:17:03Z</time>
      </trkpt>
      <trkpt lat="45.09952" lon="1.29949">
        <ele>125</ele>
        <time>2015-09-27T09:17:06Z</time>
      </trkpt>
      <trkpt lat="45.09976" lon="1.29945">
        <ele>118</ele>
        <time>2015-09-27T09:17:09Z</time>
      </trkpt>
      <trkpt lat="45.10003" lon="1.29944">
        <ele>112</ele>
        <time>2015-09-27T09:17:12Z</time>
      </trkpt>
      <trkpt lat="45.10031" lon="1.29944">
        <ele>105</ele>
        <time>2015-09-27T09:17:15Z</time>
      </trkpt>
      <trkpt lat="45.1006" lon="1.29945">
        <ele>100</ele>
        <time>2015-09-27T09:17:18Z</time>
      </trkpt>
      <trkpt lat="45.10088" lon="1.29952">
        <ele>95</ele>
        <time>2015-09-27T09:17:21Z</time>
      </trkpt>
      <trkpt lat="45.10113" lon="1.29964">
        <ele>91</ele>
        <time>2015-09-27T09:17:24Z</time>
      </trkpt>
      <trkpt lat="45.10132" lon="1.29977">
        <ele>85</ele>
        <time>2015-09-27T09:17:27Z</time>
      </trkpt>
      <trkpt lat="45.10141" lon="1.3001">
        <ele>83</ele>
        <time>2015-09-27T09:17:31Z</time>
      </trkpt>
      <trkpt lat="45.10145" lon="1.30036">
        <ele>83</ele>
        <time>2015-09-27T09:17:34Z</time>
      </trkpt>
      <trkpt lat="45.1015" lon="1.30054">
        <ele>84</ele>
        <time>2015-09-27T09:17:37Z</time>
      </trkpt>
      <trkpt lat="45.10157" lon="1.30071">
        <ele>86</ele>
        <time>2015-09-27T09:17:41Z</time>
      </trkpt>
      <trkpt lat="45.10162" lon="1.30087">
        <ele>88</ele>
        <time>2015-09-27T09:17:45Z</time>
      </trkpt>
      <trkpt lat="45.10169" lon="1.30107">
        <ele>90</ele>
        <time>2015-09-27T09:17:50Z</time>
      </trkpt>
      <trkpt lat="45.10175" lon="1.3012">
        <ele>91</ele>
        <time>2015-09-27T09:17:54Z</time>
      </trkpt>
      <trkpt lat="45.10182" lon="1.30128">
        <ele>92</ele>
        <time>2015-09-27T09:17:57Z</time>
      </trkpt>
      <trkpt lat="45.10198" lon="1.30139">
        <ele>93</ele>
        <time>2015-09-27T09:18:03Z</time>
      </trkpt>
      <trkpt lat="45.10214" lon="1.30147">
        <ele>95</ele>
        <time>2015-09-27T09:18:09Z</time>
      </trkpt>
      <trkpt lat="45.10227" lon="1.30151">
        <ele>96</ele>
        <time>2015-09-27T09:18:14Z</time>
      </trkpt>
      <trkpt lat="45.10238" lon="1.30151">
        <ele>97</ele>
        <time>2015-09-27T09:18:18Z</time>
      </trkpt>
      <trkpt lat="45.10252" lon="1.30152">
        <ele>98</ele>
        <time>2015-09-27T09:18:23Z</time>
      </trkpt>
      <trkpt lat="45.10262" lon="1.30152">
        <ele>99</ele>
        <time>2015-09-27T09:18:27Z</time>
      </trkpt>
      <trkpt lat="45.10273" lon="1.30153">
        <ele>100</ele>
        <time>2015-09-27T09:18:31Z</time>
      </trkpt>
      <trkpt lat="45.10285" lon="1.30158">
        <ele>101</ele>
        <time>2015-09-27T09:18:36Z</time>
      </trkpt>
      <trkpt lat="45.10293" lon="1.3016">
        <ele>102</ele>
        <time>2015-09-27T09:18:39Z</time>
      </trkpt>
      <trkpt lat="45.10303" lon="1.30164">
        <ele>104</ele>
        <time>2015-09-27T09:18:43Z</time>
      </trkpt>
      <trkpt lat="45.10312" lon="1.3017">
        <ele>104</ele>
        <time>2015-09-27T09:18:46Z</time>
      </trkpt>
      <trkpt lat="45.10324" lon="1.3018">
        <ele>106</ele>
        <time>2015-09-27T09:18:51Z</time>
      </trkpt>
      <trkpt lat="45.10333" lon="1.30191">
        <ele>107</ele>
        <time>2015-09-27T09:18:56Z</time>
      </trkpt>
      <trkpt lat="45.1034" lon="1.30201">
        <ele>108</ele>
        <time>2015-09-27T09:19:00Z</time>
      </trkpt>
      <trkpt lat="45.10346" lon="1.30211">
        <ele>110</ele>
        <time>2015-09-27T09:19:04Z</time>
      </trkpt>
      <trkpt lat="45.1035" lon="1.30217">
        <ele>110</ele>
        <time>2015-09-27T09:19:07Z</time>
      </trkpt>
      <trkpt lat="45.10357" lon="1.30226">
        <ele>112</ele>
        <time>2015-09-27T09:19:11Z</time>
      </trkpt>
      <trkpt lat="45.10362" lon="1.30234">
        <ele>113</ele>
        <time>2015-09-27T09:19:14Z</time>
      </trkpt>
      <trkpt lat="45.10369" lon="1.30245">
        <ele>114</ele>
        <time>2015-09-27T09:19:19Z</time>
      </trkpt>
      <trkpt lat="45.10372" lon="1.30252">
        <ele>115</ele>
        <time>2015-09-27T09:19:22Z</time>
      </trkpt>
      <trkpt lat="45.10376" lon="1.30258">
        <ele>116</ele>
        <time>2015-09-27T09:19:25Z</time>
      </trkpt>
      <trkpt lat="45.10382" lon="1.30264">
        <ele>117</ele>
        <time>2015-09-27T09:19:28Z</time>
      </trkpt>
      <trkpt lat="45.10388" lon="1.30272">
        <ele>119</ele>
        <time>2015-09-27T09:19:32Z</time>
      </trkpt>
      <trkpt lat="45.10395" lon="1.30279">
        <ele>120</ele>
        <time>2015-09-27T09:19:36Z</time>
      </trkpt>
      <trkpt lat="45.10402" lon="1.30285">
        <ele>121</ele>
        <time>2015-09-27T09:19:40Z</time>
      </trkpt>
      <trkpt lat="45.10409" lon="1.30288">
        <ele>122</ele>
        <time>2015-09-27T09:19:44Z</time>
      </trkpt>
      <trkpt lat="45.10416" lon="1.3029">
        <ele>123</ele>
        <time>2015-09-27T09:19:48Z</time>
      </trkpt>
      <trkpt lat="45.10425" lon="1.30292">
        <ele>125</ele>
        <time>2015-09-27T09:19:53Z</time>
      </trkpt>
      <trkpt lat="45.10435" lon="1.30293">
        <ele>126</ele>
        <time>2015-09-27T09:19:58Z</time>
      </trkpt>
      <trkpt lat="45.10441" lon="1.30295">
        <ele>127</ele>
        <time>2015-09-27T09:20:01Z</time>
      </trkpt>
      <trkpt lat="45.10449" lon="1.30292">
        <ele>128</ele>
        <time>2015-09-27T09:20:05Z</time>
      </trkpt>
      <trkpt lat="45.10454" lon="1.30289">
        <ele>129</ele>
        <time>2015-09-27T09:20:08Z</time>
      </trkpt>
      <trkpt lat="45.1046" lon="1.30286">
        <ele>130</ele>
        <time>2015-09-27T09:20:11Z</time>
      </trkpt>
      <trkpt lat="45.10466" lon="1.30283">
        <ele>131</ele>
        <time>2015-09-27T09:20:14Z</time>
      </trkpt>
      <trkpt lat="45.10472" lon="1.30281">
        <ele>132</ele>
        <time>2015-09-27T09:20:17Z</time>
      </trkpt>
      <trkpt lat="45.10477" lon="1.3028">
        <ele>132</ele>
        <time>2015-09-27T09:20:20Z</time>
      </trkpt>
      <trkpt lat="45.10487" lon="1.3028">
        <ele>134</ele>
        <time>2015-09-27T09:20:25Z</time>
      </trkpt>
      <trkpt lat="45.10494" lon="1.30278">
        <ele>135</ele>
        <time>2015-09-27T09:20:29Z</time>
      </trkpt>
      <trkpt lat="45.10501" lon="1.30278">
        <ele>136</ele>
        <time>2015-09-27T09:20:33Z</time>
      </trkpt>
      <trkpt lat="45.10508" lon="1.30278">
        <ele>137</ele>
        <time>2015-09-27T09:20:37Z</time>
      </trkpt>
      <trkpt lat="45.10515" lon="1.30279">
        <ele>138</ele>
        <time>2015-09-27T09:20:41Z</time>
      </trkpt>
      <trkpt lat="45.10523" lon="1.30281">
        <ele>139</ele>
        <time>2015-09-27T09:20:45Z</time>
      </trkpt>
      <trkpt lat="45.1053" lon="1.30283">
        <ele>141</ele>
        <time>2015-09-27T09:20:48Z</time>
      </trkpt>
      <trkpt lat="45.10539" lon="1.30288">
        <ele>142</ele>
        <time>2015-09-27T09:20:53Z</time>
      </trkpt>
      <trkpt lat="45.10545" lon="1.30293">
        <ele>143</ele>
        <time>2015-09-27T09:20:56Z</time>
      </trkpt>
      <trkpt lat="45.10552" lon="1.30302">
        <ele>145</ele>
        <time>2015-09-27T09:21:01Z</time>
      </trkpt>
      <trkpt lat="45.10557" lon="1.3031">
        <ele>146</ele>
        <time>2015-09-27T09:21:05Z</time>
      </trkpt>
      <trkpt lat="45.10561" lon="1.30317">
        <ele>147</ele>
        <time>2015-09-27T09:21:08Z</time>
      </trkpt>
      <trkpt lat="45.10565" lon="1.30323">
        <ele>148</ele>
        <time>2015-09-27T09:21:11Z</time>
      </trkpt>
      <trkpt lat="45.10569" lon="1.30319">
        <ele>149</ele>
        <time>2015-09-27T09:21:14Z</time>
      </trkpt>
      <trkpt lat="45.10571" lon="1.303">
        <ele>150</ele>
        <time>2015-09-27T09:21:19Z</time>
      </trkpt>
      <trkpt lat="45.10566" lon="1.30267">
        <ele>150</ele>
        <time>2015-09-27T09:21:25Z</time>
      </trkpt>
      <trkpt lat="45.10565" lon="1.30249">
        <ele>151</ele>
        <time>2015-09-27T09:21:28Z</time>
      </trkpt>
      <trkpt lat="45.10566" lon="1.30226">
        <ele>151</ele>
        <time>2015-09-27T09:21:32Z</time>
      </trkpt>
      <trkpt lat="45.10572" lon="1.30206">
        <ele>151</ele>
        <time>2015-09-27T09:21:36Z</time>
      </trkpt>
      <trkpt lat="45.10589" lon="1.30183">
        <ele>152</ele>
        <time>2015-09-27T09:21:42Z</time>
      </trkpt>
      <trkpt lat="45.10601" lon="1.30176">
        <ele>152</ele>
        <time>2015-09-27T09:21:45Z</time>
      </trkpt>
      <trkpt lat="45.10617" lon="1.30172">
        <ele>152</ele>
        <time>2015-09-27T09:21:49Z</time>
      </trkpt>
      <trkpt lat="45.10641" lon="1.30177">
        <ele>154</ele>
        <time>2015-09-27T09:21:55Z</time>
      </trkpt>
      <trkpt lat="45.10665" lon="1.30184">
        <ele>155</ele>
        <time>2015-09-27T09:22:01Z</time>
      </trkpt>
      <trkpt lat="45.10685" lon="1.30192">
        <ele>156</ele>
        <time>2015-09-27T09:22:06Z</time>
      </trkpt>
      <trkpt lat="45.10698" lon="1.30201">
        <ele>157</ele>
        <time>2015-09-27T09:22:10Z</time>
      </trkpt>
      <trkpt lat="45.10706" lon="1.3021">
        <ele>158</ele>
        <time>2015-09-27T09:22:13Z</time>
      </trkpt>
      <trkpt lat="45.10715" lon="1.30224">
        <ele>159</ele>
        <time>2015-09-27T09:22:17Z</time>
      </trkpt>
      <trkpt lat="45.10722" lon="1.30236">
        <ele>161</ele>
        <time>2015-09-27T09:22:20Z</time>
      </trkpt>
      <trkpt lat="45.10727" lon="1.30248">
        <ele>162</ele>
        <time>2015-09-27T09:22:23Z</time>
      </trkpt>
      <trkpt lat="45.10736" lon="1.30264">
        <ele>163</ele>
        <time>2015-09-27T09:22:27Z</time>
      </trkpt>
      <trkpt lat="45.10746" lon="1.30279">
        <ele>164</ele>
        <time>2015-09-27T09:22:31Z</time>
      </trkpt>
      <trkpt lat="45.10758" lon="1.30292">
        <ele>165</ele>
        <time>2015-09-27T09:22:35Z</time>
      </trkpt>
      <trkpt lat="45.1077" lon="1.30303">
        <ele>166</ele>
        <time>2015-09-27T09:22:39Z</time>
      </trkpt>
      <trkpt lat="45.10778" lon="1.30311">
        <ele>167</ele>
        <time>2015-09-27T09:22:42Z</time>
      </trkpt>
      <trkpt lat="45.10786" lon="1.30321">
        <ele>168</ele>
        <time>2015-09-27T09:22:45Z</time>
      </trkpt>
      <trkpt lat="45.10798" lon="1.30332">
        <ele>169</ele>
        <time>2015-09-27T09:22:49Z</time>
      </trkpt>
      <trkpt lat="45.10807" lon="1.30341">
        <ele>170</ele>
        <time>2015-09-27T09:22:52Z</time>
      </trkpt>
      <trkpt lat="45.10816" lon="1.3035">
        <ele>170</ele>
        <time>2015-09-27T09:22:55Z</time>
      </trkpt>
      <trkpt lat="45.10844" lon="1.30374">
        <ele>171</ele>
        <time>2015-09-27T09:23:03Z</time>
      </trkpt>
      <trkpt lat="45.10865" lon="1.30403">
        <ele>172</ele>
        <time>2015-09-27T09:23:10Z</time>
      </trkpt>
      <trkpt lat="45.1088" lon="1.30426">
        <ele>172</ele>
        <time>2015-09-27T09:23:15Z</time>
      </trkpt>
      <trkpt lat="45.10888" lon="1.3044">
        <ele>172</ele>
        <time>2015-09-27T09:23:18Z</time>
      </trkpt>
      <trkpt lat="45.10903" lon="1.30468">
        <ele>172</ele>
        <time>2015-09-27T09:23:23Z</time>
      </trkpt>
      <trkpt lat="45.10918" lon="1.30486">
        <ele>172</ele>
        <time>2015-09-27T09:23:27Z</time>
      </trkpt>
      <trkpt lat="45.1093" lon="1.30496">
        <ele>171</ele>
        <time>2015-09-27T09:23:30Z</time>
      </trkpt>
      <trkpt lat="45.10946" lon="1.30504">
        <ele>171</ele>
        <time>2015-09-27T09:23:34Z</time>
      </trkpt>
      <trkpt lat="45.10964" lon="1.30505">
        <ele>171</ele>
        <time>2015-09-27T09:23:38Z</time>
      </trkpt>
      <trkpt lat="45.10977" lon="1.30492">
        <ele>170</ele>
        <time>2015-09-27T09:23:41Z</time>
      </trkpt>
      <trkpt lat="45.10978" lon="1.30466">
        <ele>171</ele>
        <time>2015-09-27T09:23:45Z</time>
      </trkpt>
      <trkpt lat="45.10975" lon="1.30436">
        <ele>172</ele>
        <time>2015-09-27T09:23:50Z</time>
      </trkpt>
      <trkpt lat="45.10964" lon="1.30417">
        <ele>173</ele>
        <time>2015-09-27T09:23:54Z</time>
      </trkpt>
      <trkpt lat="45.10955" lon="1.30396">
        <ele>173</ele>
        <time>2015-09-27T09:23:58Z</time>
      </trkpt>
      <trkpt lat="45.1095" lon="1.30373">
        <ele>174</ele>
        <time>2015-09-27T09:24:02Z</time>
      </trkpt>
      <trkpt lat="45.10939" lon="1.30352">
        <ele>175</ele>
        <time>2015-09-27T09:24:06Z</time>
      </trkpt>
      <trkpt lat="45.10911" lon="1.3032">
        <ele>174</ele>
        <time>2015-09-27T09:24:12Z</time>
      </trkpt>
      <trkpt lat="45.10891" lon="1.30306">
        <ele>172</ele>
        <time>2015-09-27T09:24:15Z</time>
      </trkpt>
      <trkpt lat="45.1086" lon="1.30284">
        <ele>170</ele>
        <time>2015-09-27T09:24:19Z</time>
      </trkpt>
      <trkpt lat="45.1084" lon="1.30266">
        <ele>167</ele>
        <time>2015-09-27T09:24:22Z</time>
      </trkpt>
      <trkpt lat="45.10832" lon="1.30242">
        <ele>166</ele>
        <time>2015-09-27T09:24:25Z</time>
      </trkpt>
      <trkpt lat="45.10834" lon="1.30208">
        <ele>166</ele>
        <time>2015-09-27T09:24:29Z</time>
      </trkpt>
      <trkpt lat="45.10836" lon="1.30168">
        <ele>166</ele>
        <time>2015-09-27T09:24:34Z</time>
      </trkpt>
      <trkpt lat="45.10838" lon="1.3011">
        <ele>166</ele>
        <time>2015-09-27T09:24:42Z</time>
      </trkpt>
      <trkpt lat="45.10832" lon="1.30077">
        <ele>165</ele>
        <time>2015-09-27T09:24:46Z</time>
      </trkpt>
      <trkpt lat="45.10833" lon="1.30047">
        <ele>162</ele>
        <time>2015-09-27T09:24:49Z</time>
      </trkpt>
      <trkpt lat="45.10842" lon="1.30011">
        <ele>158</ele>
        <time>2015-09-27T09:24:52Z</time>
      </trkpt>
      <trkpt lat="45.10857" lon="1.29971">
        <ele>155</ele>
        <time>2015-09-27T09:24:55Z</time>
      </trkpt>
      <trkpt lat="45.10873" lon="1.29926">
        <ele>151</ele>
        <time>2015-09-27T09:24:58Z</time>
      </trkpt>
      <trkpt lat="45.10887" lon="1.29881">
        <ele>148</ele>
        <time>2015-09-27T09:25:01Z</time>
      </trkpt>
      <trkpt lat="45.10905" lon="1.29864">
        <ele>150</ele>
        <time>2015-09-27T09:25:04Z</time>
      </trkpt>
      <trkpt lat="45.1093" lon="1.29867">
        <ele>153</ele>
        <time>2015-09-27T09:25:08Z</time>
      </trkpt>
      <trkpt lat="45.10948" lon="1.29869">
        <ele>156</ele>
        <time>2015-09-27T09:25:11Z</time>
      </trkpt>
      <trkpt lat="45.10965" lon="1.29873">
        <ele>157</ele>
        <time>2015-09-27T09:25:14Z</time>
      </trkpt>
      <trkpt lat="45.1098" lon="1.29879">
        <ele>158</ele>
        <time>2015-09-27T09:25:17Z</time>
      </trkpt>
      <trkpt lat="45.10995" lon="1.29885">
        <ele>159</ele>
        <time>2015-09-27T09:25:20Z</time>
      </trkpt>
      <trkpt lat="45.11014" lon="1.29896">
        <ele>160</ele>
        <time>2015-09-27T09:25:24Z</time>
      </trkpt>
      <trkpt lat="45.11027" lon="1.29903">
        <ele>161</ele>
        <time>2015-09-27T09:25:27Z</time>
      </trkpt>
      <trkpt lat="45.11044" lon="1.29886">
        <ele>161</ele>
        <time>2015-09-27T09:25:32Z</time>
      </trkpt>
      <trkpt lat="45.11055" lon="1.29869">
        <ele>162</ele>
        <time>2015-09-27T09:25:36Z</time>
      </trkpt>
      <trkpt lat="45.11064" lon="1.29865">
        <ele>163</ele>
        <time>2015-09-27T09:25:39Z</time>
      </trkpt>
      <trkpt lat="45.11079" lon="1.29864">
        <ele>165</ele>
        <time>2015-09-27T09:25:43Z</time>
      </trkpt>
      <trkpt lat="45.11089" lon="1.29863">
        <ele>166</ele>
        <time>2015-09-27T09:25:46Z</time>
      </trkpt>
      <trkpt lat="45.11102" lon="1.29858">
        <ele>168</ele>
        <time>2015-09-27T09:25:50Z</time>
      </trkpt>
      <trkpt lat="45.1111" lon="1.29857">
        <ele>169</ele>
        <time>2015-09-27T09:25:53Z</time>
      </trkpt>
      <trkpt lat="45.11122" lon="1.29855">
        <ele>170</ele>
        <time>2015-09-27T09:25:57Z</time>
      </trkpt>
      <trkpt lat="45.11141" lon="1.29853">
        <ele>173</ele>
        <time>2015-09-27T09:26:03Z</time>
      </trkpt>
      <trkpt lat="45.11149" lon="1.29852">
        <ele>174</ele>
        <time>2015-09-27T09:26:06Z</time>
      </trkpt>
      <trkpt lat="45.11161" lon="1.29851">
        <ele>175</ele>
        <time>2015-09-27T09:26:11Z</time>
      </trkpt>
      <trkpt lat="45.1117" lon="1.29853">
        <ele>176</ele>
        <time>2015-09-27T09:26:15Z</time>
      </trkpt>
      <trkpt lat="45.11182" lon="1.29857">
        <ele>177</ele>
        <time>2015-09-27T09:26:20Z</time>
      </trkpt>
      <trkpt lat="45.11203" lon="1.29867">
        <ele>178</ele>
        <time>2015-09-27T09:26:27Z</time>
      </trkpt>
      <trkpt lat="45.1122" lon="1.29876">
        <ele>179</ele>
        <time>2015-09-27T09:26:33Z</time>
      </trkpt>
      <trkpt lat="45.11237" lon="1.29891">
        <ele>179</ele>
        <time>2015-09-27T09:26:39Z</time>
      </trkpt>
      <trkpt lat="45.11261" lon="1.29906">
        <ele>180</ele>
        <time>2015-09-27T09:26:47Z</time>
      </trkpt>
      <trkpt lat="45.11276" lon="1.29912">
        <ele>180</ele>
        <time>2015-09-27T09:26:51Z</time>
      </trkpt>
      <trkpt lat="45.11286" lon="1.29917">
        <ele>181</ele>
        <time>2015-09-27T09:26:54Z</time>
      </trkpt>
      <trkpt lat="45.11306" lon="1.29938">
        <ele>182</ele>
        <time>2015-09-27T09:27:01Z</time>
      </trkpt>
      <trkpt lat="45.11322" lon="1.29968">
        <ele>182</ele>
        <time>2015-09-27T09:27:07Z</time>
      </trkpt>
      <trkpt lat="45.11329" lon="1.29986">
        <ele>184</ele>
        <time>2015-09-27T09:27:11Z</time>
      </trkpt>
      <trkpt lat="45.11352" lon="1.30031">
        <ele>185</ele>
        <time>2015-09-27T09:27:20Z</time>
      </trkpt>
      <trkpt lat="45.1136" lon="1.30047">
        <ele>186</ele>
        <time>2015-09-27T09:27:23Z</time>
      </trkpt>
      <trkpt lat="45.11372" lon="1.30059">
        <ele>186</ele>
        <time>2015-09-27T09:27:26Z</time>
      </trkpt>
      <trkpt lat="45.11393" lon="1.30076">
        <ele>187</ele>
        <time>2015-09-27T09:27:31Z</time>
      </trkpt>
      <trkpt lat="45.11405" lon="1.30089">
        <ele>188</ele>
        <time>2015-09-27T09:27:34Z</time>
      </trkpt>
      <trkpt lat="45.11423" lon="1.30138">
        <ele>188</ele>
        <time>2015-09-27T09:27:41Z</time>
      </trkpt>
      <trkpt lat="45.11435" lon="1.30196">
        <ele>187</ele>
        <time>2015-09-27T09:27:48Z</time>
      </trkpt>
      <trkpt lat="45.11453" lon="1.30254">
        <ele>186</ele>
        <time>2015-09-27T09:27:54Z</time>
      </trkpt>
      <trkpt lat="45.11473" lon="1.30292">
        <ele>184</ele>
        <time>2015-09-27T09:27:58Z</time>
      </trkpt>
      <trkpt lat="45.11492" lon="1.30315">
        <ele>182</ele>
        <time>2015-09-27T09:28:01Z</time>
      </trkpt>
      <trkpt lat="45.1152" lon="1.30319">
        <ele>180</ele>
        <time>2015-09-27T09:28:04Z</time>
      </trkpt>
      <trkpt lat="45.11559" lon="1.30322">
        <ele>176</ele>
        <time>2015-09-27T09:28:08Z</time>
      </trkpt>
      <trkpt lat="45.11589" lon="1.30322">
        <ele>174</ele>
        <time>2015-09-27T09:28:11Z</time>
      </trkpt>
      <trkpt lat="45.11618" lon="1.30323">
        <ele>171</ele>
        <time>2015-09-27T09:28:14Z</time>
      </trkpt>
      <trkpt lat="45.11643" lon="1.30316">
        <ele>167</ele>
        <time>2015-09-27T09:28:17Z</time>
      </trkpt>
      <trkpt lat="45.11657" lon="1.30308">
        <ele>165</ele>
        <time>2015-09-27T09:28:21Z</time>
      </trkpt>
      <trkpt lat="45.11646" lon="1.30313">
        <ele>166</ele>
        <time>2015-09-27T09:28:25Z</time>
      </trkpt>
      <trkpt lat="45.11635" lon="1.30318">
        <ele>166</ele>
        <time>2015-09-27T09:28:29Z</time>
      </trkpt>
      <trkpt lat="45.11622" lon="1.30319">
        <ele>167</ele>
        <time>2015-09-27T09:28:34Z</time>
      </trkpt>
      <trkpt lat="45.11624" lon="1.30316">
        <ele>167</ele>
        <time>2015-09-27T09:28:38Z</time>
      </trkpt>
      <trkpt lat="45.11638" lon="1.30311">
        <ele>167</ele>
        <time>2015-09-27T09:28:42Z</time>
      </trkpt>
      <trkpt lat="45.11656" lon="1.30304">
        <ele>165</ele>
        <time>2015-09-27T09:28:46Z</time>
      </trkpt>
      <trkpt lat="45.11678" lon="1.30295">
        <ele>164</ele>
        <time>2015-09-27T09:28:50Z</time>
      </trkpt>
      <trkpt lat="45.11697" lon="1.30285">
        <ele>163</ele>
        <time>2015-09-27T09:28:53Z</time>
      </trkpt>
      <trkpt lat="45.11732" lon="1.30277">
        <ele>162</ele>
        <time>2015-09-27T09:28:57Z</time>
      </trkpt>
      <trkpt lat="45.11772" lon="1.30273">
        <ele>159</ele>
        <time>2015-09-27T09:29:01Z</time>
      </trkpt>
      <trkpt lat="45.11815" lon="1.30269">
        <ele>156</ele>
        <time>2015-09-27T09:29:05Z</time>
      </trkpt>
      <trkpt lat="45.11856" lon="1.30259">
        <ele>154</ele>
        <time>2015-09-27T09:29:09Z</time>
      </trkpt>
      <trkpt lat="45.11884" lon="1.30247">
        <ele>153</ele>
        <time>2015-09-27T09:29:12Z</time>
      </trkpt>
      <trkpt lat="45.11915" lon="1.30221">
        <ele>152</ele>
        <time>2015-09-27T09:29:16Z</time>
      </trkpt>
      <trkpt lat="45.11938" lon="1.30207">
        <ele>151</ele>
        <time>2015-09-27T09:29:19Z</time>
      </trkpt>
      <trkpt lat="45.11959" lon="1.30189">
        <ele>150</ele>
        <time>2015-09-27T09:29:22Z</time>
      </trkpt>
      <trkpt lat="45.11987" lon="1.30151">
        <ele>151</ele>
        <time>2015-09-27T09:29:27Z</time>
      </trkpt>
      <trkpt lat="45.12018" lon="1.30134">
        <ele>151</ele>
        <time>2015-09-27T09:29:32Z</time>
      </trkpt>
      <trkpt lat="45.12033" lon="1.3013">
        <ele>152</ele>
        <time>2015-09-27T09:29:35Z</time>
      </trkpt>
      <trkpt lat="45.12037" lon="1.30113">
        <ele>151</ele>
        <time>2015-09-27T09:29:38Z</time>
      </trkpt>
      <trkpt lat="45.12048" lon="1.30098">
        <ele>150</ele>
        <time>2015-09-27T09:29:41Z</time>
      </trkpt>
      <trkpt lat="45.12073" lon="1.30086">
        <ele>149</ele>
        <time>2015-09-27T09:29:45Z</time>
      </trkpt>
      <trkpt lat="45.12098" lon="1.30074">
        <ele>145</ele>
        <time>2015-09-27T09:29:49Z</time>
      </trkpt>
      <trkpt lat="45.12108" lon="1.30081">
        <ele>144</ele>
        <time>2015-09-27T09:29:52Z</time>
      </trkpt>
      <trkpt lat="45.12114" lon="1.30097">
        <ele>145</ele>
        <time>2015-09-27T09:29:55Z</time>
      </trkpt>
      <trkpt lat="45.1212" lon="1.30114">
        <ele>146</ele>
        <time>2015-09-27T09:29:58Z</time>
      </trkpt>
      <trkpt lat="45.12122" lon="1.30133">
        <ele>148</ele>
        <time>2015-09-27T09:30:01Z</time>
      </trkpt>
      <trkpt lat="45.12124" lon="1.30151">
        <ele>149</ele>
        <time>2015-09-27T09:30:04Z</time>
      </trkpt>
      <trkpt lat="45.12129" lon="1.3017">
        <ele>149</ele>
        <time>2015-09-27T09:30:08Z</time>
      </trkpt>
      <trkpt lat="45.12143" lon="1.30196">
        <ele>147</ele>
        <time>2015-09-27T09:30:14Z</time>
      </trkpt>
      <trkpt lat="45.12147" lon="1.30213">
        <ele>146</ele>
        <time>2015-09-27T09:30:17Z</time>
      </trkpt>
      <trkpt lat="45.12146" lon="1.30235">
        <ele>144</ele>
        <time>2015-09-27T09:30:20Z</time>
      </trkpt>
      <trkpt lat="45.12143" lon="1.30258">
        <ele>142</ele>
        <time>2015-09-27T09:30:23Z</time>
      </trkpt>
      <trkpt lat="45.12145" lon="1.30287">
        <ele>136</ele>
        <time>2015-09-27T09:30:26Z</time>
      </trkpt>
      <trkpt lat="45.12155" lon="1.30323">
        <ele>131</ele>
        <time>2015-09-27T09:30:29Z</time>
      </trkpt>
      <trkpt lat="45.12169" lon="1.30353">
        <ele>127</ele>
        <time>2015-09-27T09:30:32Z</time>
      </trkpt>
      <trkpt lat="45.12184" lon="1.30369">
        <ele>121</ele>
        <time>2015-09-27T09:30:35Z</time>
      </trkpt>
      <trkpt lat="45.12193" lon="1.30389">
        <ele>118</ele>
        <time>2015-09-27T09:30:38Z</time>
      </trkpt>
      <trkpt lat="45.12199" lon="1.30413">
        <ele>115</ele>
        <time>2015-09-27T09:30:41Z</time>
      </trkpt>
      <trkpt lat="45.12211" lon="1.30441">
        <ele>111</ele>
        <time>2015-09-27T09:30:44Z</time>
      </trkpt>
      <trkpt lat="45.12225" lon="1.30473">
        <ele>109</ele>
        <time>2015-09-27T09:30:47Z</time>
      </trkpt>
      <trkpt lat="45.12227" lon="1.30523">
        <ele>109</ele>
        <time>2015-09-27T09:30:51Z</time>
      </trkpt>
      <trkpt lat="45.12227" lon="1.30559">
        <ele>111</ele>
        <time>2015-09-27T09:30:54Z</time>
      </trkpt>
      <trkpt lat="45.12231" lon="1.30576">
        <ele>113</ele>
        <time>2015-09-27T09:30:57Z</time>
      </trkpt>
      <trkpt lat="45.12251" lon="1.30589">
        <ele>110</ele>
        <time>2015-09-27T09:31:00Z</time>
      </trkpt>
      <trkpt lat="45.12276" lon="1.306">
        <ele>107</ele>
        <time>2015-09-27T09:31:03Z</time>
      </trkpt>
      <trkpt lat="45.12304" lon="1.30611">
        <ele>104</ele>
        <time>2015-09-27T09:31:06Z</time>
      </trkpt>
      <trkpt lat="45.12335" lon="1.30623">
        <ele>101</ele>
        <time>2015-09-27T09:31:09Z</time>
      </trkpt>
      <trkpt lat="45.12368" lon="1.30636">
        <ele>96</ele>
        <time>2015-09-27T09:31:12Z</time>
      </trkpt>
      <trkpt lat="45.12401" lon="1.30648">
        <ele>91</ele>
        <time>2015-09-27T09:31:15Z</time>
      </trkpt>
      <trkpt lat="45.12429" lon="1.30656">
        <ele>87</ele>
        <time>2015-09-27T09:31:18Z</time>
      </trkpt>
      <trkpt lat="45.12458" lon="1.30656">
        <ele>83</ele>
        <time>2015-09-27T09:31:21Z</time>
      </trkpt>
      <trkpt lat="45.12483" lon="1.30641">
        <ele>77</ele>
        <time>2015-09-27T09:31:24Z</time>
      </trkpt>
      <trkpt lat="45.12508" lon="1.30613">
        <ele>72</ele>
        <time>2015-09-27T09:31:27Z</time>
      </trkpt>
      <trkpt lat="45.12532" lon="1.30589">
        <ele>67</ele>
        <time>2015-09-27T09:31:30Z</time>
      </trkpt>
      <trkpt lat="45.12553" lon="1.30571">
        <ele>64</ele>
        <time>2015-09-27T09:31:33Z</time>
      </trkpt>
      <trkpt lat="45.12573" lon="1.30557">
        <ele>62</ele>
        <time>2015-09-27T09:31:36Z</time>
      </trkpt>
      <trkpt lat="45.12596" lon="1.30547">
        <ele>60</ele>
        <time>2015-09-27T09:31:39Z</time>
      </trkpt>
      <trkpt lat="45.12615" lon="1.30544">
        <ele>59</ele>
        <time>2015-09-27T09:31:42Z</time>
      </trkpt>
      <trkpt lat="45.12629" lon="1.30536">
        <ele>58</ele>
        <time>2015-09-27T09:31:45Z</time>
      </trkpt>
      <trkpt lat="45.12638" lon="1.30531">
        <ele>57</ele>
        <time>2015-09-27T09:31:48Z</time>
      </trkpt>
      <trkpt lat="45.12646" lon="1.30524">
        <ele>54</ele>
        <time>2015-09-27T09:31:51Z</time>
      </trkpt>
      <trkpt lat="45.12654" lon="1.30506">
        <ele>50</ele>
        <time>2015-09-27T09:31:55Z</time>
      </trkpt>
      <trkpt lat="45.12657" lon="1.30485">
        <ele>47</ele>
        <time>2015-09-27T09:31:59Z</time>
      </trkpt>
      <trkpt lat="45.12658" lon="1.3047">
        <ele>45</ele>
        <time>2015-09-27T09:32:02Z</time>
      </trkpt>
      <trkpt lat="45.12664" lon="1.30455">
        <ele>44</ele>
        <time>2015-09-27T09:32:05Z</time>
      </trkpt>
      <trkpt lat="45.12679" lon="1.30439">
        <ele>41</ele>
        <time>2015-09-27T09:32:08Z</time>
      </trkpt>
      <trkpt lat="45.12692" lon="1.30429">
        <ele>40</ele>
        <time>2015-09-27T09:32:11Z</time>
      </trkpt>
      <trkpt lat="45.12705" lon="1.30436">
        <ele>38</ele>
        <time>2015-09-27T09:32:14Z</time>
      </trkpt>
      <trkpt lat="45.12717" lon="1.30437">
        <ele>35</ele>
        <time>2015-09-27T09:32:17Z</time>
      </trkpt>
      <trkpt lat="45.12734" lon="1.30448">
        <ele>30</ele>
        <time>2015-09-27T09:32:20Z</time>
      </trkpt>
      <trkpt lat="45.12751" lon="1.30469">
        <ele>26</ele>
        <time>2015-09-27T09:32:23Z</time>
      </trkpt>
      <trkpt lat="45.1277" lon="1.30499">
        <ele>22</ele>
        <time>2015-09-27T09:32:26Z</time>
      </trkpt>
      <trkpt lat="45.12789" lon="1.30523">
        <ele>20</ele>
        <time>2015-09-27T09:32:29Z</time>
      </trkpt>
      <trkpt lat="45.12809" lon="1.30522">
        <ele>20</ele>
        <time>2015-09-27T09:32:34Z</time>
      </trkpt>
      <trkpt lat="45.12811" lon="1.30496">
        <ele>20</ele>
        <time>2015-09-27T09:32:39Z</time>
      </trkpt>
      <trkpt lat="45.12809" lon="1.30454">
        <ele>20</ele>
        <time>2015-09-27T09:32:46Z</time>
      </trkpt>
      <trkpt lat="45.12803" lon="1.30407">
        <ele>21</ele>
        <time>2015-09-27T09:32:52Z</time>
      </trkpt>
      <trkpt lat="45.12792" lon="1.30375">
        <ele>20</ele>
        <time>2015-09-27T09:32:56Z</time>
      </trkpt>
      <trkpt lat="45.1278" lon="1.3032">
        <ele>20</ele>
        <time>2015-09-27T09:33:04Z</time>
      </trkpt>
      <trkpt lat="45.12781" lon="1.30302">
        <ele>20</ele>
        <time>2015-09-27T09:33:07Z</time>
      </trkpt>
      <trkpt lat="45.12791" lon="1.30287">
        <ele>21</ele>
        <time>2015-09-27T09:33:12Z</time>
      </trkpt>
      <trkpt lat="45.12831" lon="1.3028">
        <ele>21</ele>
        <time>2015-09-27T09:33:21Z</time>
      </trkpt>
      <trkpt lat="45.12845" lon="1.30279">
        <ele>21</ele>
        <time>2015-09-27T09:33:24Z</time>
      </trkpt>
      <trkpt lat="45.12851" lon="1.30305">
        <ele>20</ele>
        <time>2015-09-27T09:33:28Z</time>
      </trkpt>
      <trkpt lat="45.12855" lon="1.30333">
        <ele>18</ele>
        <time>2015-09-27T09:33:31Z</time>
      </trkpt>
      <trkpt lat="45.12862" lon="1.30359">
        <ele>17</ele>
        <time>2015-09-27T09:33:34Z</time>
      </trkpt>
      <trkpt lat="45.12878" lon="1.30378">
        <ele>17</ele>
        <time>2015-09-27T09:33:38Z</time>
      </trkpt>
      <trkpt lat="45.12904" lon="1.30389">
        <ele>17</ele>
        <time>2015-09-27T09:33:43Z</time>
      </trkpt>
      <trkpt lat="45.12927" lon="1.30391">
        <ele>17</ele>
        <time>2015-09-27T09:33:48Z</time>
      </trkpt>
      <trkpt lat="45.12936" lon="1.30386">
        <ele>17</ele>
        <time>2015-09-27T09:33:52Z</time>
      </trkpt>
      <trkpt lat="45.12938" lon="1.30385">
        <ele>17</ele>
        <time>2015-09-27T09:33:53Z</time>
      </trkpt>
    </trkseg>
  </trk>
</gpx>